GFSMW_925_spd_000.txt.gz
Wind_Speed
13 16 20 23 24 24 26 28 26 27 22 22 22 21 25 23 23 24 24 25 26 26 27 26 25 24 25 25 23 22 22 22 18 16 19 21 23 25 25 23 23 23 22
12 9 10 14 20 25 25 24 26 25 25 24 23 19 13 20 23 23 25 28 28 28 28 28 27 25 24 25 25 24 23 22 20 15 12 5 14 19 18 19 18 18 14
14 14 14 12 10 15 18 21 22 22 23 24 20 19 19 18 18 24 26 26 27 27 28 28 28 26 26 26 27 27 27 24 22 23 16 5 7 2 10 11 12 11 12
17 16 16 18 13 9 8 11 14 14 16 19 22 25 24 23 25 21 20 21 23 27 28 29 27 27 26 28 28 28 29 27 24 19 25 26 18 6 7 12 13 14 14
18 19 17 20 17 12 6 6 9 14 16 18 23 22 24 25 22 20 19 20 21 23 25 27 27 28 29 29 29 28 29 29 28 28 18 21 22 21 10 11 13 19 20
17 17 21 20 22 18 14 9 6 8 10 15 20 25 27 25 22 20 20 20 19 21 26 27 27 27 29 31 31 31 31 30 29 30 28 25 12 15 11 9 13 15 22
17 17 18 21 22 22 20 16 13 11 8 8 12 17 22 22 24 24 22 20 20 21 23 25 27 29 30 30 30 30 31 34 32 32 30 30 31 26 21 20 14 11 21
15 15 15 19 21 21 22 20 18 16 13 10 9 10 13 16 18 18 20 19 19 19 18 21 24 26 26 27 28 29 31 31 34 35 33 32 32 31 29 25 15 9 10
13 14 15 18 18 20 20 21 21 20 19 15 11 10 11 13 16 17 18 19 20 20 20 21 24 27 28 29 28 30 32 30 31 33 36 35 33 31 31 29 27 17 11
11 12 12 15 16 17 17 21 21 21 20 19 16 13 10 11 13 16 18 19 21 21 21 22 24 26 27 28 29 30 30 29 30 30 30 32 32 31 29 30 29 28 21
10 9 8 11 13 14 16 18 21 21 21 21 19 18 15 13 12 13 15 17 19 20 22 24 25 28 29 29 30 32 31 30 31 31 31 33 31 30 30 30 28 26 25
6 7 8 8 10 12 14 17 19 20 20 18 19 18 18 18 16 16 16 16 17 18 21 23 26 28 29 30 31 33 33 33 32 34 32 33 30 31 30 27 27 28 27
5 6 7 7 10 13 15 17 19 18 18 17 16 18 19 21 21 20 20 19 18 19 21 22 25 28 30 29 32 33 36 35 35 34 34 36 32 31 30 28 26 27 26
2 4 5 5 9 12 16 16 16 16 17 17 17 17 17 17 17 19 21 22 22 21 23 23 25 27 29 29 32 33 35 36 36 35 35 36 35 37 33 30 31 27 23
6 9 11 12 16 18 20 21 21 21 22 21 18 18 18 19 20 21 23 25 25 24 23 25 26 26 27 29 29 31 33 35 35 34 34 37 38 41 36 31 30 27 24
7 9 11 13 17 16 18 18 18 19 19 20 21 20 20 22 24 25 27 28 28 27 25 25 25 28 28 31 33 33 32 32 33 34 34 36 39 44 43 42 35 30 27
11 11 11 12 12 14 14 16 17 18 18 18 18 19 21 22 23 25 26 26 28 30 30 30 28 30 28 32 33 34 36 37 34 33 32 31 32 36 37 45 39 32 31
12 12 12 11 11 12 16 19 20 19 19 17 18 20 22 24 25 25 26 28 28 28 30 29 30 32 32 34 33 34 33 32 34 35 31 30 31 32 36 32 31 32 32
11 10 7 8 11 14 17 19 20 21 21 21 23 24 24 25 26 27 28 29 29 30 30 30 29 28 34 35 34 34 29 29 32 35 32 31 34 35 39 30 28 25 21
6 9 12 13 14 18 20 21 21 21 19 22 24 25 25 26 27 28 29 29 29 30 30 31 29 29 29 33 33 33 29 29 28 27 29 33 37 32 36 32 27 22 23
9 12 13 14 16 17 18 18 19 19 20 22 23 24 24 25 25 27 27 29 29 29 30 30 29 28 26 29 30 31 30 28 27 25 25 25 30 35 37 39 35 30 31
14 14 14 14 15 14 16 18 19 21 22 24 24 24 25 25 25 27 27 27 27 27 27 28 28 27 28 28 30 30 31 33 29 27 25 27 31 30 37 35 25 27 29
13 13 14 16 16 16 18 21 22 23 24 25 26 26 27 26 25 26 26 25 24 24 24 24 24 27 30 31 31 28 26 31 28 25 26 28 30 29 33 26 34 37 30
12 13 16 17 19 21 23 23 25 26 26 27 27 27 27 27 26 25 25 24 23 24 24 24 23 26 29 29 27 30 32 30 28 25 25 23 20 26 24 28 31 25 28
13 15 18 20 22 23 25 25 26 26 27 28 28 28 26 28 28 24 25 25 25 25 26 27 26 26 27 30 37 39 35 32 28 15 8 15 19 21 21 22 19 24 28
15 17 19 21 24 25 26 27 27 26 27 28 26 26 27 27 26 27 28 26 27 28 30 32 29 29 32 35 41 41 39 35 25 10 9 12 17 21 22 21 21 20 23

GFSMW_925_spd_003.txt.gz
Wind_Speed
9 8 10 14 19 20 21 23 24 25 23 23 23 21 23 22 23 24 25 25 27 27 29 30 28 27 27 26 25 24 23 22 21 19 20 20 23 26 28 27 28 28 28
12 12 12 10 11 15 19 20 20 21 21 21 21 21 21 21 24 23 26 26 28 30 30 31 31 29 27 28 28 27 23 24 22 20 15 7 14 25 28 28 25 27 25
16 15 15 15 12 9 11 15 18 18 18 21 19 19 19 20 18 23 26 29 28 30 31 32 31 29 29 29 30 29 28 24 24 25 16 4 7 4 14 18 17 19 20
15 15 15 20 19 16 11 8 10 13 15 16 20 22 22 21 25 24 21 23 26 29 31 32 32 32 30 31 30 29 30 28 24 22 31 33 20 5 5 11 18 19 18
14 16 15 19 20 19 16 11 8 6 9 12 17 19 22 22 21 20 22 20 21 24 28 31 30 32 32 31 30 28 28 30 28 28 20 26 26 27 11 10 13 20 21
13 13 16 17 19 20 20 17 15 12 8 6 8 14 19 20 20 19 18 18 17 19 23 26 28 29 30 31 30 31 32 33 33 32 31 26 12 14 12 10 12 16 24
11 11 12 15 18 20 21 19 19 18 16 12 10 10 13 16 19 19 19 19 19 20 22 23 27 30 32 32 32 31 33 35 34 35 33 32 34 29 23 21 10 11 21
9 9 10 12 14 15 17 17 17 17 18 16 14 12 12 12 14 15 17 18 19 19 19 21 24 28 30 30 31 31 33 33 35 36 35 34 35 32 31 27 14 9 11
7 7 8 11 11 13 15 16 17 17 17 17 16 15 13 13 14 16 17 19 20 20 20 21 23 25 28 30 30 31 32 32 33 35 37 37 35 32 33 33 29 15 11
4 5 7 8 8 9 11 14 15 16 16 15 15 15 15 15 15 14 15 17 19 20 21 22 23 25 26 27 28 29 31 32 34 35 34 35 36 34 33 33 33 30 21
3 5 6 6 7 9 12 14 15 16 16 16 15 15 15 15 16 16 17 17 18 18 19 21 23 24 25 26 27 30 32 33 34 34 34 35 33 31 31 32 31 32 29
2 5 4 4 6 9 12 14 14 16 16 17 17 17 16 16 18 18 19 18 19 20 20 21 22 24 25 25 26 29 31 33 34 35 34 36 33 34 34 32 33 32 33
3 3 3 5 8 10 13 16 17 17 17 19 21 21 21 22 23 25 26 26 26 26 25 23 23 24 24 26 27 29 32 33 34 35 35 36 35 35 33 35 30 31 32
2 3 5 7 12 14 14 17 19 18 18 19 19 20 21 22 23 25 26 27 28 29 29 30 28 27 26 26 27 28 31 34 34 36 35 36 37 37 36 33 33 31 28
3 5 7 9 14 16 15 17 17 17 19 19 20 21 22 22 23 23 24 26 28 29 30 30 31 31 30 26 27 27 28 31 33 36 36 39 39 42 42 34 34 33 29
5 7 10 11 15 16 15 14 14 17 18 18 19 20 22 24 26 26 28 28 28 29 29 30 30 30 29 31 35 35 29 30 32 34 37 38 38 40 48 47 45 38 31
6 9 11 13 13 15 14 15 17 19 20 20 21 21 22 23 23 25 26 26 27 29 29 30 30 31 32 34 37 36 31 29 31 32 35 36 33 34 37 40 50 50 43
7 9 10 11 12 12 14 17 19 20 21 23 23 24 25 25 26 26 26 27 27 26 27 28 28 30 31 34 35 39 31 29 28 29 32 33 35 33 33 33 30 34 38
7 9 10 11 13 13 16 18 20 21 22 22 24 25 26 26 26 26 26 28 28 28 27 28 29 29 29 30 32 36 31 31 30 26 30 31 35 36 37 33 27 24 23
6 8 12 13 13 15 17 18 20 21 22 23 26 27 27 27 28 28 29 28 29 28 28 28 26 26 29 30 31 36 32 30 31 32 28 27 35 38 37 33 25 18 21
7 8 10 11 13 15 17 18 20 21 23 24 25 26 27 28 27 29 28 30 30 30 28 28 26 26 28 30 33 34 33 29 30 29 33 29 30 36 37 38 30 33 27
9 11 12 12 14 14 16 19 20 23 25 26 26 26 27 27 27 29 29 27 27 27 26 25 26 27 29 31 32 34 33 34 33 31 33 32 32 40 40 38 35 23 27
11 11 12 14 14 15 17 20 22 25 27 27 27 28 27 27 26 28 28 28 24 23 22 23 24 28 30 31 32 32 35 39 39 36 35 41 39 38 37 39 25 33 28
10 12 13 15 17 18 20 21 25 26 27 28 27 27 27 27 26 26 26 24 23 23 22 24 25 27 30 30 31 35 38 39 39 38 37 37 35 31 21 15 29 22 24
11 12 15 17 19 21 22 23 24 25 26 26 26 26 25 26 27 25 27 25 23 24 28 28 28 28 27 28 38 39 40 41 43 48 36 26 16 8 12 15 17 16 17
12 14 16 18 20 22 23 23 23 24 25 26 24 25 26 26 27 27 26 25 27 29 30 32 33 31 30 33 37 40 43 43 47 36 24 13 10 9 11 11 11 14 17

GFSMW_925_spd_006.txt.gz
Wind_Speed
9 21 22 21 19 16 14 17 22 24 27 27 25 25 27 26 27 30 31 30 32 32 34 37 34 32 33 34 33 32 31 31 27 24 26 27 28 29 32 33 34 36 36
9 11 18 21 21 20 18 15 12 15 21 27 27 27 26 24 29 30 33 34 33 33 33 36 35 33 31 32 33 32 27 27 27 20 13 6 15 30 35 38 38 39 38
8 8 11 20 20 21 17 15 13 12 13 14 22 21 24 24 23 27 28 29 29 30 31 32 32 31 32 31 31 32 31 24 25 30 16 3 6 2 20 30 34 34 34
7 7 9 16 19 19 19 15 10 7 8 6 11 18 20 18 23 24 24 25 26 31 33 35 34 35 33 33 32 33 35 30 26 21 33 34 22 6 4 15 25 26 28
7 8 8 14 17 20 20 21 18 16 11 8 9 11 15 22 24 24 24 23 25 28 31 33 34 36 34 35 33 32 33 33 31 30 23 26 30 31 13 11 11 25 28
7 7 10 13 16 20 21 21 21 20 17 13 11 11 15 18 20 22 23 24 24 23 24 28 32 35 34 34 35 35 35 35 34 34 30 29 12 14 11 12 15 14 24
6 6 6 9 16 21 22 22 23 23 22 21 19 17 16 16 17 19 21 21 23 22 23 25 29 33 35 35 34 33 34 36 35 35 34 33 34 32 26 23 14 10 21
5 6 6 9 14 17 20 21 21 22 22 23 22 21 20 20 19 20 21 22 23 24 24 25 22 29 31 32 33 34 34 34 33 35 36 35 35 34 33 30 15 11 11
5 6 5 7 10 12 12 14 16 17 19 20 20 21 21 22 21 21 20 21 22 23 24 24 24 26 26 27 32 32 33 34 34 35 35 35 38 35 33 33 33 16 14
7 4 4 6 6 8 11 13 14 15 17 18 19 20 20 20 21 23 24 24 25 25 25 24 23 24 25 26 28 30 32 33 33 34 33 35 36 35 33 33 34 33 23
5 3 3 2 2 7 9 11 13 14 16 18 19 21 23 23 23 25 26 28 29 30 30 30 29 26 27 28 28 29 31 31 33 34 33 35 37 35 32 32 34 33 32
5 4 2 2 6 5 6 14 19 19 18 19 20 20 20 22 23 24 26 27 27 28 29 31 30 29 29 29 29 31 30 30 30 31 34 37 38 37 33 32 33 33 34
5 4 2 0 4 11 12 16 18 19 19 20 20 21 21 22 24 25 26 27 28 30 30 30 29 29 30 31 31 30 30 29 28 28 30 33 34 35 36 35 36 34 33
6 2 1 6 12 14 16 18 19 18 19 21 21 22 22 23 25 27 28 28 28 29 29 30 31 31 31 31 32 30 29 28 28 29 30 32 34 35 35 34 36 34 32
5 5 6 6 11 14 17 17 16 19 22 22 22 24 22 24 26 30 31 31 31 30 31 31 31 31 29 27 32 36 33 29 29 30 31 33 34 37 41 39 37 33 29
6 6 6 8 14 19 17 17 19 21 22 21 22 23 21 23 24 25 27 28 29 30 32 32 30 32 30 32 37 36 30 28 27 28 33 33 33 32 34 38 41 45 39
7 7 8 10 12 15 16 17 20 22 22 21 23 21 25 25 26 26 26 27 27 29 28 29 30 30 34 34 35 32 32 27 29 29 30 34 31 32 33 34 35 38 45
10 9 8 12 14 15 16 18 21 22 22 23 20 22 24 24 26 26 26 28 28 27 29 29 28 30 29 28 30 34 30 31 31 30 30 30 32 33 34 34 30 33 34
8 10 12 12 13 12 16 16 18 18 20 18 21 22 24 25 26 27 28 29 29 27 28 27 30 29 28 28 29 33 30 29 31 29 30 32 34 34 35 36 31 31 35
11 13 13 12 11 12 12 13 14 16 15 19 21 23 25 26 27 28 29 30 29 31 28 30 29 30 28 29 30 32 27 28 29 32 33 33 34 35 36 35 32 25 31
13 12 9 7 9 9 10 12 14 16 20 21 23 24 25 27 27 29 30 29 33 30 33 30 30 28 27 31 31 33 31 25 31 32 33 34 37 41 43 41 38 34 37
5 4 3 5 8 10 13 15 17 21 23 24 25 26 26 27 28 29 28 30 30 31 29 27 27 26 30 30 32 35 31 30 31 33 35 37 41 49 47 42 38 41 38
2 3 5 8 10 12 15 18 21 23 23 23 23 24 26 26 27 27 28 29 26 28 25 25 25 30 33 32 33 32 34 36 35 34 38 46 46 45 40 35 37 37 20
3 6 8 10 12 15 16 18 21 23 23 24 24 24 25 27 26 27 25 27 27 24 24 25 27 30 32 33 31 32 35 36 36 36 40 39 37 32 30 32 30 20 22
5 8 10 13 15 16 19 20 22 22 23 23 24 25 24 26 28 26 27 27 25 26 29 28 29 29 28 31 37 36 37 38 39 42 31 30 29 26 25 20 8 1 4
8 10 12 14 18 20 22 23 23 22 24 23 23 24 25 25 27 27 28 27 29 31 31 33 30 31 32 37 36 37 39 42 38 27 23 24 25 23 22 12 6 4 6

GFSMW_925_spd_009.txt.gz
Wind_Speed
5 22 24 23 19 15 11 10 6 21 33 34 31 31 33 31 30 29 30 33 33 33 34 36 38 38 37 39 38 38 37 37 36 28 28 37 38 39 41 41 44 47 45
10 12 20 21 22 21 18 14 12 14 9 28 32 31 31 28 31 30 32 33 33 34 35 37 40 41 38 39 40 37 32 31 28 21 11 7 18 32 39 40 44 42 41
6 6 10 17 21 25 23 21 17 12 13 2 18 22 18 17 20 21 25 28 31 35 36 38 40 39 38 36 35 34 32 28 27 30 17 3 6 2 10 28 35 35 36
4 5 8 16 20 20 23 23 22 22 18 15 12 5 11 16 21 22 23 26 27 30 31 35 40 41 39 37 36 33 34 30 30 24 34 37 22 7 7 14 22 26 34
6 7 7 13 16 20 23 23 23 24 21 17 16 15 14 14 14 15 17 19 20 21 21 27 38 40 40 41 38 33 30 30 31 30 27 26 31 31 13 12 14 23 32
7 7 11 13 17 18 19 21 24 24 24 23 22 21 20 19 19 19 19 20 21 20 20 22 22 33 36 39 41 38 34 33 32 30 31 28 13 12 10 12 14 17 31
7 6 7 9 12 15 17 18 20 22 21 22 22 22 22 21 21 21 21 23 24 25 25 25 25 23 22 31 35 33 34 36 33 32 33 33 32 32 32 23 14 13 27
6 6 5 7 9 11 13 15 17 19 20 22 22 22 21 21 21 22 23 23 25 25 26 27 26 26 25 21 22 29 34 35 36 36 34 35 35 33 32 28 14 14 13
7 7 7 6 5 7 10 12 15 17 21 21 22 23 23 22 23 23 24 26 27 27 28 27 27 27 27 28 29 26 25 28 32 34 35 35 35 34 34 33 32 15 14
8 7 7 6 3 3 7 12 17 20 20 21 22 22 22 23 24 25 28 28 30 31 31 32 32 31 30 28 28 30 31 31 30 27 28 31 32 34 35 35 34 31 18
7 7 6 6 3 3 13 18 19 21 23 23 22 22 22 23 23 24 26 28 29 31 32 32 32 31 31 31 31 31 30 30 31 32 31 29 30 28 30 32 32 31 31
8 7 6 4 3 12 15 19 20 20 20 20 21 22 22 24 26 28 30 30 27 28 28 29 30 30 30 30 30 30 31 28 27 27 28 28 29 29 29 28 30 32 34
7 4 4 6 11 15 17 19 20 20 22 23 24 25 26 26 28 31 32 33 32 31 30 29 29 29 30 30 29 29 26 29 27 26 27 28 29 30 30 30 29 30 31
7 5 6 7 15 17 18 18 19 21 22 22 23 25 25 26 29 32 32 32 32 31 31 31 32 31 30 30 29 33 33 29 26 26 27 28 28 28 31 31 32 31 30
7 7 6 6 13 17 18 18 19 19 20 20 23 22 22 27 30 30 31 32 32 32 33 35 32 34 32 27 36 36 29 25 26 26 28 29 30 33 35 33 30 29 29
7 8 8 8 12 15 13 14 15 18 18 21 22 21 27 29 28 29 30 30 31 31 33 33 33 34 30 36 37 32 24 25 27 29 30 29 29 28 33 30 34 35 32
9 7 7 9 12 11 10 13 16 19 21 23 21 25 26 26 26 28 28 29 29 31 31 28 32 31 33 34 36 28 31 30 30 28 31 31 28 35 33 35 35 34 32
7 7 8 10 9 8 10 12 17 18 20 18 23 26 27 26 27 28 28 29 28 29 28 30 31 31 33 33 27 31 29 30 31 30 29 29 36 35 34 35 34 36 34
8 10 10 8 6 9 11 16 16 16 18 18 22 24 25 26 26 27 28 28 29 28 31 30 31 33 32 27 28 36 32 30 31 30 27 33 34 35 36 36 35 37 38
10 8 7 3 5 9 11 11 11 14 15 19 22 23 24 26 26 27 28 28 28 30 28 31 29 29 26 27 34 36 30 31 30 28 33 33 33 37 40 39 36 34 39
8 5 4 5 7 8 9 9 12 15 17 20 22 23 24 26 25 27 29 28 28 29 28 28 29 25 26 32 34 33 32 30 30 31 33 35 38 41 46 46 41 36 41
4 4 3 5 7 9 10 12 14 17 19 21 23 25 26 26 26 28 27 26 27 25 27 27 23 26 28 31 32 34 33 35 33 33 35 39 43 47 45 44 40 39 41
3 4 4 6 8 10 12 15 19 21 23 24 26 27 27 26 25 25 26 24 24 24 24 23 25 26 29 31 32 32 35 36 37 34 40 44 42 38 35 36 40 35 30
5 5 5 7 10 12 15 19 22 22 23 25 26 24 23 25 24 23 22 23 22 23 23 25 25 28 30 30 29 33 32 35 34 37 39 36 33 30 32 32 32 28 24
3 4 7 10 13 16 20 22 23 23 24 23 23 22 23 24 26 25 24 25 25 25 29 28 28 27 26 29 38 36 37 37 38 42 30 27 27 29 29 30 29 27 22
6 8 11 13 17 19 22 24 24 23 23 25 23 24 25 24 25 26 29 27 28 29 30 29 28 29 31 35 37 37 37 37 38 29 24 24 25 26 27 27 28 27 19

GFSMW_925_spd_012.txt.gz
Wind_Speed
3 14 17 18 16 16 12 11 12 4 22 29 30 31 32 32 32 32 32 31 32 33 34 35 37 38 39 41 40 38 36 35 33 29 28 31 39 44 44 40 43 46 47
6 9 17 20 22 22 22 18 15 17 5 16 24 21 19 23 31 30 28 27 28 30 31 34 37 40 40 40 38 36 30 28 26 17 14 7 19 29 35 38 41 43 38
7 8 12 19 22 25 23 24 22 21 19 10 6 10 11 9 9 12 16 19 21 25 28 33 38 40 39 37 36 34 33 28 28 29 15 4 6 3 15 21 27 30 33
6 5 8 16 21 23 25 27 28 28 26 21 19 18 15 11 11 12 12 13 13 14 15 17 22 31 35 36 38 35 35 29 26 25 30 35 27 8 10 20 19 23 28
6 6 7 13 17 21 25 26 28 30 29 29 27 25 23 19 18 19 20 21 20 20 22 22 20 20 21 29 35 33 29 30 29 27 26 25 26 31 13 12 13 26 32
6 5 8 13 17 18 21 23 26 27 26 26 26 26 24 22 23 23 23 23 24 23 25 26 26 25 23 22 24 28 30 31 31 29 29 27 13 10 10 11 13 16 30
7 5 6 8 11 14 16 18 21 23 23 23 24 23 22 22 21 21 22 23 25 26 27 27 28 28 28 27 26 25 25 28 30 32 31 30 30 31 30 22 13 12 23
6 7 6 7 8 11 12 15 19 20 21 21 20 19 19 20 20 21 22 23 25 25 27 28 28 29 29 30 30 30 28 26 26 28 29 30 30 32 29 26 15 14 14
7 7 7 8 8 9 11 14 16 18 20 21 20 21 21 22 22 22 24 26 27 28 30 30 31 31 32 31 30 28 29 29 28 29 28 27 27 27 27 29 28 14 14
6 6 5 7 6 9 15 16 17 19 18 18 19 19 19 20 21 23 25 27 28 28 29 29 29 30 31 31 31 28 28 29 28 25 28 27 25 26 25 26 26 27 17
7 6 5 6 11 15 16 16 16 17 18 17 17 18 17 19 21 25 27 27 27 27 27 27 27 27 29 30 30 29 27 26 26 29 26 28 27 26 26 26 25 25 24
7 6 5 9 17 15 15 14 14 16 15 14 16 17 18 21 25 28 29 29 29 29 28 26 26 28 28 29 30 31 26 30 27 28 26 25 26 27 28 26 27 27 28
6 5 7 10 14 13 12 12 13 14 14 15 18 17 20 23 25 27 28 29 29 30 28 28 29 29 27 30 31 25 31 30 28 28 24 24 27 29 28 26 27 29 30
7 6 6 8 12 11 10 11 13 14 14 16 16 17 20 23 25 27 29 30 30 29 30 31 32 29 31 30 26 33 31 29 26 22 26 26 25 26 29 29 26 28 28
7 6 6 5 8 9 9 11 12 14 14 14 13 17 21 24 26 29 30 30 29 29 29 32 33 29 33 27 35 37 35 26 27 26 26 26 27 31 27 26 33 31 27
7 8 6 7 7 7 6 8 10 11 12 11 15 19 24 27 29 30 31 31 32 32 32 31 31 33 32 31 37 37 27 27 27 29 31 30 31 28 29 34 31 31 31
7 7 6 6 5 4 6 8 9 10 12 14 18 23 26 27 28 28 28 28 28 30 30 29 30 32 31 33 34 28 32 31 32 31 33 35 31 28 36 36 36 33 32
7 5 5 4 4 4 5 7 8 12 14 17 22 26 27 27 27 27 27 29 28 28 29 30 30 31 32 31 30 31 34 33 31 29 33 34 32 33 37 39 38 40 37
7 7 4 2 3 5 6 8 11 16 18 21 23 24 25 27 27 27 29 30 29 29 28 28 31 31 32 28 33 36 33 30 30 31 32 31 35 37 38 40 37 40 45
9 6 3 2 7 10 9 12 15 17 18 20 22 23 24 26 28 28 29 28 28 28 29 31 29 30 32 31 33 34 31 29 29 29 27 31 37 40 41 40 37 34 38
8 5 6 8 9 9 11 13 14 16 17 19 21 23 25 27 24 26 29 29 29 28 28 29 30 29 27 32 32 33 32 29 30 30 30 34 39 42 45 42 36 32 42
7 5 6 7 7 8 10 12 14 17 18 20 22 24 27 26 25 27 30 27 27 25 27 27 26 25 27 30 31 32 32 35 33 30 32 35 42 45 40 36 34 39 40
6 6 5 4 6 9 10 13 17 18 20 22 24 26 28 26 24 26 26 24 23 23 23 23 25 27 29 30 30 32 35 34 35 33 37 41 40 37 32 34 37 36 29
6 3 3 5 7 9 12 14 18 19 21 23 25 27 23 22 23 23 22 23 22 22 23 24 24 27 28 26 28 30 31 32 31 33 36 34 33 31 34 32 31 30 29
4 4 3 5 8 12 15 17 19 20 22 24 25 22 21 22 23 24 24 25 24 22 27 27 27 27 26 28 36 37 35 34 34 41 28 28 29 28 30 29 30 32 30
3 5 6 8 12 14 18 20 20 20 22 23 20 21 22 22 23 25 29 26 24 27 27 28 28 29 30 33 36 36 35 32 37 31 24 24 26 26 28 29 30 32 30

GFSMW_925_spd_015.txt.gz
Wind_Speed
4 12 17 20 21 21 17 17 15 12 9 19 22 23 28 29 29 29 28 29 29 30 30 32 35 37 38 41 37 35 33 31 32 23 24 28 35 39 39 39 40 41 44
6 9 18 22 23 23 22 23 22 22 12 4 11 8 4 6 10 11 13 14 17 18 21 24 27 30 32 34 34 32 26 25 25 15 13 5 12 24 31 34 37 39 39
6 6 9 19 24 26 26 27 28 26 24 15 5 4 5 11 15 17 16 16 15 15 15 15 16 18 20 27 29 29 28 25 26 27 13 4 6 2 20 26 30 33 34
5 4 7 14 21 22 26 29 31 31 30 27 28 27 24 20 18 18 18 18 18 18 19 19 20 19 20 20 23 25 27 27 22 21 25 33 28 8 10 20 24 30 35
7 6 6 13 17 21 24 26 28 29 27 27 26 25 23 19 19 19 19 20 19 20 23 25 25 25 25 24 23 24 23 22 23 23 24 24 25 27 10 15 9 26 31
7 5 9 13 15 17 21 23 26 26 25 25 25 24 23 21 22 22 23 23 23 23 24 25 25 26 27 27 26 25 25 24 23 24 25 25 14 11 9 10 12 14 27
7 6 6 8 13 16 18 20 22 23 21 22 22 21 20 19 19 19 20 22 24 25 26 27 26 26 26 27 27 27 26 26 24 25 23 22 22 24 23 17 13 12 22
6 6 6 8 11 13 15 18 19 20 19 19 19 18 17 17 18 18 20 21 22 23 25 27 27 28 29 30 30 30 29 27 29 27 28 26 23 22 22 21 13 14 13
7 7 7 9 11 13 15 15 17 17 17 16 15 15 16 16 17 18 19 21 23 23 25 25 26 28 29 29 29 27 28 29 28 26 26 27 25 25 24 24 23 11 14
7 6 6 9 11 16 16 15 15 15 14 13 13 14 15 16 18 20 22 23 24 25 26 26 27 27 28 27 28 28 29 27 24 26 28 28 24 24 23 23 24 24 16
7 7 6 10 15 15 14 13 12 12 11 11 12 13 15 18 20 22 23 24 25 26 27 27 26 28 28 27 30 30 26 25 29 29 27 28 25 22 24 25 24 24 22
7 6 8 14 15 14 12 11 10 11 11 12 11 13 15 19 22 24 25 26 27 27 27 27 28 28 28 26 30 31 24 29 28 30 29 25 25 27 26 24 28 26 26
7 6 7 9 13 12 10 9 10 10 10 10 11 15 19 21 22 24 26 27 27 28 29 29 28 28 28 28 31 23 30 29 30 26 26 29 27 27 26 27 28 26 23
7 6 7 8 11 10 8 8 8 8 10 11 14 18 20 21 22 24 25 27 27 28 29 29 28 27 27 29 26 30 31 31 25 26 26 27 26 28 31 29 27 24 28
7 7 6 5 9 8 6 7 9 12 11 12 14 16 18 20 22 24 25 27 28 30 31 33 34 31 31 26 32 32 31 25 29 29 30 29 29 30 31 31 28 31 28
6 7 6 7 6 5 7 8 9 10 9 12 15 18 20 22 24 26 28 29 31 31 33 32 31 30 28 30 31 31 30 30 31 32 31 30 32 30 33 30 34 35 31
7 7 7 7 6 6 5 8 8 10 10 12 15 18 21 24 26 27 28 29 30 30 30 29 28 29 31 30 32 31 32 31 31 30 32 34 31 33 32 37 39 36 33
7 7 8 8 6 5 6 6 8 10 10 13 17 20 23 24 26 27 28 29 28 27 28 28 28 31 31 31 32 32 33 31 30 30 33 33 32 32 38 40 38 36 37
8 10 9 8 6 5 4 4 6 9 11 15 18 20 22 24 27 27 29 30 29 27 27 26 29 29 32 31 31 34 32 30 31 31 29 31 34 34 40 40 36 38 40
12 11 9 7 4 3 2 3 6 9 14 16 18 19 21 24 26 25 27 28 26 26 27 28 26 28 30 29 32 33 30 30 29 28 27 32 36 41 41 42 38 31 30
9 8 6 6 6 3 2 4 8 13 15 17 19 20 22 24 23 24 26 29 28 26 25 27 28 27 26 30 32 32 33 29 29 27 32 33 38 42 45 42 34 32 39
7 6 6 5 4 2 5 9 12 15 16 18 20 21 23 22 23 24 28 26 25 24 26 26 28 26 27 29 32 33 34 35 32 32 32 33 42 45 42 39 37 38 38
7 4 3 3 2 6 10 12 13 16 18 19 21 24 24 23 21 26 28 25 22 22 22 23 25 27 29 29 30 33 33 35 36 34 32 39 41 39 36 36 37 34 31
5 2 1 4 7 8 10 11 14 16 18 21 24 26 24 24 26 26 22 21 21 21 22 23 25 26 27 26 29 29 31 32 34 27 31 36 36 31 34 32 31 31 30
3 2 3 4 6 10 12 14 16 18 20 22 25 25 25 24 26 22 23 23 23 22 26 26 27 26 25 28 36 37 36 35 34 37 29 30 28 29 30 30 31 31 31
2 1 2 6 9 12 15 16 17 18 20 23 21 23 21 23 23 24 27 23 22 26 27 27 27 29 30 34 35 36 36 36 36 29 25 25 26 26 28 29 30 30 32

GFSMW_925_spd_018.txt.gz
Wind_Speed
4 12 16 17 19 21 18 19 19 15 6 1 6 8 12 15 14 11 10 10 11 12 12 14 16 17 20 23 25 25 26 26 24 21 21 26 27 32 35 36 38 39 40
5 9 17 22 22 20 22 24 25 23 18 11 7 6 11 18 18 18 19 17 16 16 15 15 16 16 17 19 20 22 22 20 21 12 17 5 11 23 29 33 37 39 39
6 5 10 17 22 25 26 29 28 28 25 18 15 18 19 21 22 23 21 20 18 19 18 18 18 18 18 19 20 19 19 19 21 20 12 5 8 10 22 26 30 35 37
3 3 7 14 19 21 24 27 28 29 27 26 27 28 26 22 18 18 18 18 19 20 21 21 22 21 22 23 23 23 21 20 18 20 18 24 24 11 13 20 25 30 37
7 6 6 14 16 19 23 25 27 28 27 27 26 25 23 19 17 18 19 20 20 21 23 24 24 25 25 25 25 25 26 23 20 17 20 21 21 21 9 14 9 23 23
6 5 9 13 16 18 20 23 25 24 23 24 23 23 21 20 21 22 23 23 23 24 25 25 25 25 26 27 27 27 27 27 26 25 22 18 11 12 10 12 13 14 23
7 7 7 10 13 16 18 20 22 22 21 22 22 21 20 20 21 21 22 25 26 27 27 26 27 27 27 27 27 27 27 27 26 26 24 21 19 20 20 16 12 12 25
7 7 7 11 13 15 17 18 19 19 18 19 19 18 18 18 18 18 19 19 20 21 23 24 25 25 26 26 25 27 28 25 28 24 27 26 24 23 20 17 10 13 12
8 8 8 11 13 15 15 15 17 17 17 16 16 17 16 17 17 16 17 18 19 21 22 23 24 25 26 26 24 27 28 27 24 27 26 26 26 25 24 21 19 8 12
7 7 7 11 14 15 14 14 15 17 15 14 14 14 14 15 16 18 20 20 20 21 23 24 26 27 28 29 26 30 30 24 24 26 27 27 26 26 21 24 23 20 14
7 7 7 12 16 14 13 14 15 15 14 12 12 13 15 16 16 18 19 20 21 22 23 24 27 28 29 30 28 30 25 27 28 26 27 25 25 26 25 26 23 23 21
7 6 9 15 15 14 13 14 14 14 13 11 12 14 14 16 18 19 20 21 22 23 26 27 28 30 29 28 29 26 24 26 26 27 24 25 26 28 27 25 28 28 25
7 6 7 10 13 13 13 13 13 13 11 10 11 14 17 18 20 20 21 23 24 26 28 29 29 29 28 29 28 24 27 27 27 24 25 27 29 29 27 28 29 28 28
7 6 7 8 13 12 12 12 12 10 9 10 13 15 16 17 19 20 22 24 25 26 28 29 30 30 30 29 25 29 29 29 25 25 27 28 27 28 31 30 27 29 26
7 7 7 6 11 12 11 10 9 9 8 10 11 13 15 17 19 22 24 24 26 27 29 31 32 30 28 23 30 31 30 30 28 29 28 28 30 31 30 32 32 31 30
7 8 7 9 10 10 9 7 7 6 7 9 12 14 17 20 21 23 24 27 29 30 32 32 32 32 28 29 29 30 31 29 30 30 32 32 32 31 35 35 38 37 34
7 8 7 9 11 9 7 5 4 3 4 7 12 16 19 20 22 25 26 28 29 31 33 33 33 32 30 28 30 30 30 30 30 31 32 33 31 33 32 37 38 37 37
7 7 9 12 10 7 5 4 4 4 8 12 14 16 18 21 24 25 26 28 30 31 32 31 29 30 29 28 30 30 30 30 30 30 31 30 31 31 37 39 37 35 34
7 11 12 10 9 6 4 3 3 6 9 12 13 16 18 21 24 26 27 29 31 31 30 26 28 28 30 29 28 32 31 29 30 30 30 29 34 35 40 37 37 37 35
13 14 11 10 7 5 2 2 5 8 9 12 15 16 18 22 25 24 25 28 29 28 28 30 25 25 29 28 30 32 30 29 30 31 26 33 35 39 38 43 37 29 36
13 12 9 8 5 4 3 5 6 7 11 13 16 18 20 23 22 24 25 29 30 27 27 27 28 26 25 27 31 32 32 29 30 27 33 35 38 34 45 44 33 33 41
10 9 8 7 4 3 1 4 6 10 13 15 18 21 23 23 24 23 27 29 27 25 25 27 27 24 25 26 30 32 32 34 32 33 35 37 33 41 43 36 36 39 36
9 7 7 6 4 1 4 7 9 13 16 19 22 24 24 23 21 24 28 26 22 22 25 23 24 26 27 26 28 32 32 34 36 34 37 32 37 39 34 34 38 35 30
8 6 6 4 1 2 5 8 12 15 18 20 23 25 24 24 25 25 25 22 24 22 22 23 24 27 27 26 29 29 31 32 32 32 29 32 35 33 33 33 33 31 31
8 6 4 1 3 7 9 11 13 15 17 20 23 24 25 25 26 23 23 24 23 22 26 25 26 26 26 28 35 36 36 36 35 40 30 28 28 29 30 31 32 33 33
7 5 2 3 7 10 12 13 14 15 17 21 21 22 20 24 24 24 25 20 21 24 26 27 27 28 29 33 35 36 36 35 38 30 24 23 26 27 29 30 32 33 33

GFSMW_925_spd_021.txt.gz
Wind_Speed
3 7 10 13 16 17 19 20 21 19 13 12 11 12 13 16 20 20 18 18 16 16 15 13 13 14 13 13 14 14 16 18 17 17 18 21 24 26 23 25 25 25 30
5 8 12 16 19 20 23 26 26 23 21 19 18 20 20 23 24 22 22 20 18 17 17 17 17 17 17 17 17 16 16 15 17 13 20 6 15 22 17 23 25 30 30
9 6 10 13 20 21 24 27 29 27 24 26 27 27 25 22 20 21 20 20 18 19 18 18 18 18 17 16 17 15 14 13 15 14 10 7 8 12 23 25 27 27 25
8 7 9 13 15 18 23 27 30 31 29 27 27 27 21 16 15 17 17 18 18 19 20 19 19 19 17 17 16 16 15 15 16 18 11 19 20 8 12 15 23 27 24
10 9 9 11 13 18 22 26 28 29 27 26 24 24 23 19 17 16 16 18 18 19 21 21 21 20 18 18 19 20 20 16 16 15 18 19 19 18 10 16 11 27 25
9 9 10 12 13 16 20 24 26 25 24 24 23 22 20 17 16 17 17 17 16 18 22 22 21 20 19 19 18 17 17 18 17 17 16 16 13 13 11 13 16 18 26
10 10 9 9 12 15 17 20 22 22 21 22 21 20 19 18 18 17 17 18 18 19 23 23 22 21 21 19 19 18 20 20 20 18 17 20 19 21 21 19 13 14 26
9 9 9 11 12 13 16 18 19 19 19 19 19 18 17 17 17 17 17 16 16 15 19 20 20 21 22 21 20 17 20 19 17 15 21 21 21 20 21 21 15 12 13
11 10 10 11 13 13 14 16 17 17 17 18 17 17 17 17 16 16 16 16 16 15 19 20 21 22 22 21 21 18 19 17 15 20 19 21 20 20 23 18 22 11 13
9 9 10 11 12 13 15 15 15 16 16 16 15 15 15 15 14 15 16 17 18 19 20 20 20 21 20 19 19 19 18 19 21 22 23 20 20 24 22 23 25 23 17
10 9 10 12 15 15 15 14 13 14 15 14 13 13 12 12 13 15 16 16 17 18 19 19 19 19 20 21 21 21 20 22 23 22 24 20 24 26 26 26 24 23 21
8 9 13 15 14 14 14 13 12 13 12 11 11 11 11 13 15 15 15 16 17 18 18 19 20 20 21 21 21 21 22 23 24 26 23 24 26 28 27 24 26 25 26
9 9 12 13 13 13 13 13 12 12 10 9 10 11 13 14 14 15 16 16 18 20 22 22 21 20 21 22 21 22 24 24 25 25 25 28 28 29 26 27 27 24 26
10 9 10 13 13 12 12 12 11 8 7 7 9 10 11 12 14 15 17 19 21 21 22 22 20 21 22 21 21 25 26 26 26 26 27 29 28 28 30 30 28 28 28
9 10 11 11 13 12 12 10 8 6 5 8 9 9 10 12 14 17 18 20 21 22 22 22 22 22 21 20 27 27 28 29 30 30 30 29 29 31 30 31 32 32 30
9 11 11 13 12 12 11 8 6 5 6 7 7 9 11 14 16 19 20 22 23 23 25 24 22 21 22 25 26 28 29 29 29 30 32 31 32 31 34 34 37 36 34
9 11 11 12 13 12 9 7 4 4 5 5 6 9 13 15 18 21 22 22 23 25 24 22 23 23 24 26 28 29 28 28 29 30 30 33 30 33 31 36 37 37 31
8 9 12 14 13 11 9 6 4 4 5 7 10 11 14 17 20 22 22 23 23 21 22 23 24 26 25 26 28 28 29 29 29 30 31 32 32 32 37 37 34 33 37
8 12 17 16 13 10 8 5 3 4 7 9 10 13 15 18 21 21 24 23 20 23 24 23 24 25 26 26 26 29 30 29 30 30 31 28 35 36 40 38 33 39 39
15 17 16 15 11 8 5 4 3 4 6 10 12 14 16 18 21 21 22 24 25 24 25 25 22 23 25 24 27 31 29 29 29 30 28 32 35 39 33 40 36 32 35
17 17 14 11 8 6 4 3 2 5 8 11 13 15 17 20 20 23 24 27 27 24 25 25 23 21 21 25 30 31 31 28 31 28 31 32 39 33 42 42 33 32 41
13 12 13 10 6 4 1 2 4 7 10 11 14 17 20 21 23 24 26 27 24 23 24 25 24 22 24 26 29 31 31 33 31 32 33 36 38 44 41 38 36 38 37
12 11 11 9 6 3 1 4 5 8 10 13 16 19 22 24 24 25 25 22 20 21 23 22 23 25 27 26 27 31 31 33 34 34 35 39 42 38 34 36 37 35 30
12 11 10 8 5 1 3 4 6 9 12 15 19 23 24 23 24 25 21 19 21 21 22 22 23 25 26 25 27 28 30 31 31 28 34 38 35 30 35 33 32 30 29
11 10 8 6 4 2 3 4 7 10 14 18 21 23 23 24 25 22 20 19 19 19 25 25 25 24 24 27 34 36 36 34 32 40 31 29 28 28 31 31 30 31 31
11 9 6 5 3 2 4 5 8 12 15 18 18 21 18 21 20 20 23 18 19 22 24 25 25 26 28 32 34 36 35 34 37 30 25 25 25 27 29 30 32 32 33

GFSMW_925_spd_024.txt.gz
Wind_Speed
5 6 7 8 10 12 12 13 14 11 11 12 13 13 15 14 16 16 15 15 14 14 12 10 11 12 12 13 14 14 16 17 18 22 23 22 27 18 23 22 18 26 30
8 8 10 12 13 14 15 16 18 17 14 14 14 16 17 17 16 15 16 16 15 15 13 13 12 13 12 12 14 15 16 17 17 18 22 9 19 16 24 33 29 28 30
12 11 12 13 14 16 16 18 19 19 18 17 17 18 16 15 14 13 13 14 14 14 14 13 12 12 12 13 14 14 14 17 18 16 12 8 8 13 24 27 28 23 26
13 12 12 13 14 15 16 18 19 19 17 16 17 16 14 14 12 12 11 11 13 13 13 12 12 12 11 13 14 14 14 15 17 18 16 19 22 13 13 16 28 28 25
14 13 12 13 13 13 15 16 18 19 18 16 15 16 16 13 11 9 9 9 9 11 13 13 13 13 13 13 14 15 15 15 16 16 18 20 20 22 13 16 10 29 28
14 13 14 14 13 13 14 15 17 18 17 17 17 17 15 12 10 10 9 9 10 10 13 13 13 13 13 14 15 15 14 16 16 16 17 17 16 15 14 14 17 19 28
14 13 13 14 13 13 13 14 15 16 14 16 15 15 13 10 10 9 10 10 11 11 14 14 14 14 15 15 16 16 15 16 17 17 17 19 20 22 23 22 14 15 28
14 14 13 15 14 13 13 13 14 14 13 13 13 12 10 9 8 9 9 9 10 10 13 14 14 14 14 15 16 16 16 16 18 17 19 20 21 22 22 23 16 15 16
15 15 15 14 14 13 12 12 13 13 11 11 10 10 9 9 9 9 8 8 9 11 12 13 14 15 16 16 17 17 18 18 18 20 20 22 23 22 22 25 25 16 16
15 14 13 15 13 13 13 12 11 11 10 9 9 9 9 9 9 9 9 9 9 10 12 14 15 16 17 18 18 18 19 19 21 21 23 23 25 24 25 26 27 27 21
15 14 13 15 14 13 12 11 11 10 9 9 7 7 7 8 7 7 8 9 10 11 13 14 16 17 18 19 19 20 19 21 23 23 24 26 26 26 27 27 28 27 27
15 13 15 16 15 14 12 11 10 9 8 7 6 6 6 6 6 7 8 10 11 12 13 15 16 17 18 19 20 20 22 24 25 26 26 27 26 28 29 28 28 28 31
14 13 13 15 15 14 12 11 10 8 7 5 5 5 5 5 6 8 10 10 11 13 14 14 16 18 19 20 20 21 25 25 26 27 27 28 28 29 28 29 30 29 30
14 14 13 14 15 14 12 11 9 7 5 4 4 3 4 5 7 8 9 10 11 13 14 16 17 19 20 21 20 25 26 27 27 28 27 29 28 29 31 32 32 31 30
14 14 13 12 16 14 12 10 8 6 4 3 3 4 5 6 8 9 11 11 13 14 15 17 18 19 20 20 24 25 28 28 29 28 29 28 28 30 31 31 32 32 33
13 13 13 15 15 15 13 10 7 5 3 2 2 4 6 8 9 10 12 14 14 15 16 18 19 21 21 22 24 26 28 28 29 30 30 30 30 29 33 34 37 36 35
13 13 13 14 15 14 12 9 7 5 3 2 2 5 8 9 11 12 13 14 16 17 19 20 21 23 24 23 25 26 27 28 28 29 31 32 30 32 33 37 38 37 39
11 12 14 15 15 13 10 9 6 4 3 1 3 6 8 10 12 14 15 16 17 19 20 21 22 24 24 23 24 26 28 29 28 29 29 32 34 33 36 38 37 35 35
9 13 16 16 14 12 9 7 4 3 2 3 5 6 8 11 14 15 17 18 19 21 22 22 23 24 25 23 23 26 29 29 30 30 30 32 35 36 39 41 34 40 37
14 16 16 15 13 10 8 6 3 1 3 4 6 8 10 12 15 16 18 19 20 22 22 23 22 22 24 22 23 27 28 30 30 32 32 33 35 39 40 41 38 34 35
16 16 15 13 11 9 7 5 2 3 3 5 7 9 11 14 15 17 18 19 21 22 23 23 22 20 20 23 26 27 29 29 31 31 32 32 37 39 45 43 35 33 42
15 14 14 12 9 7 6 4 1 2 4 5 8 11 13 14 15 16 18 20 20 22 24 23 22 20 22 24 26 28 30 32 32 33 34 36 38 45 42 38 34 39 38
14 12 12 11 8 6 3 2 0 3 6 8 11 13 14 15 15 17 19 19 20 21 22 22 23 25 26 26 27 30 32 35 35 34 38 38 41 38 34 32 36 34 29
11 10 10 8 7 4 2 1 2 4 7 10 13 14 15 16 16 17 17 18 19 20 21 23 25 26 27 27 29 31 32 33 32 34 30 37 34 31 32 32 31 29 30
10 9 8 7 6 5 3 0 3 6 8 11 13 14 15 16 18 18 18 18 18 18 23 25 26 26 26 29 34 36 37 35 35 38 32 28 28 29 29 29 30 31 31
10 9 8 8 7 4 1 2 5 6 9 12 12 14 15 17 19 20 21 17 17 20 22 24 24 27 29 32 35 37 36 36 35 31 25 25 26 26 28 29 31 32 32

GFSMW_925_spd_027.txt.gz
Wind_Speed
5 6 7 8 9 10 12 12 13 13 13 14 15 14 14 14 15 14 14 14 13 13 12 10 10 11 11 12 13 15 17 18 18 19 20 20 28 20 18 22 29 29 27
9 9 11 12 13 14 15 16 16 16 15 15 16 17 16 16 15 14 14 14 13 13 12 12 12 13 13 14 15 16 16 15 18 18 19 6 14 12 31 36 24 29 27
11 11 13 15 14 15 15 17 18 19 19 19 19 19 18 15 13 11 12 12 13 13 14 14 13 13 13 14 15 15 16 16 17 17 11 6 6 12 19 22 23 24 32
13 12 13 16 16 15 16 17 18 18 16 14 15 15 15 14 11 11 10 9 12 13 14 13 13 12 12 12 13 14 15 15 15 17 16 18 20 11 11 12 25 25 24
15 14 13 16 16 15 16 17 17 18 16 16 16 16 15 13 10 9 7 8 8 10 13 12 12 12 11 12 13 14 15 14 16 16 18 19 19 21 11 13 9 25 23
15 14 15 16 16 15 15 16 17 17 17 17 16 15 14 11 9 8 7 7 7 8 11 12 11 11 12 13 14 15 15 15 16 17 19 18 15 14 13 13 15 17 24
16 14 14 14 15 15 14 15 15 16 15 15 15 14 13 11 10 8 8 9 9 9 11 12 12 12 13 14 16 17 17 17 17 19 20 20 20 22 22 22 14 14 26
15 14 14 15 16 15 14 14 14 15 13 13 13 12 11 9 9 9 9 9 9 9 10 11 12 13 14 15 16 17 17 19 20 21 21 23 22 23 23 24 16 16 14
16 16 14 16 15 15 14 14 14 13 12 12 11 11 10 9 8 8 8 8 8 9 10 11 13 14 14 16 17 18 19 20 21 21 23 23 24 24 25 25 23 16 17
17 15 13 16 15 14 14 13 12 12 11 10 9 9 8 8 7 7 8 8 9 10 11 12 13 14 15 17 18 19 21 22 22 24 24 26 25 27 26 26 24 24 20
17 15 13 16 16 14 13 13 12 11 10 8 8 7 7 7 6 7 8 8 9 10 11 12 14 16 17 19 20 21 22 22 25 25 25 27 28 27 26 27 27 27 25
16 15 14 17 16 15 14 12 11 10 8 7 6 6 6 6 7 7 8 8 9 10 11 14 15 17 18 19 20 23 22 25 26 27 27 27 27 28 26 26 27 27 29
16 15 14 13 16 15 13 12 11 10 8 6 5 5 6 6 6 7 8 9 10 12 13 14 16 18 20 21 21 23 24 27 27 28 27 28 27 27 27 27 27 30 30
16 15 13 12 15 14 13 12 11 9 7 6 5 4 5 6 6 7 9 10 12 13 15 16 18 20 21 22 22 22 26 27 28 28 28 28 27 27 28 30 30 27 30
16 15 14 13 16 15 13 12 11 9 6 5 4 4 4 5 6 7 10 11 12 14 16 18 20 21 22 22 23 25 27 28 29 29 28 27 28 30 31 30 28 32 30
15 14 13 12 15 15 14 13 11 8 6 4 3 2 4 5 6 9 11 13 15 17 18 20 22 23 23 24 25 25 27 28 29 28 29 28 30 28 31 33 37 37 36
14 13 13 12 15 15 14 13 10 8 5 3 2 2 4 6 8 11 13 15 17 19 21 22 23 24 25 25 26 26 26 28 27 29 29 30 28 30 33 35 36 35 38
12 12 11 14 15 15 13 12 9 7 5 2 2 3 5 7 10 12 14 17 19 20 22 23 24 25 25 25 26 25 27 27 28 29 30 30 32 33 36 36 35 34 34
11 13 15 16 16 15 13 11 9 6 3 1 2 4 6 9 11 14 16 18 20 21 23 24 25 25 25 25 24 25 27 27 29 28 28 33 34 35 38 38 34 36 36
15 17 18 18 16 14 12 9 7 4 2 1 3 5 7 10 13 16 18 19 20 22 24 25 25 25 25 23 24 26 26 28 29 30 30 31 34 38 39 40 37 32 35
18 18 17 16 14 12 10 8 5 3 1 2 4 7 9 12 14 16 18 20 22 23 23 24 24 24 22 24 26 27 27 27 30 30 32 31 37 39 42 42 33 34 40
17 16 16 15 12 9 8 7 4 2 0 3 6 9 11 13 15 17 19 21 22 22 23 23 22 21 23 24 27 28 30 34 31 32 33 36 37 41 40 35 36 38 37
15 14 15 14 10 8 6 5 4 1 2 5 8 10 12 14 15 18 20 21 20 21 21 21 21 22 23 25 26 30 34 35 37 33 39 36 41 36 31 34 35 34 30
13 13 14 12 10 8 6 5 2 1 4 7 9 12 14 16 17 17 18 19 19 19 20 21 22 24 25 24 27 32 32 33 34 34 30 36 33 31 33 31 30 29 29
13 13 12 11 10 8 5 3 1 2 5 8 11 13 14 16 18 18 19 19 19 19 21 23 24 25 26 28 36 37 37 37 36 39 29 27 26 28 29 29 29 30 29
13 11 10 10 8 6 5 4 2 3 6 9 11 13 16 17 18 19 21 18 20 21 22 24 24 26 28 33 36 37 37 36 36 28 25 25 25 26 28 28 29 30 31

GFSMW_925_spd_030.txt.gz
Wind_Speed
10 11 8 9 10 10 13 13 15 16 17 19 22 23 24 22 21 18 16 15 16 14 13 12 11 12 13 13 14 16 18 20 22 19 22 25 14 20 18 31 30 29 32
9 9 9 13 13 15 16 16 18 19 20 23 25 25 24 20 20 18 16 15 15 14 14 13 13 13 12 13 15 16 17 15 19 15 16 4 13 8 34 26 22 30 22
13 9 9 14 15 18 19 21 21 23 24 27 26 25 23 20 17 15 15 13 14 14 14 14 13 13 12 13 14 16 17 17 19 18 8 4 3 14 8 25 21 26 35
13 9 9 13 15 18 19 21 22 22 21 22 23 20 20 19 16 14 12 11 12 14 14 13 12 11 11 12 14 14 15 15 16 20 10 18 20 5 8 4 30 24 28
14 12 9 17 16 18 19 22 23 23 22 23 22 22 20 17 15 12 12 10 10 10 13 11 11 11 12 13 13 14 15 14 14 14 18 22 21 20 6 13 10 26 24
14 12 19 20 18 19 20 22 24 23 23 23 21 20 19 16 14 13 11 10 9 9 13 12 11 10 12 13 13 14 18 15 18 17 19 19 13 14 11 12 15 18 25
13 12 10 13 18 18 20 21 23 23 22 22 21 19 17 15 14 12 11 8 9 11 13 12 12 12 13 13 15 17 18 19 20 20 24 23 25 24 22 21 14 13 28
12 11 9 15 20 19 18 20 21 22 20 20 19 16 15 14 12 11 9 9 9 10 10 12 12 13 15 16 17 20 21 21 22 24 24 25 28 25 25 23 17 16 15
14 12 11 18 20 19 20 21 21 20 19 19 17 16 14 12 11 9 8 8 8 9 11 12 14 15 16 18 19 20 21 21 24 24 24 27 27 28 27 26 24 17 16
14 11 10 18 21 21 21 20 19 19 18 16 15 14 12 11 9 8 8 8 8 10 11 13 15 16 17 19 20 22 23 25 24 24 28 30 27 27 28 27 24 23 20
14 13 10 20 23 22 20 21 19 18 17 15 13 12 11 9 7 7 7 8 8 10 11 13 16 17 19 21 23 24 23 26 25 27 28 29 30 28 26 27 25 25 24
12 12 12 19 22 21 21 20 18 17 15 14 12 12 9 7 7 7 7 7 9 10 12 14 17 19 21 23 24 25 27 23 26 27 29 30 29 30 28 26 27 24 26
13 11 12 12 18 21 20 20 18 16 14 13 12 9 8 6 5 5 7 8 10 12 14 16 19 22 23 24 25 28 22 28 27 28 29 31 31 31 27 28 27 30 29
14 11 11 9 18 21 21 20 19 16 14 13 10 8 5 4 4 5 8 10 12 14 16 19 20 23 24 25 26 23 29 27 26 28 30 31 31 29 30 31 30 26 27
12 11 11 9 17 21 20 20 19 15 13 11 8 6 4 3 4 6 9 11 14 16 18 20 23 24 25 22 25 29 27 28 26 30 31 29 31 33 35 32 30 33 33
12 12 11 10 15 21 21 22 19 15 12 10 8 4 3 4 5 8 11 13 15 18 20 22 23 24 24 24 27 27 28 26 27 30 29 30 32 30 33 35 40 37 35
11 13 10 11 18 23 24 22 18 14 12 9 6 3 3 4 7 9 12 15 18 20 21 22 23 25 27 26 27 27 27 26 27 28 31 32 29 32 35 37 36 32 34
10 9 9 17 24 24 22 21 18 13 10 8 4 2 2 5 8 11 14 18 19 21 23 24 25 27 28 26 27 27 26 28 27 28 30 31 33 35 38 39 33 33 31
9 13 23 25 27 25 24 21 15 12 9 7 4 0 3 7 10 14 17 19 20 23 25 25 27 28 29 26 27 27 27 27 28 28 27 31 36 35 41 39 35 34 32
19 21 25 27 25 23 20 18 14 11 9 5 2 2 5 8 12 15 18 19 21 24 26 27 27 27 27 28 26 27 28 27 28 29 28 30 34 40 41 39 36 28 33
21 25 23 21 23 20 19 16 12 11 6 3 0 3 6 10 12 16 18 20 22 25 26 27 27 27 26 26 27 29 29 28 30 28 31 31 37 39 40 40 30 35 40
19 20 21 21 20 17 17 14 12 7 4 1 2 5 9 12 14 15 20 20 22 24 25 25 25 23 25 25 29 29 31 33 31 31 33 36 39 41 37 34 36 36 36
16 20 20 21 16 14 12 14 10 6 3 1 4 9 11 13 14 18 20 21 22 21 21 20 21 24 24 26 26 30 32 34 34 34 37 36 37 34 32 33 34 33 30
15 20 20 17 15 12 11 11 8 5 2 5 8 10 12 14 18 19 19 21 22 24 19 20 21 22 25 26 28 30 31 31 32 33 28 30 32 30 30 31 30 29 28
17 19 17 16 14 12 10 9 6 3 4 5 8 10 13 17 19 20 20 21 22 21 24 23 24 23 24 27 34 36 36 36 36 38 26 28 27 27 28 28 29 30 29
18 17 16 17 15 13 10 7 4 3 3 5 9 13 15 18 19 21 25 20 19 22 23 24 25 26 27 31 34 35 37 36 34 28 25 25 25 25 27 28 30 29 30

GFSMW_925_spd_033.txt.gz
Wind_Speed
7 16 14 11 8 8 10 11 15 21 31 30 31 28 28 25 21 18 14 14 14 12 10 10 10 9 11 12 13 15 17 17 23 12 21 12 7 17 20 35 18 28 23
8 9 16 15 13 12 13 14 18 23 27 28 28 27 27 23 21 18 17 14 13 13 12 11 11 10 10 11 13 15 14 9 18 12 8 4 8 7 38 14 29 18 26
13 8 10 19 18 21 22 23 23 26 29 29 28 29 27 24 21 17 17 14 13 13 12 12 11 11 11 13 13 14 15 14 15 20 5 4 3 13 8 29 14 25 27
10 9 11 19 22 20 22 24 27 30 30 28 30 30 26 23 17 16 14 12 12 12 11 11 11 11 12 12 13 13 15 15 16 17 8 12 13 3 6 5 31 17 28
16 14 13 22 23 23 23 23 24 26 27 27 28 27 25 22 19 16 14 11 9 11 10 10 10 11 12 12 13 14 17 14 13 15 17 22 20 15 5 10 8 26 25
14 13 19 27 26 27 29 30 30 29 28 28 26 26 25 22 19 16 14 9 7 9 10 10 10 10 11 13 14 14 16 15 16 15 16 18 11 13 12 12 13 16 23
16 16 15 16 23 28 29 31 31 30 29 28 26 23 21 18 16 12 9 6 7 9 10 11 11 11 12 12 14 16 17 19 18 20 22 22 21 24 22 19 16 12 25
16 15 14 18 22 27 27 30 30 29 26 25 23 20 18 17 14 11 8 7 7 7 9 10 10 11 12 14 16 18 20 19 21 22 21 22 27 27 25 22 18 15 15
16 16 14 19 23 26 29 30 29 27 24 23 21 19 17 14 12 10 8 7 6 7 8 10 12 13 15 16 18 20 21 22 22 24 19 26 26 26 27 27 24 15 15
15 14 14 19 23 29 30 28 27 27 24 22 20 18 16 13 10 8 8 7 6 8 9 11 14 16 17 19 20 21 23 21 25 17 26 27 25 26 25 25 25 24 20
16 15 13 20 25 30 30 28 27 26 22 20 19 17 14 11 8 7 7 7 7 8 11 13 15 17 19 21 21 22 21 23 19 26 25 26 26 25 26 26 25 24 22
15 15 14 21 23 26 29 29 26 24 21 19 18 15 12 9 7 6 6 6 8 9 12 14 17 19 22 22 23 24 25 18 26 26 25 27 26 28 27 26 25 27 29
16 15 14 14 20 23 27 28 25 24 21 18 16 13 10 7 5 5 5 6 9 11 14 17 19 21 23 23 25 23 21 27 24 22 24 27 27 28 28 29 28 29 28
18 16 14 12 20 23 27 28 25 23 21 18 14 11 8 5 4 4 6 8 11 13 16 18 20 22 24 25 22 26 28 25 23 25 28 28 27 27 30 31 29 26 30
17 17 16 13 19 22 26 29 26 23 20 16 12 9 6 4 3 4 7 10 12 15 17 19 20 23 24 21 27 27 27 26 27 29 29 26 26 30 31 31 33 35 32
16 16 17 15 18 23 24 28 26 22 17 14 11 8 5 3 4 6 9 12 14 17 18 20 23 24 25 25 25 26 28 28 28 28 27 27 28 29 32 36 37 36 36
17 18 16 15 21 24 29 29 26 21 17 14 10 6 4 2 4 7 10 13 16 17 20 23 23 25 27 26 27 27 29 29 29 28 29 29 27 30 32 36 36 35 35
16 15 13 20 23 29 31 29 25 20 15 12 8 5 2 2 6 9 12 15 18 20 22 23 25 26 28 25 26 28 27 26 26 26 28 28 29 31 37 38 35 34 27
12 15 22 26 28 31 32 28 22 18 14 11 7 4 2 4 7 11 14 16 19 20 23 25 26 27 25 26 25 26 28 26 26 27 26 29 32 35 39 39 33 30 24
22 24 27 29 31 30 29 25 21 16 13 9 5 3 2 5 9 11 15 17 19 21 24 26 25 23 23 23 24 25 25 25 27 27 26 28 34 37 38 37 30 27 32
25 27 26 25 28 28 25 23 18 15 10 7 4 2 3 7 10 13 16 19 20 24 25 25 27 22 20 24 24 26 26 25 27 26 28 32 37 35 38 37 30 32 37
20 24 24 24 25 24 23 20 17 12 9 6 3 2 5 8 10 14 18 20 21 24 26 28 23 20 22 23 25 27 28 28 28 27 32 33 32 37 36 31 31 34 34
19 21 24 25 21 20 20 19 14 11 8 5 2 3 6 9 11 16 18 20 22 25 26 22 20 21 23 25 25 27 28 31 31 30 34 30 33 32 29 30 32 32 28
17 22 24 21 19 16 16 15 13 10 7 4 1 4 9 11 14 16 17 19 23 25 20 19 21 22 23 23 27 28 29 29 28 29 26 29 29 27 28 28 28 27 27
18 22 20 21 19 18 16 13 11 8 6 2 4 7 10 12 16 17 19 20 19 19 22 22 22 23 24 26 32 33 33 33 32 34 26 26 26 26 27 27 27 28 28
20 20 21 21 18 17 15 12 9 6 3 4 7 9 11 15 16 19 25 22 17 19 19 21 22 25 25 30 31 32 32 34 32 24 23 24 24 24 26 26 28 28 29

GFSMW_925_spd_036.txt.gz
Wind_Speed
5 12 13 12 11 12 16 14 17 23 29 33 34 32 27 27 24 20 16 14 13 11 9 9 8 9 11 12 13 14 16 12 22 11 22 10 4 11 12 18 18 23 18
7 7 12 12 12 14 14 15 22 27 30 32 31 32 30 25 25 22 19 16 13 11 10 10 10 10 10 11 13 15 14 8 16 9 5 4 7 6 36 9 24 15 29
13 8 8 12 15 17 19 22 26 27 29 31 32 31 29 28 26 22 19 16 12 11 11 10 10 10 11 12 12 13 15 12 10 12 7 4 3 10 4 22 10 33 18
8 7 7 11 20 21 24 26 29 30 30 31 31 32 28 26 23 21 18 15 12 10 9 9 9 9 10 10 12 12 15 14 14 12 8 6 11 3 5 7 29 15 29
17 15 12 18 24 25 28 30 33 31 28 27 27 30 29 27 23 19 16 13 10 9 9 8 8 9 10 10 11 13 14 13 13 13 13 12 15 11 5 10 10 25 26
12 11 14 21 24 26 30 31 31 28 28 28 28 30 30 27 23 18 14 10 7 8 8 8 8 8 9 11 12 13 13 14 12 14 16 15 6 9 8 9 11 13 22
18 16 15 14 21 25 31 32 33 30 30 29 28 27 26 23 21 16 12 8 6 7 7 7 8 9 10 10 12 14 15 15 16 16 18 15 16 20 19 19 16 10 24
18 17 15 18 21 24 29 33 34 33 32 30 28 25 22 20 17 13 10 7 6 6 5 6 7 9 10 12 14 16 17 17 16 19 16 17 23 24 22 19 18 14 10
19 17 14 19 21 24 29 35 35 33 32 29 27 23 20 18 16 12 8 6 5 4 5 6 9 11 13 15 16 17 18 18 19 17 17 23 25 24 23 23 21 14 13
16 15 13 18 21 28 32 34 33 32 30 28 25 22 19 16 13 10 8 6 4 4 6 8 11 14 15 17 17 18 20 19 19 18 23 22 25 25 23 23 23 21 20
17 15 13 19 23 29 31 32 31 30 28 26 24 21 18 14 11 9 7 5 4 5 8 11 13 15 17 19 19 20 21 19 18 23 19 23 24 22 24 24 23 23 23
16 14 13 20 22 25 29 31 30 29 26 24 22 19 16 12 10 7 5 4 5 7 10 12 15 17 19 20 21 21 19 23 25 23 20 23 23 27 25 24 25 26 28
16 14 13 12 20 22 26 30 29 28 25 23 21 17 14 10 8 6 4 4 6 9 11 14 16 18 20 21 21 19 24 24 23 21 22 26 28 26 26 27 26 27 26
17 15 13 13 20 22 25 29 29 27 25 21 18 15 11 8 6 4 4 6 8 11 13 14 16 18 20 22 19 24 25 25 24 24 26 27 27 27 28 28 28 26 31
16 16 15 13 18 21 24 28 29 26 23 20 16 13 10 7 5 3 5 7 9 12 13 15 18 19 22 20 23 24 26 27 29 28 27 26 27 29 30 31 32 34 30
17 16 16 15 18 22 24 28 29 26 22 18 15 11 8 6 4 4 6 9 11 13 14 17 19 21 22 22 22 24 27 28 25 26 28 29 26 27 32 34 34 35 35
18 17 17 16 21 25 30 29 30 25 21 17 13 10 7 5 3 5 7 10 13 14 16 19 20 21 23 21 23 25 27 26 28 28 28 29 25 30 32 34 35 36 33
16 15 13 19 23 27 29 32 28 24 20 16 12 8 6 4 3 6 8 11 14 16 17 19 20 21 23 22 24 25 25 28 27 26 27 26 29 30 35 36 36 24 27
13 15 22 26 29 31 34 32 27 23 19 15 11 7 4 2 4 7 10 12 15 17 18 20 21 22 23 22 23 25 27 25 26 26 25 26 30 34 37 35 31 29 30
20 23 25 28 30 30 34 31 26 22 17 14 10 6 3 2 6 8 11 13 14 17 18 21 22 22 22 22 23 24 25 25 27 25 24 24 33 36 34 36 31 27 33
23 27 27 26 28 33 32 27 24 19 15 12 9 5 2 4 6 8 11 13 15 18 21 22 23 22 21 23 21 23 25 26 26 26 26 30 32 35 37 34 27 30 35
21 25 26 24 29 31 29 26 21 17 14 11 8 4 2 4 6 10 12 14 16 19 22 24 23 20 22 22 22 24 25 27 27 26 29 29 34 35 31 29 29 32 31
20 22 27 26 26 25 26 25 19 16 14 10 6 3 2 4 8 10 12 17 19 20 21 17 18 20 21 22 24 23 26 27 29 27 31 31 32 28 27 27 29 29 26
18 24 25 21 22 21 20 21 18 15 12 9 5 2 3 6 8 9 13 16 17 18 17 17 18 20 20 22 24 25 27 24 25 26 24 27 26 26 26 26 27 26 26
19 23 22 22 22 21 20 17 15 13 10 6 3 2 4 7 10 12 14 14 15 16 19 20 21 21 21 23 28 30 30 30 30 31 24 24 24 25 25 26 27 27 27
21 22 23 24 23 21 19 15 12 10 7 5 1 3 6 8 10 14 18 17 13 15 16 17 19 23 22 26 28 28 29 31 28 23 21 22 22 22 25 26 27 28 28

GFSMW_925_spd_039.txt.gz
Wind_Speed
7 11 15 15 13 13 16 16 22 27 32 33 33 31 28 30 25 21 18 15 13 12 10 9 8 9 11 12 13 12 14 14 22 12 22 10 5 9 6 25 15 18 18
5 5 12 15 15 16 17 18 21 27 31 34 32 34 33 27 25 22 20 17 15 12 10 9 10 10 10 10 13 15 14 11 18 10 4 4 8 4 14 19 18 14 28
11 8 9 16 16 17 18 21 25 28 29 32 34 35 30 30 27 22 22 17 13 11 9 9 9 9 10 11 12 14 15 11 12 10 8 4 3 8 5 12 10 24 16
9 8 8 11 20 19 19 23 26 29 31 35 39 38 30 24 20 24 21 17 12 11 9 8 8 9 9 10 11 12 13 12 10 8 8 5 10 3 5 4 25 12 28
13 12 13 17 22 23 25 27 28 30 33 36 36 33 31 32 29 24 21 16 12 9 8 7 8 8 9 10 10 11 12 12 10 10 9 9 13 9 4 10 11 27 27
11 10 12 20 21 24 28 30 32 31 31 30 29 32 36 34 29 22 18 14 11 8 7 7 7 8 8 9 10 11 11 11 11 10 11 9 4 7 7 7 14 15 23
15 14 15 13 20 26 30 31 32 28 27 28 29 32 33 30 25 20 15 13 10 7 7 6 7 8 8 9 11 12 12 12 12 11 13 8 12 16 18 17 16 8 25
16 19 18 16 20 25 29 30 32 31 30 31 30 29 27 25 20 16 14 12 9 7 6 6 6 7 9 11 12 13 13 13 13 14 9 14 17 17 19 16 17 13 8
17 20 16 19 21 25 28 33 33 33 32 32 30 27 25 22 20 16 12 11 8 6 5 5 7 9 10 12 13 14 15 16 15 14 16 18 17 19 21 21 20 13 11
16 15 15 19 21 27 30 32 34 34 33 31 29 27 24 20 17 14 12 9 7 5 5 6 8 10 11 14 15 16 17 16 16 19 20 19 20 22 21 23 22 20 19
17 16 14 19 23 28 30 32 34 34 32 30 28 25 22 18 15 12 10 7 6 5 6 8 10 12 14 15 17 17 16 17 21 21 21 21 22 23 24 26 24 22 21
16 15 14 19 23 24 27 30 33 33 30 29 27 23 20 16 13 11 9 6 5 5 7 9 11 13 14 16 17 16 18 20 22 22 22 23 25 25 28 26 24 25 27
16 14 13 13 18 21 26 30 32 31 29 27 25 21 17 14 12 9 7 5 5 6 8 10 12 14 15 17 16 17 19 20 21 23 24 25 26 27 26 28 27 25 24
17 15 13 12 18 20 24 29 30 30 28 25 22 19 15 12 10 8 6 5 6 8 9 10 12 14 15 16 17 19 20 22 23 21 21 24 25 26 27 26 26 26 31
15 15 14 12 16 20 24 28 30 29 27 24 20 17 14 11 9 6 5 5 7 8 8 11 13 15 16 18 18 20 22 22 20 25 27 25 23 25 26 30 32 31 29
15 15 14 14 16 22 23 28 30 28 25 22 19 16 13 10 7 5 5 5 7 8 10 12 14 16 18 19 19 19 22 20 25 27 28 28 24 24 29 31 31 32 33
16 16 16 15 21 24 29 29 31 28 24 21 18 15 12 9 6 4 4 5 8 10 11 14 15 17 19 17 18 20 21 23 26 27 29 29 25 29 32 32 35 33 26
15 14 13 18 22 26 28 32 31 27 24 21 17 14 11 8 5 3 5 7 9 11 13 15 17 18 19 18 19 21 23 26 27 27 27 28 30 29 34 35 26 32 28
13 15 23 26 28 30 34 34 30 26 23 19 16 13 9 7 3 4 6 7 10 12 15 16 18 18 18 18 20 22 25 25 26 24 23 24 27 32 35 34 31 30 29
19 22 26 28 29 30 35 33 28 26 22 18 15 11 8 5 3 4 6 9 11 13 15 17 17 16 18 20 20 22 24 24 25 22 23 23 31 34 34 35 30 25 32
23 26 26 25 27 33 34 27 27 23 19 17 14 10 6 3 3 5 8 10 12 15 16 17 17 17 20 21 20 21 24 26 26 26 25 28 31 35 36 33 27 29 34
20 23 25 23 27 32 33 28 24 21 19 16 12 8 5 3 4 7 8 10 14 16 17 19 20 21 21 21 20 21 23 27 28 25 28 30 34 34 31 29 28 31 31
19 22 26 26 28 30 30 28 23 21 18 15 11 7 4 3 6 8 11 14 14 15 18 17 17 21 20 21 21 22 24 26 27 26 31 32 32 29 26 27 28 28 25
18 25 27 23 23 24 26 26 23 19 16 13 9 6 3 3 5 7 10 12 14 16 18 16 17 21 20 21 24 23 26 22 24 27 25 27 26 24 25 25 25 25 25
19 23 23 22 24 24 24 22 20 17 15 11 8 4 2 5 7 8 10 12 12 13 17 18 19 20 19 20 26 27 27 28 29 31 24 23 23 24 25 26 26 26 26
21 22 24 28 25 25 22 18 15 13 12 9 5 2 4 6 8 11 14 12 10 13 14 15 18 20 20 24 26 27 27 30 27 23 20 21 22 22 24 25 27 28 27

GFSMW_925_spd_042.txt.gz
Wind_Speed
12 18 19 17 17 17 16 14 17 25 30 33 32 28 30 27 28 25 21 18 15 13 12 12 10 8 9 11 12 11 12 16 22 12 16 8 6 5 6 14 17 11 17
7 8 11 13 18 19 19 16 19 26 31 34 31 31 34 28 28 25 20 17 18 15 13 11 10 10 9 10 13 14 11 11 19 11 4 4 6 6 20 20 9 18 17
12 8 8 16 17 18 21 21 22 27 30 33 32 34 30 29 26 24 23 19 17 16 12 11 10 10 10 12 13 13 13 12 13 11 7 3 2 7 5 13 14 11 24
12 9 8 11 21 21 20 22 25 27 28 32 36 42 32 27 20 28 24 21 16 15 12 11 10 10 10 11 11 11 12 10 10 4 8 3 5 3 5 5 19 8 29
16 14 12 20 26 23 23 23 25 26 29 32 35 33 29 24 32 29 26 21 17 14 13 11 11 10 10 10 9 10 11 10 7 7 5 4 8 5 3 8 10 26 24
12 11 13 20 22 21 23 26 28 27 30 32 34 35 36 37 34 29 25 21 17 15 13 11 10 9 9 8 9 10 9 8 8 7 7 4 1 4 4 4 13 15 18
9 10 13 12 21 26 27 28 30 29 30 31 31 31 34 36 33 27 24 20 16 14 12 10 9 8 8 8 8 8 8 9 9 8 8 3 7 10 13 13 14 10 24
7 13 15 13 23 26 29 27 31 32 30 30 29 31 32 31 26 23 20 17 15 13 11 9 7 7 7 8 8 9 9 10 10 10 7 11 13 11 13 14 14 12 6
11 12 13 17 23 25 28 32 33 31 30 30 32 32 30 28 25 22 18 17 14 12 9 7 6 6 7 9 10 10 11 11 10 11 13 14 15 14 16 16 17 11 10
11 10 11 13 21 26 30 32 33 34 33 35 35 32 28 25 23 20 18 15 13 10 8 6 6 6 7 9 10 11 11 11 13 15 15 17 18 18 19 20 21 21 19
14 14 12 16 19 26 29 33 35 37 36 35 34 31 28 24 21 19 16 14 12 9 7 5 5 7 8 10 12 12 12 15 16 16 18 20 20 22 22 23 24 24 22
14 13 14 19 21 22 26 31 34 37 36 34 33 30 26 23 20 18 15 12 10 7 6 5 6 8 10 12 13 14 14 16 18 19 20 20 20 21 23 24 25 25 25
16 14 14 13 18 21 24 29 34 36 35 34 32 28 24 21 19 16 13 10 8 6 5 5 7 10 12 14 14 13 16 17 18 18 18 22 23 23 23 25 25 25 22
17 16 13 13 17 21 24 29 33 36 34 32 30 26 22 19 17 15 12 9 7 5 5 7 9 11 13 14 14 15 17 18 18 19 23 22 22 22 25 23 23 23 28
15 15 15 13 16 21 24 28 33 34 33 31 27 24 21 18 16 13 10 8 6 5 6 8 10 12 14 16 15 17 18 19 19 22 23 23 21 22 24 27 28 29 29
15 14 14 14 13 22 24 27 31 33 31 29 26 23 20 17 14 11 8 6 5 5 7 10 12 14 15 17 15 17 19 20 22 25 26 25 23 24 25 28 28 29 33
15 15 15 14 20 23 28 28 33 31 29 27 24 21 18 15 12 9 7 5 5 7 9 10 13 16 17 15 16 18 20 22 23 25 27 27 26 26 29 31 30 29 28
14 13 13 17 21 26 28 34 33 30 28 25 22 19 16 14 10 7 6 5 6 8 10 12 15 17 17 16 17 19 21 22 24 26 25 25 28 27 31 33 25 29 26
13 13 21 25 28 30 33 34 31 29 27 24 21 18 15 12 9 6 5 5 6 8 12 14 16 17 17 18 19 21 23 24 26 26 21 23 26 31 33 31 29 28 26
17 21 25 27 28 28 35 33 29 28 25 23 20 16 13 10 8 6 4 5 8 10 13 15 15 16 18 19 19 21 22 23 24 21 23 21 28 31 31 32 28 25 31
21 24 25 25 27 33 34 28 29 25 24 21 19 16 12 9 7 5 5 7 9 12 13 16 18 17 19 20 19 20 22 24 24 24 23 25 29 33 33 31 25 27 32
19 22 23 23 27 33 34 26 24 24 23 21 18 14 11 8 5 5 5 8 10 13 15 19 21 20 21 21 19 21 23 25 27 24 26 28 32 32 30 26 26 28 28
18 21 25 25 24 29 30 26 26 25 23 20 16 12 9 6 5 5 7 10 11 14 16 18 18 22 22 23 21 22 23 27 26 26 30 31 30 28 25 23 26 25 23
16 22 25 22 23 24 25 30 27 24 22 18 14 11 7 5 4 5 8 11 13 14 17 17 17 22 24 20 23 24 27 23 23 26 24 26 25 22 24 24 24 23 23
18 21 23 22 24 26 29 27 25 22 20 16 12 8 5 4 5 7 9 12 12 11 17 18 20 21 18 20 24 26 27 27 28 29 23 23 21 22 23 24 25 25 24
20 22 23 27 28 31 27 23 20 17 17 14 10 6 4 5 7 9 12 11 10 13 13 15 17 20 19 22 24 24 26 27 25 21 19 20 21 21 23 24 26 27 26

GFSMW_925_spd_045.txt.gz
Wind_Speed
16 20 23 20 17 18 19 19 19 23 26 28 29 23 24 24 23 24 25 25 20 18 15 15 13 11 8 9 8 7 8 13 18 10 8 3 2 5 7 8 9 5 12
13 13 16 17 17 20 20 20 20 24 27 28 25 23 29 24 26 27 26 23 21 18 16 16 13 10 9 9 9 9 7 9 16 7 2 4 2 2 5 9 5 12 11
18 17 13 20 21 20 23 23 21 25 28 30 31 29 28 28 25 26 25 22 21 20 16 13 12 11 9 10 10 11 10 7 9 12 5 2 2 7 6 5 8 9 17
18 18 16 15 22 28 24 23 22 26 28 31 33 39 28 26 18 28 27 25 20 19 16 12 12 11 10 10 10 9 10 7 6 4 6 2 2 3 5 4 10 5 21
16 18 19 24 27 28 28 26 25 27 28 31 33 30 28 25 31 32 29 25 22 17 15 13 12 11 10 10 8 8 8 7 5 3 3 2 4 3 4 8 11 22 18
15 17 20 20 19 27 26 28 29 27 29 30 32 34 39 38 35 33 31 25 23 19 15 13 12 11 10 8 7 7 6 7 6 4 4 2 2 5 6 6 16 18 16
13 13 11 11 16 23 27 29 30 27 29 30 31 32 35 37 37 35 32 28 23 19 16 13 12 10 8 7 7 6 6 7 7 5 5 3 5 7 10 14 18 12 26
9 12 13 12 21 24 26 26 30 29 29 30 30 32 36 37 35 32 29 25 22 19 16 13 11 8 6 6 6 6 7 7 6 6 7 8 9 10 11 14 18 14 12
11 11 11 15 21 24 27 31 32 31 30 32 33 34 36 35 34 30 26 24 21 18 14 11 9 7 5 5 6 6 7 6 7 9 9 10 12 14 13 14 15 17 13
11 11 12 15 19 22 23 27 31 35 32 33 35 38 38 35 32 29 26 22 19 16 13 10 7 5 5 6 7 7 7 7 9 9 11 12 13 14 15 15 17 18 22
14 13 13 18 22 23 26 28 33 37 34 37 40 40 36 34 30 27 23 20 18 14 11 8 5 5 5 6 7 7 7 9 11 11 11 14 15 14 15 17 18 19 21
13 13 15 18 24 24 26 28 31 35 37 41 42 40 36 32 28 25 22 18 16 12 9 6 5 5 6 7 8 8 9 10 12 13 15 14 16 17 17 17 19 21 23
15 14 15 14 18 24 26 28 30 36 38 42 41 37 34 30 26 23 20 16 13 10 7 5 4 5 6 7 8 8 11 12 13 15 14 16 16 18 18 19 21 23 23
15 15 14 14 20 24 26 29 30 37 38 39 39 36 31 28 25 22 18 15 11 9 6 4 5 6 7 8 10 11 13 13 15 16 17 17 17 19 20 21 23 23 28
13 14 15 15 18 24 26 28 32 33 37 38 36 33 29 26 23 20 17 13 10 7 5 4 5 7 9 10 11 12 14 15 16 18 20 18 19 21 22 23 24 27 26
14 15 16 17 17 24 27 29 31 33 37 36 34 31 28 24 21 18 15 11 8 6 4 5 7 10 11 12 11 13 14 15 15 19 19 20 21 19 23 25 25 27 30
14 15 15 15 21 26 30 30 32 35 34 34 32 29 25 22 18 15 12 9 6 5 5 7 9 11 12 12 12 14 14 15 18 20 21 20 19 23 24 27 28 28 24
15 14 13 18 23 27 28 34 33 33 33 31 29 26 23 21 17 13 10 8 5 5 6 8 11 13 13 13 14 16 15 17 19 21 21 20 22 21 27 30 24 25 26
12 12 20 24 27 29 31 33 30 31 31 29 27 23 21 19 15 12 9 6 5 5 8 10 11 13 14 15 16 16 17 18 20 20 19 21 23 28 29 29 26 29 28
16 20 23 25 27 26 33 31 27 28 25 27 25 21 18 16 13 10 7 5 5 7 9 10 12 13 14 17 16 17 17 18 22 20 21 20 26 28 29 30 27 25 29
21 22 24 24 25 29 31 26 25 22 27 26 23 20 16 14 10 8 6 4 6 7 10 13 13 14 16 18 16 17 18 20 21 23 23 24 26 29 30 29 25 24 29
19 21 22 21 24 29 32 25 22 28 28 25 22 18 15 12 9 6 4 5 7 10 10 14 16 16 20 19 17 17 19 21 23 23 24 26 29 30 29 25 23 25 25
18 20 24 24 21 24 28 27 27 30 28 24 20 17 13 9 6 4 5 6 8 9 11 11 13 17 17 20 19 18 20 23 24 22 27 28 28 27 22 21 24 22 20
16 22 25 23 21 23 26 33 32 29 26 23 19 15 11 8 5 4 5 7 8 9 10 12 15 17 18 17 18 20 23 22 21 24 23 25 24 20 21 21 20 19 20
19 21 22 22 22 28 31 31 29 27 24 21 17 12 8 5 4 4 5 7 8 9 12 13 15 17 18 18 22 24 24 23 25 26 21 20 19 20 20 21 21 22 22
20 22 23 26 26 31 31 28 25 23 23 19 14 10 6 4 4 5 7 6 8 11 10 12 14 18 18 20 22 22 23 26 24 20 18 18 19 20 22 23 24 24 24

GFSMW_925_spd_048.txt.gz
Wind_Speed
18 22 21 18 17 18 19 19 17 16 18 20 22 22 22 18 16 19 21 17 18 22 20 16 13 10 6 5 3 3 6 8 11 6 5 2 1 4 6 5 5 3 6
23 22 26 25 22 20 20 20 20 20 21 20 20 20 18 13 20 21 18 20 19 21 19 16 14 11 8 6 6 6 5 6 10 6 3 3 3 1 5 9 5 7 6
23 23 23 28 25 23 21 22 22 21 22 21 21 19 16 19 20 22 19 19 20 20 18 16 13 12 9 7 7 8 6 4 5 8 4 2 2 9 4 4 8 6 11
21 22 22 24 27 26 21 19 20 22 22 24 23 25 21 20 17 24 21 22 21 20 18 16 9 10 9 8 8 7 6 4 4 1 4 2 3 3 5 4 10 9 16
17 18 19 25 25 24 22 19 19 21 22 25 22 23 20 19 27 28 25 25 22 18 16 14 11 10 9 9 8 7 5 4 2 2 2 2 4 4 5 9 9 20 19
14 16 18 20 22 22 20 22 23 22 23 24 23 23 26 29 32 31 30 26 22 18 13 13 11 10 9 8 7 6 4 3 1 1 2 3 3 6 7 8 14 19 22
12 12 14 13 17 21 22 22 25 24 24 24 26 25 26 30 36 32 34 27 19 16 13 12 11 9 8 7 6 4 3 1 1 2 3 4 6 8 11 15 17 14 24
15 13 15 13 18 21 25 25 27 25 26 26 26 25 27 30 31 33 33 26 19 16 14 12 10 9 7 6 5 3 1 1 2 3 4 6 8 9 12 15 18 14 14
14 14 15 13 19 21 26 28 27 26 26 27 28 28 28 33 34 34 31 25 19 17 14 12 10 8 7 5 3 1 1 1 3 5 6 7 9 11 13 15 17 19 14
17 18 15 14 16 19 24 25 25 27 27 29 29 29 29 35 34 34 25 19 18 16 14 11 9 7 5 3 1 0 1 3 5 6 8 9 10 13 14 16 18 19 23
26 24 17 17 16 19 23 25 27 28 28 28 29 31 30 36 34 27 21 18 17 15 12 10 8 6 4 2 1 2 3 5 6 7 9 11 12 14 16 17 19 21 23
21 21 17 14 21 21 25 27 27 28 26 29 32 33 37 31 28 23 21 18 16 13 11 9 7 5 3 1 2 3 5 7 8 9 11 12 13 16 17 18 20 21 24
1 11 14 15 18 22 25 28 28 28 28 33 35 37 30 26 24 23 20 17 15 13 10 7 6 4 2 1 3 5 7 9 10 11 12 14 16 17 18 20 21 23 25
5 11 13 15 19 24 26 28 28 29 31 33 34 31 26 24 23 21 19 16 14 12 9 6 4 2 1 2 4 7 9 11 12 13 14 16 17 18 20 22 24 25 26
9 11 14 15 18 24 26 27 29 29 32 32 31 28 25 23 22 20 17 15 12 10 8 5 3 2 2 3 7 9 11 13 14 15 16 17 18 20 21 22 24 27 27
10 12 15 18 17 24 26 29 29 29 30 30 28 26 24 22 20 18 16 14 11 9 6 3 2 2 3 7 7 10 12 14 15 17 18 18 19 19 21 23 25 26 28
12 13 15 15 19 24 29 28 29 30 28 28 26 24 22 21 18 16 14 12 9 7 4 3 2 4 5 8 9 11 13 15 16 18 19 20 19 21 22 23 27 26 27
12 13 12 16 22 26 27 30 28 27 27 26 24 22 20 19 17 15 12 11 8 5 3 2 3 5 6 9 11 13 14 15 16 18 19 20 21 22 24 28 26 26 29
12 11 18 22 25 26 27 29 26 26 25 24 22 20 19 18 16 13 12 8 6 3 2 2 4 6 7 10 12 13 15 15 17 18 20 19 23 22 27 28 28 30 30
16 19 23 25 26 26 27 28 25 24 23 21 20 19 17 16 14 13 9 7 4 2 2 3 5 7 8 10 12 13 14 16 19 20 21 21 21 26 26 29 29 29 28
20 21 22 23 25 25 26 25 23 21 21 21 20 17 15 17 15 11 8 5 3 2 3 5 7 6 8 10 12 13 14 17 21 22 23 22 24 28 30 29 28 25 29
17 19 21 22 22 24 26 24 22 22 22 22 21 20 17 14 10 9 6 4 3 4 5 7 9 8 10 11 12 14 15 18 22 23 24 26 28 30 29 27 22 25 26
18 21 23 23 21 20 22 24 22 27 28 26 21 17 13 11 8 6 5 2 3 4 6 9 11 13 13 14 14 16 19 21 22 21 26 29 28 27 23 20 23 21 18
17 21 24 23 22 18 22 28 29 30 28 24 17 14 11 9 6 5 3 2 3 5 7 9 12 14 15 15 16 20 22 21 21 24 26 26 23 21 21 20 18 18 19
18 21 22 22 21 23 27 30 31 29 24 18 14 12 9 7 5 3 1 2 3 4 8 10 12 15 16 16 20 22 23 24 25 27 23 20 19 20 19 19 19 20 21
20 21 21 23 22 25 26 27 27 24 19 16 12 9 7 5 3 2 2 4 3 5 7 8 10 14 15 18 19 20 22 24 23 21 17 17 18 19 20 21 22 22 23

GFSMW_925_spd_051.txt.gz
Wind_Speed
19 25 25 27 30 30 30 28 25 23 22 23 23 22 21 19 20 19 20 17 16 15 15 15 15 13 9 5 3 4 4 4 8 5 3 4 3 4 6 6 6 6 6
22 22 27 29 30 30 28 28 27 25 25 23 23 22 20 21 22 21 18 18 20 21 18 18 15 10 10 6 5 3 2 4 8 4 4 1 4 3 5 7 8 7 7
23 23 23 28 28 29 30 28 27 26 26 23 21 18 22 17 16 19 22 19 19 20 21 17 16 12 8 7 6 5 4 3 4 7 4 2 2 6 4 6 7 7 9
22 22 21 22 28 29 28 27 27 26 26 25 26 26 18 18 16 24 24 21 20 21 21 18 16 14 10 7 7 4 5 3 2 1 4 3 3 2 4 2 6 10 10
14 16 17 22 26 25 28 26 24 26 26 27 25 25 20 18 25 27 27 25 24 22 22 19 14 11 11 8 7 5 5 3 2 3 3 3 4 6 5 6 6 17 15
8 11 15 17 19 23 18 23 24 27 27 28 26 26 24 27 29 30 28 27 27 23 18 17 14 10 10 9 7 6 4 2 3 2 2 3 4 6 7 6 11 15 18
13 10 11 12 16 17 21 20 24 26 28 27 26 25 26 26 30 33 33 31 27 25 19 18 15 10 11 8 7 5 3 2 1 1 2 4 7 9 10 13 14 11 19
12 12 14 11 15 16 18 22 24 25 26 27 26 24 24 26 27 29 33 28 26 26 20 17 13 11 10 8 6 4 3 0 0 2 4 6 8 9 11 13 14 11 11
6 9 10 10 12 15 20 22 24 24 26 26 25 25 24 26 29 30 28 28 25 24 18 16 13 10 9 7 6 3 2 1 2 4 6 8 9 11 12 14 15 15 10
13 13 15 14 17 15 19 23 25 25 25 27 25 25 25 27 33 35 33 31 26 22 18 15 13 10 7 5 4 2 1 2 4 6 7 9 11 13 14 15 16 17 19
20 20 19 21 23 19 18 23 24 26 26 26 26 26 26 31 33 32 31 24 22 19 16 14 11 9 6 4 2 1 1 4 6 7 9 11 12 14 15 16 17 18 19
23 18 19 19 24 20 20 25 26 25 26 27 28 27 30 32 31 31 26 24 21 17 15 12 10 8 5 3 1 1 4 6 8 9 11 13 13 15 16 17 18 20 22
15 16 18 16 17 21 23 26 28 26 26 28 30 31 30 31 30 30 26 23 19 16 13 11 9 6 4 1 1 3 5 7 10 11 12 14 15 17 17 18 20 21 22
8 7 8 13 16 21 25 26 28 28 28 30 31 31 30 30 29 27 24 21 17 15 12 10 7 5 2 0 2 5 7 10 12 13 14 15 16 17 18 20 21 22 23
1 2 7 11 14 20 26 26 27 30 30 32 30 30 31 30 27 24 22 20 16 13 11 9 6 3 1 1 4 6 9 12 14 14 15 16 17 18 20 20 21 24 23
4 6 10 14 15 21 23 25 29 31 32 33 31 31 30 27 24 23 20 18 15 12 10 7 4 2 1 5 5 7 10 13 15 16 16 18 18 18 19 21 23 25 27
7 9 11 13 16 19 24 27 33 32 32 33 30 28 26 25 22 20 18 16 12 10 7 5 2 1 2 6 6 9 11 14 15 16 17 18 18 19 20 22 24 27 28
9 10 9 12 18 23 25 30 32 32 32 29 27 25 24 23 21 18 16 13 10 8 5 3 1 2 4 9 8 10 12 14 15 17 18 19 20 20 23 23 26 26 28
8 9 15 18 22 24 27 31 30 29 28 26 25 23 22 22 19 17 13 10 8 5 3 1 2 3 4 8 9 12 13 14 16 17 18 20 21 22 22 27 27 27 29
14 14 19 22 26 23 27 28 27 25 23 23 23 22 21 19 18 15 12 9 6 4 1 2 3 5 6 7 9 12 13 15 17 18 21 21 21 22 26 28 28 28 28
17 21 19 19 21 25 25 24 23 22 22 23 23 21 19 19 17 14 9 6 4 1 1 3 5 6 6 8 10 12 13 15 19 20 20 20 22 26 29 29 28 26 28
15 18 20 21 22 22 24 23 22 23 24 23 23 22 20 18 13 10 7 5 1 1 3 5 6 6 8 9 11 12 14 17 20 21 22 23 28 30 28 26 23 24 25
15 17 20 21 20 21 21 24 22 23 25 26 25 21 17 13 10 7 5 2 1 3 4 6 7 9 10 11 12 13 17 19 22 22 25 29 30 27 23 21 23 21 19
15 18 19 19 19 17 20 23 25 27 28 26 22 17 13 10 7 5 3 1 2 3 5 7 9 11 12 12 13 17 20 21 21 24 27 27 24 20 20 20 19 19 20
16 16 18 19 19 21 23 25 28 27 25 22 16 12 10 7 6 4 1 1 1 2 5 7 9 12 13 14 18 20 21 22 23 28 24 20 18 18 18 19 19 20 21
16 16 19 21 21 24 25 25 24 24 22 16 13 10 9 6 4 1 1 4 4 7 7 7 7 11 13 15 18 19 20 22 24 20 17 16 17 18 19 20 23 23 24

GFSMW_925_spd_054.txt.gz
Wind_Speed
10 20 23 25 30 33 30 35 33 32 30 27 30 27 27 25 27 29 27 28 24 21 22 21 20 16 14 12 9 5 4 4 7 4 2 5 2 3 5 8 7 6 6
14 13 21 27 27 27 29 26 27 37 36 32 29 25 26 28 31 29 26 28 27 26 23 24 22 19 18 13 8 8 3 2 7 3 2 2 1 5 7 9 8 8 8
14 13 11 19 26 26 25 28 31 26 37 33 28 25 27 28 25 29 29 27 28 25 24 24 23 19 15 12 8 9 7 4 2 4 3 2 1 4 1 9 8 5 8
14 10 9 13 22 29 32 27 29 30 31 35 31 34 28 22 25 33 30 26 23 23 24 22 19 16 14 13 10 8 8 6 5 3 4 2 1 1 3 2 2 7 9
9 9 9 15 20 14 32 36 30 32 28 37 33 35 29 24 31 30 28 24 22 23 24 22 21 20 16 14 12 9 8 7 5 4 2 1 2 4 3 4 4 18 23
4 3 3 6 14 18 16 11 31 29 30 33 29 35 36 33 32 31 30 28 27 26 23 23 21 18 16 14 12 10 7 6 5 4 2 2 1 1 1 2 4 12 16
3 4 6 5 7 9 11 11 13 27 26 28 28 30 32 34 35 35 33 33 31 30 27 24 21 18 15 13 11 8 6 5 4 3 3 2 2 5 7 9 10 5 15
6 6 3 3 6 6 15 13 14 13 21 28 27 24 29 29 31 34 35 32 32 31 26 21 19 17 14 13 9 7 4 2 2 1 2 3 5 6 8 9 10 7 5
5 1 3 4 2 3 10 15 17 18 18 25 25 30 31 29 30 32 32 30 32 29 26 22 20 18 14 10 8 6 4 2 2 2 4 6 6 8 9 10 12 10 6
8 5 5 7 10 11 9 14 18 21 25 25 29 31 32 33 32 33 33 33 31 28 26 23 20 16 14 10 8 6 4 4 3 4 6 7 9 10 12 13 14 16 17
13 14 13 18 21 17 16 18 24 19 24 32 31 32 30 32 32 32 33 33 32 29 25 21 18 15 12 9 7 6 3 2 3 6 7 9 10 12 12 14 17 19 20
11 13 15 15 17 16 14 24 25 26 29 32 34 30 31 30 32 32 33 33 30 25 23 20 16 13 11 8 6 4 2 4 5 8 10 11 11 14 15 16 17 18 20
12 13 12 9 15 21 19 24 29 34 32 32 35 30 30 31 30 35 31 31 28 25 21 18 15 12 9 6 3 2 2 5 7 10 11 13 15 15 16 16 15 21 22
10 10 7 17 12 20 24 29 30 34 36 32 32 31 29 31 32 33 31 30 27 23 19 17 14 10 7 4 2 1 4 6 9 11 13 14 16 17 15 19 21 19 23
9 9 7 13 15 21 27 28 29 31 38 33 30 32 30 33 33 33 30 28 25 20 17 15 11 8 6 3 2 4 6 8 11 13 14 14 15 17 18 18 19 23 24
7 8 7 8 12 20 25 26 28 29 34 32 29 34 33 33 33 31 29 26 23 19 15 12 9 6 3 2 4 6 9 10 12 15 15 17 16 16 17 19 20 22 24
2 5 10 11 15 18 22 24 25 29 30 30 31 33 32 31 29 29 27 23 20 17 13 10 7 4 1 4 6 7 11 12 13 16 17 18 17 19 21 21 22 22 24
4 8 7 12 18 20 22 24 24 26 28 27 31 31 31 30 29 27 24 21 17 13 10 7 4 3 3 6 8 9 11 12 14 16 18 18 20 21 22 25 23 27 26
7 10 15 16 18 19 20 24 25 25 24 27 28 28 29 28 28 25 22 18 15 11 7 4 3 2 2 6 9 10 14 14 15 16 18 21 22 21 22 24 29 26 25
14 15 20 20 20 19 22 24 24 24 23 26 26 24 25 28 26 23 19 15 11 8 5 3 3 4 6 4 8 10 14 16 17 19 22 20 20 23 23 27 27 22 25
17 19 18 19 20 23 26 23 23 21 23 28 27 26 25 25 23 19 15 12 9 7 4 3 3 5 5 7 8 11 14 16 21 22 23 23 23 24 28 28 26 26 27
15 17 19 22 22 25 22 18 20 22 24 28 29 27 25 22 18 17 12 9 7 4 3 3 5 5 7 10 11 12 14 17 22 23 24 26 26 29 27 24 23 24 25
16 16 20 20 19 20 20 23 21 29 30 30 29 26 20 17 14 12 10 7 5 4 4 5 7 8 10 10 11 11 17 19 22 23 24 27 27 25 22 22 22 22 24
15 17 20 19 20 21 22 25 29 29 30 29 25 20 18 15 12 9 7 5 4 4 5 6 7 10 11 12 14 20 21 21 23 23 26 25 23 19 20 22 22 23 22
18 18 16 18 19 25 25 25 28 29 28 25 20 18 14 12 9 7 5 5 3 4 5 5 8 10 14 16 17 20 22 23 22 26 23 23 20 21 20 21 20 22 23
18 20 21 20 20 24 26 26 26 27 27 22 18 15 12 10 7 5 3 3 3 6 7 7 9 11 12 14 17 20 21 22 23 20 19 18 19 18 20 21 24 24 24

GFSMW_925_spd_057.txt.gz
Wind_Speed
10 21 29 37 37 37 36 35 28 38 35 36 32 35 34 31 28 29 29 32 33 28 27 26 24 22 20 17 14 12 7 3 1 4 1 3 2 3 6 7 8 5 5
9 11 19 21 26 33 34 31 33 33 39 34 36 26 34 35 30 34 34 37 36 34 29 27 26 24 22 18 15 12 9 4 2 4 4 2 2 5 8 10 9 6 5
11 9 10 23 25 25 23 22 27 35 41 40 35 28 30 28 28 32 35 36 36 32 28 26 26 24 21 18 14 13 8 6 5 6 3 2 2 3 2 7 8 4 3
8 9 9 13 23 25 30 27 22 23 34 38 37 39 34 24 25 37 36 37 35 33 30 28 26 23 19 17 13 11 8 6 7 6 3 1 1 2 3 0 5 3 4
9 10 10 17 22 16 22 30 32 28 28 37 40 38 32 30 33 35 36 33 31 30 29 27 24 22 18 16 14 12 10 7 8 6 3 1 1 2 2 3 5 11 19
1 4 4 4 7 11 12 13 16 27 31 35 38 40 40 36 35 33 35 33 30 29 27 27 25 22 19 16 14 12 9 7 8 6 4 3 2 2 2 1 3 8 12
3 3 3 2 4 6 6 7 10 11 22 32 37 40 42 43 44 41 38 35 33 31 30 28 25 22 18 16 13 11 10 8 7 6 5 3 3 2 3 5 5 4 9
7 4 4 2 6 11 13 12 11 13 15 27 34 37 39 37 36 36 35 32 32 33 30 30 26 23 19 15 12 11 8 8 6 5 3 2 2 4 5 5 5 4 4
9 10 10 12 5 8 8 12 14 12 15 29 33 34 35 36 34 32 31 30 30 33 33 30 26 21 18 14 13 10 7 5 5 2 2 3 4 5 6 7 8 5 3
9 7 6 11 22 20 16 13 16 16 25 31 32 33 32 29 29 30 31 30 29 31 32 28 25 22 19 15 10 11 8 5 3 1 3 5 6 7 9 10 11 11 13
8 9 13 13 17 23 26 23 23 20 26 28 31 33 31 31 31 32 31 31 31 33 30 29 26 21 18 15 11 9 7 5 2 3 6 7 8 10 10 10 13 15 15
7 7 10 18 20 20 25 27 29 28 32 31 33 32 32 31 32 32 30 32 33 32 29 27 24 20 16 12 9 7 4 2 2 5 7 9 10 12 13 14 14 15 15
7 8 8 11 13 19 19 20 26 33 36 36 34 32 32 31 31 34 32 32 31 30 28 25 22 19 15 12 8 5 3 2 3 6 8 10 11 13 14 14 15 18 21
8 9 11 11 19 23 25 16 22 35 36 35 33 32 31 30 29 32 32 33 32 29 27 23 19 16 14 10 8 3 2 3 5 7 9 11 12 12 13 16 19 18 19
8 8 6 9 14 14 23 26 25 28 30 32 29 30 30 31 31 32 33 33 31 29 25 22 17 13 10 8 4 1 2 5 8 9 10 11 13 14 15 17 18 21 22
6 7 5 10 14 17 21 25 25 27 29 27 31 29 29 30 30 33 33 34 30 26 23 18 14 12 9 5 3 3 5 8 9 11 13 13 14 17 15 18 19 20 24
4 7 8 10 14 15 17 23 24 27 29 27 29 27 29 27 29 32 31 30 26 23 20 15 12 9 6 4 3 5 7 9 10 12 14 16 14 16 19 20 21 22 20
6 7 6 13 17 20 22 24 25 26 28 26 25 27 32 28 27 27 28 27 22 19 17 13 9 6 5 2 3 4 8 10 11 11 13 17 20 19 19 22 23 23 25
7 10 13 17 19 21 21 23 24 25 26 25 27 29 30 22 30 28 25 23 20 17 13 10 7 5 3 1 4 7 11 13 13 13 16 18 20 20 21 24 26 24 23
12 14 17 20 23 20 25 27 24 26 25 24 24 29 25 26 26 27 24 20 17 14 10 8 5 4 3 1 4 7 10 14 17 19 19 21 20 22 22 26 25 21 26
14 17 19 20 21 23 28 27 27 24 21 21 22 23 25 26 25 24 20 16 13 11 9 7 5 3 2 4 6 8 11 13 18 21 23 23 21 23 26 25 24 23 26
12 15 18 17 19 20 30 24 25 25 23 25 26 25 23 21 19 20 16 13 11 9 8 5 5 4 4 6 7 9 10 15 18 21 23 23 22 25 24 21 20 21 22
13 15 16 14 14 17 27 22 23 26 25 24 25 24 21 19 17 17 14 12 9 8 6 5 5 5 7 8 10 13 15 17 19 20 21 22 23 21 19 20 20 19 22
16 18 19 16 16 19 19 23 25 25 26 26 24 22 21 18 15 13 10 9 7 6 5 5 6 8 10 13 14 18 20 21 22 22 20 20 21 19 18 19 21 21 20
18 19 18 17 17 20 23 26 28 30 27 23 22 20 18 15 14 11 8 7 8 7 6 6 7 10 13 14 14 17 20 21 19 22 20 22 20 20 19 20 20 22 22
19 21 20 20 23 25 27 26 28 29 27 24 20 17 16 13 10 8 8 7 7 6 6 6 7 9 10 12 15 18 19 18 19 17 18 17 17 17 19 20 24 23 23

GFSMW_925_spd_060.txt.gz
Wind_Speed
13 19 25 27 30 38 37 31 27 36 39 34 31 30 37 36 33 34 37 34 34 32 30 31 32 29 25 22 19 16 12 7 4 4 3 4 4 6 6 6 8 6 5
7 10 21 21 19 27 35 33 31 33 42 40 40 30 36 35 34 33 36 38 36 35 32 35 33 29 25 22 20 17 12 5 4 4 2 1 2 7 4 8 8 6 6
12 9 9 21 25 24 23 28 36 31 39 41 35 33 30 26 31 33 35 41 39 38 37 36 34 30 27 24 22 18 12 8 4 4 4 1 3 2 1 7 8 7 6
8 8 8 15 25 25 26 25 24 25 33 37 40 39 33 23 32 41 39 40 39 39 38 37 35 31 25 23 21 17 13 11 11 8 4 2 4 2 1 2 6 7 6
8 9 9 16 24 23 20 24 24 25 25 37 42 36 31 33 32 36 37 36 35 39 38 36 33 30 26 22 18 15 13 11 10 6 6 3 4 4 3 2 3 5 9
6 2 7 10 15 17 17 14 14 19 25 28 40 42 34 35 31 33 36 36 33 33 34 33 31 28 27 23 18 14 10 9 8 7 5 5 3 2 2 1 3 6 9
9 9 10 9 8 4 8 13 14 13 12 24 31 36 41 41 41 41 40 39 36 33 32 32 30 28 26 22 20 16 12 11 9 7 7 6 3 3 3 3 2 3 5
5 6 6 9 13 15 12 10 11 14 14 16 26 35 40 41 39 41 42 39 39 38 34 29 28 27 25 22 19 17 14 9 8 8 6 5 4 2 3 3 2 2 3
7 7 8 9 13 17 17 14 15 16 16 17 21 33 37 38 40 39 38 39 36 34 32 28 27 26 23 21 19 16 13 10 8 7 5 4 3 3 4 4 5 4 2
7 7 7 10 17 16 19 22 22 21 20 18 20 28 34 38 38 37 37 35 33 32 32 29 27 25 22 19 18 16 13 9 6 4 3 2 2 5 5 6 7 9 10
9 8 7 12 15 20 22 25 27 25 19 20 21 24 27 30 31 33 33 33 33 33 32 32 29 25 22 19 17 13 12 10 6 4 4 4 4 6 7 8 9 12 13
7 7 7 15 20 22 24 25 27 23 23 26 26 28 28 28 30 32 32 31 34 32 35 33 28 24 20 17 15 13 10 7 4 4 6 6 6 8 9 11 13 15 16
8 7 7 7 10 16 23 27 25 19 26 28 30 29 30 31 29 28 31 31 32 33 32 30 28 24 20 17 13 10 8 4 4 3 7 6 7 9 11 12 14 16 18
6 6 5 7 18 25 23 17 13 19 27 28 28 27 27 27 29 30 30 30 32 33 31 27 23 21 18 15 12 9 6 5 2 5 7 7 8 9 11 13 16 17 18
5 6 7 9 16 19 22 19 15 17 19 24 27 28 26 27 27 29 29 30 31 31 29 27 21 17 12 10 9 6 3 0 3 5 5 6 8 10 12 16 16 18 21
4 6 7 9 8 14 17 19 19 20 22 20 26 27 27 27 29 28 29 30 32 30 27 22 19 16 11 8 6 4 2 2 4 6 7 8 9 10 11 14 17 19 22
4 5 7 5 6 10 14 20 21 24 23 26 25 26 27 28 29 30 32 30 28 25 24 21 16 15 12 6 4 2 2 4 5 7 9 10 12 15 16 15 15 18 20
4 5 4 8 10 15 20 25 22 24 24 27 27 26 28 31 33 32 30 28 26 22 19 16 15 13 9 5 3 2 5 6 8 8 9 12 16 17 16 19 22 22 23
4 6 9 11 16 19 21 25 25 25 26 25 27 28 34 32 28 29 26 24 23 20 18 14 11 9 7 3 2 4 7 9 11 11 12 14 16 17 18 21 23 22 22
8 8 10 16 18 19 26 27 26 26 23 22 25 29 30 28 23 21 23 21 19 15 12 10 8 7 6 4 3 6 9 11 11 14 17 17 16 17 18 23 24 20 25
10 11 12 14 14 16 24 23 22 22 25 29 29 28 26 25 22 21 19 17 15 14 12 10 8 5 5 2 4 5 7 10 14 18 20 20 18 18 22 21 21 21 24
11 12 14 13 11 14 22 19 20 25 30 30 27 25 25 20 17 17 14 12 12 12 10 10 9 6 2 2 4 6 8 10 14 17 20 20 18 21 20 19 19 20 20
11 11 13 12 11 12 21 23 21 25 27 28 26 21 20 20 17 15 13 12 11 10 8 7 5 2 3 4 5 8 10 13 15 17 17 17 18 18 18 16 17 16 18
12 12 12 11 12 11 18 26 25 26 26 25 21 17 16 15 14 12 10 10 9 8 6 4 2 2 4 7 10 13 16 18 17 17 18 18 18 15 15 17 19 20 18
13 15 13 13 14 18 21 23 24 24 20 18 20 18 16 15 14 11 9 8 8 5 4 4 2 4 8 9 11 14 17 17 16 17 19 20 20 21 20 19 20 21 22
15 14 15 17 18 20 21 21 22 23 25 20 16 16 15 14 12 12 11 7 5 4 3 3 4 6 6 8 11 14 14 13 14 14 16 17 17 17 18 20 22 24 23

GFSMW_925_spd_063.txt.gz
Wind_Speed
12 16 23 20 23 25 24 24 28 32 35 32 30 29 36 36 34 36 35 34 34 34 32 31 29 29 29 29 25 20 15 11 9 7 4 5 6 7 8 10 9 8 8
9 8 21 24 23 22 25 25 27 30 36 36 37 28 37 36 41 38 37 37 37 36 35 34 33 33 33 30 27 24 18 9 11 5 3 1 3 7 8 10 11 11 8
13 9 9 23 26 23 22 18 19 28 35 38 32 29 25 28 35 36 35 38 39 38 38 38 36 36 37 35 30 26 21 13 10 10 4 2 4 3 6 10 12 10 10
7 7 7 14 24 26 23 22 23 21 29 38 35 35 30 23 34 42 43 38 37 38 40 39 38 39 38 35 30 25 21 17 12 7 8 5 3 3 1 4 6 9 10
5 7 8 16 20 18 19 20 20 21 21 34 39 40 32 29 35 40 40 38 35 36 38 37 36 39 36 29 27 24 21 17 15 10 7 5 4 4 3 3 3 9 11
8 7 12 16 15 12 9 12 14 17 20 24 36 36 33 31 30 34 34 37 35 36 38 38 36 36 34 30 26 23 21 18 15 14 13 10 4 4 3 0 1 5 7
9 9 10 10 19 21 18 13 9 14 12 20 29 39 34 36 39 38 40 42 39 37 39 39 37 33 31 28 25 23 20 18 17 16 13 9 6 6 6 4 2 2 3
7 8 8 12 18 22 20 17 15 15 12 11 18 27 35 37 38 36 39 43 42 41 40 37 34 31 28 26 23 21 18 16 13 13 10 8 6 5 4 4 4 1 3
7 8 8 13 19 22 24 22 21 20 18 17 15 20 26 32 35 34 35 34 37 37 35 33 31 29 27 26 24 21 17 15 13 11 9 5 6 3 2 3 4 4 2
8 7 6 12 16 18 21 25 26 27 26 21 18 19 22 27 31 32 32 33 34 34 33 31 30 29 27 26 23 20 17 14 12 9 8 6 5 4 3 4 6 9 9
6 6 6 12 14 18 22 26 28 29 28 23 20 20 21 24 27 28 29 29 31 31 33 31 31 30 28 26 23 19 16 12 9 8 6 5 5 3 4 6 7 10 13
6 5 5 10 14 18 23 26 28 27 26 19 19 20 20 21 24 25 25 25 27 28 30 30 29 29 26 22 20 16 12 9 6 5 6 4 2 4 6 9 10 13 16
7 6 6 6 13 18 20 25 26 21 18 17 19 17 17 20 22 21 22 24 25 26 27 29 28 25 23 20 17 15 12 8 4 2 6 3 4 5 7 10 12 15 17
4 4 5 5 11 13 16 21 19 6 9 14 17 17 16 17 19 21 22 24 26 27 27 27 27 25 22 19 15 12 7 4 3 4 5 5 5 5 7 11 13 16 18
4 4 4 4 6 10 17 19 18 17 14 15 17 21 21 20 22 25 25 25 27 28 29 30 28 22 19 16 15 10 5 3 1 3 3 4 6 6 7 12 14 16 19
3 3 4 5 6 13 12 14 19 20 22 23 24 23 27 28 27 28 30 30 31 33 32 29 26 22 16 11 7 7 5 2 1 2 4 5 5 8 10 13 15 16 19
2 3 5 5 9 14 9 15 16 22 25 25 25 24 26 29 27 29 30 30 31 31 28 24 18 17 14 10 8 4 3 2 2 3 5 7 9 12 14 14 14 16 18
4 3 5 7 10 12 12 12 17 24 24 25 27 24 25 30 28 31 31 30 25 25 23 19 14 12 10 10 8 5 4 1 4 6 7 10 14 14 15 17 19 19 20
4 6 9 10 10 12 12 14 15 17 22 26 23 22 26 30 33 32 30 27 24 20 19 13 15 13 11 6 3 2 2 6 6 7 10 13 14 16 16 18 19 21 22
7 8 10 12 13 10 11 12 13 14 15 17 22 27 29 31 29 29 26 23 21 17 14 11 12 9 8 4 2 5 5 5 7 10 14 14 13 14 16 19 21 20 25
10 11 11 12 11 9 13 15 14 15 17 24 29 31 30 30 27 26 21 20 16 15 13 12 10 8 6 3 2 1 4 7 10 15 16 16 14 15 18 18 19 19 21
9 10 11 11 12 11 15 17 16 17 23 27 30 28 27 25 26 22 17 14 15 15 13 12 10 6 4 1 1 3 5 9 13 15 16 16 15 18 17 18 17 17 18
9 8 11 12 10 12 12 19 18 25 27 27 26 25 22 21 17 15 13 13 12 11 9 8 5 2 0 2 3 6 8 10 13 14 13 15 16 16 16 15 16 15 17
9 9 10 11 10 12 15 22 22 22 24 25 24 21 18 15 12 11 11 11 9 8 7 5 3 1 4 5 7 9 12 13 12 15 17 16 15 14 13 15 16 16 16
11 11 11 9 11 16 19 21 22 22 23 21 18 17 15 14 13 10 8 8 7 4 4 3 2 3 5 6 8 10 13 13 14 14 18 19 20 20 20 19 19 20 20
12 12 13 14 16 17 17 20 20 20 20 18 16 15 16 14 13 13 13 8 6 4 4 3 4 4 4 7 8 11 11 11 13 13 16 18 19 19 20 20 22 23 22

GFSMW_925_spd_066.txt.gz
Wind_Speed
12 16 19 19 17 15 20 27 26 31 31 31 29 28 30 33 36 36 34 34 33 32 33 33 29 27 29 27 26 26 21 15 15 10 5 5 6 8 9 11 11 11 10
6 9 20 18 18 19 18 21 29 32 34 33 35 27 30 29 37 38 37 35 33 33 33 35 35 32 31 30 31 30 23 15 17 7 4 1 4 8 10 12 13 13 13
8 6 8 18 17 18 20 20 23 32 35 37 33 28 21 24 24 32 37 39 37 37 36 36 36 35 34 35 36 32 27 16 16 13 5 2 4 3 8 13 13 14 14
5 4 6 11 12 15 17 19 21 22 31 35 30 30 28 25 28 36 41 40 39 39 39 39 38 38 38 39 38 35 27 19 14 13 15 9 5 3 2 6 11 14 15
7 7 6 7 10 8 7 10 15 18 23 31 33 34 29 29 30 33 34 39 39 39 39 40 40 39 38 39 39 35 29 25 21 16 10 11 9 8 3 3 4 11 14
5 5 8 16 19 19 17 10 4 7 12 21 30 35 34 29 30 30 32 37 38 38 36 38 39 38 38 39 37 33 30 28 25 24 19 12 7 7 5 1 3 4 6
7 8 10 11 20 21 18 17 14 11 7 8 21 32 35 34 37 37 35 35 35 36 39 40 41 40 38 37 35 32 29 26 22 22 20 15 9 7 7 6 2 3 4
8 8 8 11 18 21 21 21 19 17 12 9 10 18 28 32 35 36 36 38 38 40 40 38 39 37 34 32 30 28 25 22 19 17 14 12 8 6 5 3 5 0 2
7 7 7 13 18 22 23 23 23 23 20 16 14 14 18 27 32 33 33 32 30 32 31 36 36 34 31 30 28 27 24 21 19 16 13 10 9 6 5 6 7 5 3
6 6 6 11 15 18 22 24 24 25 26 23 18 18 17 21 26 28 28 29 29 28 27 30 31 30 29 27 27 25 21 20 17 16 15 10 8 6 4 3 6 8 7
5 5 5 10 14 19 23 25 26 26 25 23 19 17 16 18 20 21 22 22 22 23 25 28 28 28 27 26 25 22 19 17 16 15 11 9 7 5 3 5 7 9 9
5 5 5 10 16 19 22 24 26 25 22 17 15 13 12 12 12 12 14 16 18 19 22 24 25 27 27 25 24 22 18 16 11 8 8 6 4 3 5 6 8 10 11
5 2 4 5 10 16 20 22 23 23 15 8 7 6 8 10 9 9 12 14 16 18 21 24 25 24 25 24 20 18 17 17 14 9 6 2 2 4 7 8 10 10 12
2 3 5 5 12 15 17 19 21 18 13 7 5 6 8 11 14 14 15 17 20 24 24 24 25 26 25 25 24 22 18 13 8 6 3 2 5 6 6 7 10 11 13
4 5 5 5 10 14 15 15 16 14 9 11 12 14 15 18 22 22 21 22 23 25 28 30 31 29 27 22 18 14 11 7 5 3 0 4 6 4 3 6 11 13 15
1 4 4 4 4 7 7 10 15 14 13 17 19 21 23 24 26 27 28 28 28 27 29 30 30 27 24 18 13 11 11 6 3 2 3 2 4 5 7 10 12 11 15
3 3 4 3 4 7 5 10 12 11 14 19 19 21 24 27 26 26 29 30 33 34 33 30 26 24 18 13 11 6 5 4 3 2 1 3 6 10 12 12 11 12 14
3 3 3 4 6 8 9 10 9 12 12 15 17 18 23 26 24 24 28 29 35 32 29 25 22 20 17 12 9 10 8 4 3 3 5 8 11 12 12 14 15 14 16
4 5 5 6 8 8 10 13 14 12 12 11 9 11 21 28 26 29 28 27 29 27 24 21 19 15 13 9 8 7 3 4 4 5 8 11 12 13 12 15 15 18 22
8 8 8 11 10 9 11 13 14 12 11 10 12 17 21 28 28 27 27 25 26 25 21 18 15 12 13 8 4 1 1 2 5 8 10 11 11 12 14 17 20 19 24
8 10 9 11 8 8 10 12 12 14 13 15 18 20 23 27 27 27 25 24 22 19 16 16 12 11 9 8 6 5 5 7 8 11 13 14 12 14 17 17 18 19 19
9 9 10 11 8 8 11 14 14 14 16 19 22 24 25 26 25 24 18 18 17 17 16 14 12 9 6 5 5 5 7 8 11 12 14 14 15 16 15 15 14 14 15
10 11 12 11 9 9 12 16 15 17 20 21 21 22 22 20 19 18 15 15 13 13 12 9 7 5 4 5 5 6 7 9 11 12 11 14 14 14 15 13 13 12 14
10 13 12 11 10 10 12 17 20 21 22 20 20 20 19 15 12 12 11 11 10 9 8 7 5 5 5 5 6 8 10 11 11 13 14 14 14 13 12 13 13 14 15
11 12 12 11 11 14 18 18 20 20 21 19 18 16 15 14 14 12 10 8 7 5 5 6 5 4 4 5 6 8 11 11 12 11 15 16 17 18 18 18 17 18 19
14 12 13 15 16 17 18 18 18 19 19 18 16 15 14 13 12 13 14 10 9 7 7 6 5 3 3 5 6 8 9 9 10 11 13 16 17 18 18 18 21 21 21

GFSMW_925_spd_069.txt.gz
Wind_Speed
14 21 21 17 18 20 20 25 26 27 26 27 23 26 30 29 33 34 33 32 32 33 33 32 30 31 29 28 25 25 22 17 18 11 7 7 9 10 12 14 14 14 14
5 10 15 14 16 20 21 22 28 29 28 25 30 24 26 28 31 31 36 35 34 34 33 36 37 36 32 30 31 30 25 19 21 8 4 3 5 11 13 15 16 16 16
10 8 8 12 14 18 22 23 23 27 30 30 26 23 18 22 19 29 32 38 38 36 36 37 38 38 36 35 35 34 32 24 24 17 6 2 4 2 10 16 17 17 17
3 2 4 5 6 13 17 20 21 22 26 30 26 26 25 24 29 28 31 31 39 40 39 39 39 38 39 38 38 36 37 32 23 21 19 11 6 3 2 8 16 17 18
5 7 7 11 13 10 1 8 14 20 20 22 27 27 27 25 25 26 25 27 37 40 43 42 42 41 40 41 39 38 40 37 28 26 16 19 14 12 5 3 6 14 16
5 5 7 11 13 14 15 12 4 3 9 16 22 26 26 26 24 31 31 31 35 36 39 41 43 43 42 42 42 40 42 41 32 31 23 15 6 7 6 2 2 5 10
4 5 6 9 12 15 15 12 11 8 6 3 9 22 24 26 30 29 29 29 33 34 38 41 42 43 43 42 41 40 40 41 35 29 28 20 16 9 12 4 5 5 3
4 5 6 8 11 14 16 16 15 12 10 8 6 7 19 21 26 32 34 34 35 36 35 38 39 38 37 36 36 35 35 34 29 23 21 21 16 14 12 9 5 2 1
5 6 8 11 13 16 17 19 19 17 14 13 13 12 12 16 25 26 30 31 30 29 28 29 33 33 31 30 29 30 30 27 24 21 17 15 14 12 12 9 10 3 2
5 5 5 8 11 14 16 17 17 18 18 17 15 15 15 16 18 22 24 24 24 23 22 22 26 28 27 27 27 26 26 25 19 16 17 13 9 6 3 5 4 5 2
3 3 3 5 9 12 15 16 18 19 19 16 14 14 15 15 15 15 15 14 15 16 16 18 21 23 24 23 25 25 22 21 21 18 16 13 11 5 4 2 1 4 5
2 1 1 4 7 11 14 16 17 17 17 14 10 8 8 9 7 7 7 7 9 11 14 17 20 21 23 24 23 23 22 23 22 18 16 13 9 4 3 2 7 8 10
1 1 1 3 7 9 12 16 18 18 16 13 9 6 3 1 2 4 6 8 10 12 13 17 21 23 24 25 25 26 25 21 18 13 10 8 6 4 6 8 9 10 9
3 1 2 4 8 9 14 16 17 16 13 12 9 7 6 7 9 11 13 15 16 17 19 20 22 25 28 29 29 26 22 18 14 13 11 8 7 5 7 8 6 8 9
2 1 2 3 7 10 12 13 15 16 15 14 15 15 14 15 17 18 19 20 20 20 21 25 25 27 27 26 27 25 23 19 14 9 5 1 2 3 7 5 7 10 8
3 3 4 5 7 9 10 12 14 16 16 19 17 17 17 19 21 21 22 22 23 25 26 28 29 28 28 24 22 20 17 13 9 7 4 4 3 4 5 6 9 8 8
3 4 4 6 7 9 10 11 10 13 18 18 14 15 17 20 21 22 26 26 25 26 29 30 28 27 21 17 16 16 14 11 8 7 5 2 3 5 7 8 7 8 9
4 4 5 8 7 6 8 8 8 13 17 16 14 13 14 18 17 20 27 27 25 25 24 27 26 24 19 17 17 16 14 12 9 5 2 2 5 7 8 9 10 10 12
4 6 8 9 8 7 10 11 10 13 13 16 14 14 15 17 18 24 27 26 29 27 24 24 22 21 18 15 15 13 10 8 5 2 2 4 8 8 9 11 11 12 17
7 9 10 9 8 7 8 12 11 12 13 14 17 15 17 20 22 25 26 26 26 24 22 21 18 16 15 11 9 8 5 4 3 4 7 8 8 9 10 12 12 11 15
9 9 8 9 8 8 9 13 12 16 15 16 18 17 20 22 22 24 23 24 23 21 18 17 15 14 12 10 8 4 4 5 7 7 7 9 8 11 11 10 10 10 13
9 9 10 9 9 9 13 16 16 15 18 19 21 22 21 21 23 23 20 18 18 18 16 16 13 12 10 7 6 5 6 6 6 6 8 8 10 11 11 10 10 10 10
10 9 11 10 8 10 13 19 17 18 22 23 23 22 20 20 19 17 15 14 14 15 13 10 10 8 6 5 5 5 6 6 5 7 6 10 11 11 11 9 9 8 9
10 13 11 10 10 10 15 19 20 19 21 22 21 19 18 15 13 13 12 12 11 11 10 8 7 6 5 5 4 6 8 8 9 9 10 10 10 10 9 9 8 8 8
11 13 12 11 10 13 17 18 20 20 19 18 18 16 14 14 14 12 10 10 8 6 8 8 7 5 4 4 4 5 6 7 8 8 11 12 11 10 10 10 10 11 10
15 12 14 16 13 15 18 19 18 18 20 18 16 15 15 15 15 17 17 11 10 9 9 7 5 4 3 2 3 5 6 7 7 8 7 8 8 8 9 10 12 13 13

GFSMW_925_spd_072.txt.gz
Wind_Speed
14 14 14 14 15 16 17 18 20 21 20 22 21 22 26 27 23 22 21 22 23 24 25 24 23 24 24 23 22 20 19 15 14 11 9 9 10 11 12 13 14 14 13
12 11 13 13 14 14 14 16 18 21 21 21 21 19 18 21 24 23 24 23 24 26 28 28 27 27 25 25 24 23 19 16 18 12 9 4 8 14 15 14 15 15 14
13 13 12 13 12 14 15 15 18 19 23 24 21 19 16 15 16 26 32 33 27 28 30 29 28 26 27 28 28 27 23 20 19 20 9 4 6 6 11 16 16 16 15
5 5 6 8 9 12 12 14 15 18 19 23 25 25 23 23 24 22 22 25 30 29 29 28 29 29 29 29 31 29 28 22 20 17 20 10 1 4 3 7 14 14 15
6 8 7 7 6 4 2 8 11 13 15 17 23 24 26 24 25 22 22 23 25 32 30 27 28 30 30 31 29 28 30 30 24 23 12 17 11 8 5 3 5 10 13
7 7 7 7 8 8 8 6 2 4 8 13 17 23 24 25 22 24 24 24 23 27 27 29 28 30 29 29 31 29 30 29 26 23 19 17 8 14 11 6 5 5 6
6 5 6 6 8 8 8 6 5 2 1 3 10 18 23 25 25 26 22 20 21 24 27 27 30 29 28 26 25 25 27 31 28 24 20 22 17 10 11 8 5 2 2
5 4 5 5 6 6 7 7 7 7 7 6 6 7 12 20 24 26 25 22 22 22 21 23 27 30 27 26 23 23 25 26 27 22 23 24 18 11 7 5 5 1 1
3 3 4 5 6 7 7 7 8 8 9 9 10 11 11 12 17 21 22 26 22 21 16 17 23 26 28 25 24 23 20 19 18 22 24 20 16 12 8 5 7 4 2
2 3 3 5 7 8 9 9 9 10 10 11 10 11 12 12 12 13 16 15 22 22 20 19 18 20 24 25 24 22 21 22 18 17 13 16 17 17 12 8 7 6 5
1 1 3 5 6 8 10 10 11 11 11 11 10 9 9 10 10 9 8 9 13 14 13 13 14 16 18 21 22 21 21 20 19 15 16 15 10 15 14 12 8 7 3
1 1 2 3 5 7 8 9 11 11 11 11 9 7 5 4 3 3 4 5 6 6 6 7 8 10 12 16 19 21 20 22 22 21 20 20 15 10 10 6 4 3 5
4 3 1 1 4 6 6 9 10 11 10 9 8 8 7 5 3 2 2 3 5 5 6 7 8 11 14 16 18 22 25 24 24 24 20 17 14 9 8 6 4 4 5
7 5 4 3 1 2 4 8 10 11 10 9 9 9 9 9 9 9 10 10 9 11 12 12 13 13 15 18 21 24 27 27 24 19 16 12 9 6 4 3 5 4 6
7 6 5 3 2 2 4 8 9 10 9 10 11 12 12 12 12 14 14 14 14 14 14 17 18 19 19 20 23 24 22 22 20 16 13 10 7 4 4 3 4 6 7
6 5 5 4 3 4 6 7 8 9 9 10 12 13 15 14 16 17 17 19 18 20 20 23 24 23 23 17 18 19 19 16 15 13 10 8 6 5 4 5 7 8 10
8 7 6 5 5 5 6 8 8 9 10 11 12 14 15 18 16 15 17 18 20 24 25 24 24 23 20 17 14 14 16 13 10 10 8 6 4 2 4 5 7 9 10
8 8 8 7 6 5 7 8 8 12 9 10 14 12 13 15 15 15 18 20 25 28 27 25 24 23 19 17 14 13 15 11 8 7 5 3 1 2 4 5 8 9 10
6 8 9 8 7 7 7 8 9 9 9 10 11 11 12 18 17 21 24 23 26 26 25 24 22 21 17 15 12 10 9 7 5 4 4 3 3 4 5 7 7 11 12
10 10 10 9 8 7 7 8 8 10 9 9 11 14 17 22 24 25 26 25 25 26 25 24 19 15 12 8 9 8 6 3 3 2 1 2 3 4 6 8 10 11 12
10 11 9 9 8 7 7 9 9 11 10 12 16 19 21 24 25 25 23 24 23 19 16 16 14 11 9 7 6 5 3 2 3 2 2 3 5 7 8 7 8 9 12
10 9 10 9 7 7 9 11 12 12 15 18 21 22 20 21 21 21 19 15 13 14 12 11 10 8 7 6 5 4 4 3 2 3 4 4 8 8 8 7 7 8 9
9 10 11 10 8 9 11 14 15 17 20 23 21 19 18 15 14 13 13 12 10 10 9 7 6 5 3 3 2 3 3 3 3 4 4 8 8 8 7 6 7 7 6
10 11 11 11 11 10 12 14 15 16 18 21 18 15 14 13 11 10 9 9 8 7 6 5 4 4 3 1 1 3 4 5 5 5 6 7 7 7 6 6 5 5 6
11 12 12 13 13 14 14 14 15 16 17 16 15 13 12 11 10 9 6 6 5 4 5 4 4 3 2 0 2 3 5 5 6 6 6 6 6 6 6 5 5 6 6
14 13 13 14 15 16 16 16 16 16 16 15 12 11 11 10 9 9 10 9 8 7 6 5 4 2 1 1 1 3 4 5 5 5 5 6 6 6 7 7 8 7 7

GFSMW_925_spd_075.txt.gz
Wind_Speed
16 19 20 20 15 17 18 18 18 20 21 19 21 22 26 22 18 19 18 18 19 21 23 23 22 23 24 22 21 19 19 18 16 13 11 11 12 13 15 15 16 16 16
15 15 15 15 17 19 19 20 20 20 20 20 19 18 19 22 26 20 19 21 22 24 26 26 25 25 23 23 24 23 20 19 19 15 12 4 10 17 18 17 17 16 16
15 14 13 15 14 16 16 17 18 19 21 21 17 17 17 14 18 26 30 30 24 26 28 28 26 25 26 26 27 26 26 21 22 24 9 4 5 10 15 18 17 16 16
15 10 12 13 11 11 12 13 15 16 18 19 22 22 21 19 21 20 20 25 25 27 28 28 28 27 27 28 29 29 29 25 22 20 26 16 2 3 3 10 16 16 17
8 6 4 3 1 2 6 10 12 13 14 15 20 22 23 20 20 19 20 19 21 27 26 27 29 30 29 28 29 28 31 30 24 26 12 20 16 11 3 3 6 13 15
7 7 7 7 7 5 4 3 3 8 10 13 15 18 21 21 20 20 20 20 18 19 24 31 29 31 29 28 28 27 28 30 28 24 23 20 11 15 8 3 5 7 11
9 8 7 7 6 6 6 5 5 2 2 5 10 15 18 21 21 21 20 19 18 18 21 22 28 30 31 30 28 27 27 29 28 28 25 22 21 14 18 10 3 3 5
8 7 6 5 6 6 6 6 6 5 5 5 6 8 10 15 19 21 20 18 17 18 18 20 22 27 29 30 30 28 28 26 27 25 20 18 17 17 14 12 12 2 3
7 6 5 5 5 5 6 7 7 7 7 8 8 9 10 11 12 15 17 19 22 21 18 17 19 20 24 26 29 30 27 24 21 21 21 16 12 11 7 5 8 4 3
5 5 4 4 3 4 5 7 8 9 9 10 10 10 10 10 11 10 12 13 15 16 19 17 14 16 20 23 25 25 23 24 23 23 21 16 13 11 8 7 7 8 4
5 4 4 3 3 4 6 7 8 9 9 10 10 9 8 8 8 8 8 6 8 10 12 12 10 10 10 12 16 18 19 19 18 15 16 16 18 15 14 11 7 9 11
3 4 3 3 3 5 7 8 8 8 8 8 8 8 7 6 4 4 4 3 3 4 4 4 4 4 6 9 12 14 14 15 16 18 19 18 16 13 12 12 9 8 8
5 5 4 2 3 6 6 7 7 7 7 7 8 9 8 7 7 6 6 6 6 7 8 7 7 5 4 5 7 9 11 13 14 17 17 18 17 16 13 11 8 5 4
6 6 4 3 3 4 3 4 6 7 7 8 10 11 11 11 10 10 10 10 9 11 11 13 12 12 11 11 11 13 15 18 17 15 13 14 12 12 9 7 5 4 3
7 6 5 3 2 1 2 4 6 7 8 9 11 11 11 11 12 14 15 15 16 16 15 16 15 15 14 14 15 17 17 17 18 14 12 10 8 8 6 5 3 3 2
9 7 5 3 2 2 3 4 5 7 8 11 11 11 12 14 16 18 19 20 21 19 19 21 22 23 20 17 18 17 16 15 14 14 10 11 8 6 4 1 2 1 2
7 8 7 7 6 4 4 4 6 7 9 8 11 11 12 15 15 16 18 19 21 21 23 23 22 23 21 17 16 14 15 12 12 12 8 8 3 3 1 3 4 5 6
8 7 8 9 7 6 6 7 7 7 8 10 12 10 10 13 15 16 21 22 23 24 24 25 25 24 19 16 16 14 13 11 9 7 5 5 4 4 3 4 6 7 8
7 8 9 10 8 6 6 7 7 8 7 10 10 9 11 15 16 19 20 21 23 24 23 21 20 20 18 16 13 11 9 8 6 5 7 5 3 3 5 6 8 9 9
9 11 11 10 9 7 6 7 6 7 7 8 9 10 16 20 21 21 22 22 22 23 22 19 16 13 13 10 9 8 9 8 6 3 2 4 4 5 6 8 9 11 9
10 11 10 9 7 6 6 7 8 8 8 10 12 15 19 22 23 22 22 20 16 16 15 14 12 11 10 9 9 8 6 4 3 2 2 2 5 7 8 8 8 9 11
10 9 9 8 6 6 9 10 11 10 11 14 17 17 17 18 19 18 16 12 11 11 11 11 10 8 8 7 6 6 6 4 3 3 4 5 8 9 9 8 7 9 9
9 9 10 9 7 7 8 14 12 14 17 18 15 16 16 15 14 12 11 10 9 9 8 7 6 6 5 3 3 3 5 5 4 3 6 8 8 8 7 5 8 7 5
10 11 11 10 9 9 11 13 14 17 16 14 14 15 14 13 11 10 8 8 7 6 6 5 5 5 3 2 2 3 4 6 5 6 7 9 8 8 7 7 5 5 6
11 11 11 11 11 12 14 15 16 17 17 15 15 14 13 12 11 10 6 6 6 5 5 4 4 3 3 1 1 2 4 5 5 8 6 7 7 7 5 6 6 7 7
13 12 12 13 14 15 16 17 18 18 18 16 14 13 12 11 10 10 9 7 6 5 5 6 4 2 2 0 1 4 4 6 6 6 6 7 6 6 6 6 7 7 8

GFSMW_925_spd_078.txt.gz
Wind_Speed
8 16 21 17 12 14 12 16 23 28 26 24 22 22 22 19 18 19 20 21 23 26 27 28 25 26 26 26 25 24 21 22 19 18 13 14 17 19 20 21 22 22 22
7 6 10 14 16 18 16 14 16 17 26 28 27 23 21 25 24 18 22 23 26 26 29 30 30 28 28 27 27 27 26 23 22 18 12 2 10 23 24 23 23 24 23
6 6 8 10 6 8 11 14 19 17 18 16 21 21 15 16 18 29 29 25 24 27 28 31 31 30 29 31 31 31 31 27 27 27 12 3 5 5 16 28 25 23 24
3 1 4 6 4 3 7 8 5 15 15 19 14 24 24 19 24 27 26 29 31 25 25 30 30 30 30 31 33 32 34 27 28 29 33 21 3 3 1 12 24 24 22
4 3 7 9 8 2 3 9 12 10 11 11 16 16 20 25 24 22 21 20 21 25 31 22 28 30 31 30 30 31 31 35 28 29 23 32 22 16 3 3 8 20 24
8 8 10 9 9 7 5 1 6 12 11 12 14 14 14 14 12 22 21 17 16 18 20 23 29 28 30 31 28 30 32 33 36 31 31 26 14 16 9 2 3 9 15
8 7 7 9 10 8 7 6 7 6 2 2 6 11 15 16 15 13 13 17 18 16 17 19 22 27 28 30 32 30 27 30 34 36 30 33 28 20 23 14 3 2 2
7 8 8 12 11 9 7 7 6 5 3 3 4 4 5 9 13 14 12 13 13 20 19 19 19 18 21 23 27 30 33 32 28 31 26 23 26 28 18 14 12 2 3
7 8 8 12 11 9 7 7 7 6 6 7 7 7 7 7 8 9 11 9 10 14 14 14 16 17 17 19 22 25 28 29 29 28 27 23 20 19 18 15 13 7 3
8 7 7 11 10 9 7 7 8 8 7 6 6 7 7 7 8 8 8 7 6 10 13 12 8 11 12 14 17 21 21 23 22 21 21 20 17 13 11 10 9 10 11
8 7 7 11 9 8 8 9 9 9 9 9 9 7 7 4 4 3 2 4 4 6 7 8 8 8 7 8 9 10 9 10 11 11 12 11 10 8 6 7 7 8 8
8 7 8 10 10 9 9 10 10 9 9 9 9 9 9 8 7 6 5 5 3 1 1 2 3 2 2 3 4 5 5 6 7 8 7 8 9 8 7 7 7 8 9
7 7 6 7 9 9 8 9 9 10 9 8 7 8 10 10 9 8 6 9 11 10 9 7 5 5 5 5 5 4 5 6 6 7 8 10 10 11 9 6 9 6 7
8 7 7 7 9 8 9 9 9 8 7 7 9 10 10 9 9 9 9 9 9 9 9 9 9 9 9 9 9 10 11 12 14 14 13 12 10 8 9 6 5 3 3
8 7 7 6 8 9 9 9 9 9 7 9 10 11 10 11 12 14 14 15 15 15 15 16 16 15 14 13 13 15 18 19 19 16 16 12 9 7 8 6 3 2 2
9 8 8 8 7 9 8 8 9 8 7 9 11 12 13 14 14 15 17 18 19 19 20 21 21 22 21 17 18 19 20 19 17 16 15 12 10 8 5 4 4 2 3
9 10 8 8 8 9 9 9 10 8 9 11 11 13 15 15 14 16 18 19 20 21 22 23 23 23 19 17 16 16 16 15 14 13 11 9 5 3 3 3 2 2 2
7 8 9 13 11 9 9 10 8 9 10 10 11 10 12 14 16 18 19 20 21 22 23 23 22 22 17 17 16 16 16 16 13 10 8 5 5 6 4 3 4 3 5
7 10 15 14 11 10 11 11 10 10 10 10 9 7 12 15 17 19 20 20 22 22 21 19 21 21 17 14 13 13 12 11 9 8 8 5 4 3 4 5 5 6 5
14 15 15 13 11 9 10 11 12 12 10 9 9 11 14 17 18 20 22 22 21 21 19 18 16 14 16 12 12 11 10 9 8 6 4 4 3 5 6 7 7 7 6
12 14 13 11 11 8 8 13 12 13 11 12 14 15 17 19 20 22 21 21 20 18 16 15 13 11 11 11 10 7 6 5 4 3 1 3 4 6 6 6 7 6 8
11 12 13 11 8 9 11 13 13 12 13 17 18 19 20 19 20 19 18 16 15 15 14 14 13 9 8 6 7 7 6 4 2 2 1 3 6 7 7 7 5 7 7
12 12 12 11 9 10 12 15 15 15 17 21 19 17 18 19 18 15 14 13 12 12 11 10 9 7 4 3 2 4 4 5 1 2 6 5 6 6 6 3 6 5 3
12 15 15 14 12 10 11 15 16 18 20 19 18 18 19 16 12 12 11 11 11 11 10 9 8 6 6 2 1 1 1 1 1 5 7 6 6 6 6 5 5 4 6
15 16 15 14 12 13 14 16 19 19 20 18 17 17 14 16 14 11 9 12 10 9 9 8 8 8 7 4 3 3 3 4 5 7 4 5 4 5 5 5 5 5 6
15 14 14 16 16 15 16 17 18 20 19 15 15 16 16 16 15 13 12 8 9 8 8 8 7 6 4 3 3 3 3 4 5 6 4 4 5 5 6 6 7 7 7

GFSMW_925_spd_081.txt.gz
Wind_Speed
7 19 24 20 30 25 20 26 31 28 24 30 25 21 19 20 23 24 23 23 25 26 28 28 26 27 27 28 27 27 25 24 23 19 17 19 21 24 24 24 24 25 23
7 10 18 25 24 27 29 25 24 27 28 26 32 31 28 23 20 23 25 27 27 28 29 30 30 29 29 28 29 29 28 26 25 15 5 2 9 24 27 27 28 26 26
9 7 11 17 20 20 23 22 24 21 28 27 25 23 22 25 25 26 25 26 26 30 32 32 32 32 31 32 33 33 32 27 26 29 12 2 5 3 15 32 31 31 29
4 3 9 13 11 12 13 13 11 12 14 23 28 28 25 20 27 28 33 34 29 23 25 33 34 34 36 34 35 34 35 32 29 28 35 23 4 4 2 8 26 29 29
7 6 7 13 10 8 7 7 8 6 6 8 15 23 24 24 22 23 24 24 23 25 29 24 24 28 34 34 33 34 34 37 30 32 26 32 22 12 3 3 4 22 23
8 8 12 12 11 7 3 2 5 6 9 9 4 6 9 12 10 17 24 24 22 20 19 19 20 25 26 27 31 30 31 35 38 31 35 29 15 17 6 2 3 4 7
8 8 8 10 12 11 10 9 9 8 3 4 7 6 5 6 7 9 7 14 19 18 17 18 18 18 22 24 24 26 27 23 28 32 34 35 35 25 22 17 4 4 5
7 7 7 12 12 10 10 9 8 6 2 0 2 3 3 4 4 5 8 7 5 14 17 18 18 14 13 16 18 21 24 27 30 27 29 32 32 32 28 21 12 1 2
8 8 9 13 12 10 9 8 8 6 3 2 0 1 3 3 3 3 3 5 5 5 7 10 10 14 13 14 16 17 19 20 23 23 26 27 22 21 23 18 16 11 4
8 8 8 14 13 11 10 10 8 7 4 2 1 1 1 2 4 5 4 4 3 4 5 8 8 9 12 15 13 14 15 17 17 16 15 14 12 10 8 7 7 7 8
8 8 8 15 14 12 10 9 8 6 5 5 5 3 2 1 1 1 3 2 2 3 4 5 6 7 6 7 8 8 8 8 6 5 6 5 5 5 4 4 4 5 6
8 8 11 15 14 12 11 10 9 9 7 6 7 8 7 6 6 6 4 4 4 4 4 5 5 4 4 5 4 3 3 3 3 3 3 4 4 5 5 6 6 5 4
8 7 8 10 13 12 10 10 10 9 7 7 7 7 6 6 5 5 7 6 7 6 5 5 4 3 3 3 3 3 4 4 4 4 6 8 8 9 8 7 8 5 5
9 7 7 8 12 11 11 10 10 7 7 7 8 8 7 6 7 6 7 7 7 8 8 8 8 8 8 8 8 8 9 10 10 11 11 11 10 10 9 8 7 6 6
9 9 8 6 13 13 12 11 10 7 7 9 9 9 8 8 9 11 11 12 12 13 14 15 15 15 13 12 12 13 15 15 16 17 15 12 11 10 8 7 8 6 5
10 10 10 10 13 15 13 13 10 8 8 10 10 10 11 12 13 14 15 16 17 17 18 18 18 19 17 14 15 17 19 18 17 17 15 13 12 10 7 5 4 3 4
11 12 11 11 16 16 15 14 11 9 10 11 12 12 12 13 14 15 17 18 19 20 21 21 21 21 18 16 16 16 16 14 14 14 11 9 7 5 4 3 2 1 2
10 10 10 15 16 16 16 15 12 11 12 12 12 12 12 13 14 17 18 20 20 20 21 22 22 21 18 15 15 15 16 14 13 11 9 8 7 6 4 1 0 1 2
6 11 17 18 17 16 16 15 14 13 12 12 11 10 12 14 14 17 19 19 21 20 20 20 21 21 17 15 14 14 13 12 11 9 6 5 5 3 2 2 2 2 2
13 15 17 17 16 15 16 15 15 14 12 11 11 12 13 15 17 19 21 22 21 22 20 19 17 16 16 12 12 11 10 10 8 7 6 4 2 2 3 5 4 4 3
12 14 15 15 15 11 16 17 16 13 11 11 13 15 16 18 19 21 21 21 21 19 17 16 14 14 13 12 10 8 7 6 5 3 1 0 2 4 5 4 5 3 5
11 13 14 14 12 11 17 17 16 13 13 15 17 18 19 20 20 21 20 19 19 18 16 16 13 11 10 9 9 7 6 3 2 1 2 4 6 6 6 5 3 4 4
12 13 14 12 10 11 15 16 16 15 16 19 20 22 21 20 19 20 18 17 15 15 15 13 11 9 7 6 4 4 4 4 2 1 4 5 6 6 6 3 4 3 2
12 14 14 13 12 12 13 14 18 17 20 21 21 21 21 21 16 14 14 14 14 14 12 11 9 8 6 4 4 2 2 3 3 5 8 5 5 4 5 3 3 2 2
14 17 16 15 15 14 14 16 19 21 20 19 20 19 20 18 14 13 13 13 11 10 12 10 9 10 9 7 4 3 3 4 4 6 5 3 3 5 4 3 3 3 3
17 17 17 18 17 16 16 19 21 22 21 18 18 21 18 18 16 15 13 10 8 8 9 8 9 8 7 7 5 5 4 4 3 6 4 4 5 5 5 5 5 5 5

GFSMW_925_spd_084.txt.gz
Wind_Speed
9 11 19 27 26 25 27 27 29 27 30 26 24 25 23 24 25 25 24 24 26 25 26 27 26 25 26 26 26 26 25 24 18 18 18 20 21 24 24 25 26 27 27
5 10 16 22 26 29 28 29 29 28 28 32 29 25 25 23 27 27 27 27 27 27 28 29 29 28 28 28 28 29 28 26 22 13 3 2 11 26 29 28 29 29 28
11 6 10 20 24 24 30 29 29 30 30 27 27 27 21 24 23 25 29 30 30 29 29 30 29 29 30 31 31 31 30 27 24 27 12 1 5 3 10 28 32 29 28
5 2 2 10 22 22 25 28 27 28 28 29 26 26 27 25 30 29 27 26 26 28 29 31 33 33 32 34 34 32 32 32 28 23 31 25 9 4 3 5 12 26 27
9 7 8 9 12 14 16 16 18 18 20 25 25 25 26 25 26 23 25 25 28 29 27 25 29 32 32 34 36 34 32 33 30 30 23 30 17 9 4 5 5 7 18
6 7 11 13 12 11 11 12 14 13 12 12 15 19 22 23 20 20 21 22 21 20 22 23 25 28 25 28 31 34 35 31 30 27 28 26 13 17 11 3 6 6 7
10 10 8 10 11 9 8 9 10 12 10 11 11 11 13 14 15 14 12 12 20 24 21 20 21 19 18 18 20 21 23 24 25 29 33 34 31 29 24 17 6 6 9
8 9 9 14 14 12 11 10 9 9 7 6 6 7 7 8 10 11 12 11 10 14 21 21 20 19 20 20 16 14 16 18 21 24 26 27 29 31 30 21 11 2 5
8 9 9 16 16 13 11 10 8 7 5 4 3 4 5 6 7 7 10 11 12 10 11 17 20 19 16 13 12 16 17 19 17 14 15 19 22 22 22 23 20 12 3
9 8 8 16 15 14 12 10 8 7 4 2 1 1 2 4 5 5 6 7 8 8 9 10 13 14 14 14 17 16 15 13 11 8 8 8 9 10 10 9 9 9 8
8 8 8 16 16 14 11 9 7 5 4 2 2 1 2 3 3 4 5 6 6 6 7 8 8 8 8 8 9 8 7 6 3 2 2 3 3 3 3 3 3 4 5
7 7 10 15 14 13 10 8 6 5 4 4 3 4 4 3 3 4 5 5 4 4 5 5 5 5 5 5 4 5 3 3 4 5 6 7 6 6 5 5 6 5 3
8 7 7 10 13 12 10 9 8 6 5 5 4 4 4 4 4 6 7 8 8 8 7 6 6 5 4 5 5 4 5 5 5 5 5 7 7 8 9 8 9 7 7
10 7 6 7 13 12 12 10 9 6 6 6 6 5 5 5 5 5 6 6 6 6 6 6 6 7 7 8 9 9 10 10 10 11 11 10 10 11 10 9 9 8 8
8 9 8 6 14 15 12 11 10 7 7 7 7 6 6 6 7 8 8 9 9 10 11 12 12 12 11 11 12 13 15 15 16 15 14 13 11 9 8 7 8 6 5
10 9 9 10 14 18 16 13 10 9 8 8 8 8 8 9 9 11 12 13 14 14 14 15 15 16 16 13 13 14 16 16 16 17 16 15 13 11 9 8 7 4 3
9 10 11 13 18 20 18 16 13 11 10 10 10 10 11 11 11 12 14 16 17 17 19 19 19 19 17 15 15 14 16 16 15 14 12 10 9 7 6 5 4 3 2
9 9 11 16 20 18 17 15 13 12 11 11 12 11 11 12 13 15 17 18 18 19 21 20 20 19 15 14 14 14 15 15 13 11 10 9 8 7 4 2 1 1 2
4 11 18 20 19 20 18 16 14 13 13 12 12 12 12 13 13 15 16 16 17 19 19 19 19 18 15 13 13 14 14 13 12 10 8 7 7 5 3 2 2 3 3
11 16 20 19 19 19 19 17 16 15 14 14 13 12 13 14 16 16 18 18 19 20 19 20 17 15 14 11 10 10 11 11 9 8 8 5 3 2 2 5 3 4 5
11 15 17 17 18 19 19 17 17 16 14 14 13 13 14 15 17 18 18 20 21 20 18 18 15 14 11 8 7 6 6 5 6 5 3 2 1 3 3 4 5 3 4
10 12 14 16 16 18 20 18 18 15 14 14 15 15 16 18 19 20 19 20 20 19 17 16 14 12 10 9 7 5 3 4 3 2 1 1 3 3 3 4 3 3 6
8 12 14 15 12 13 19 20 17 16 16 16 18 18 19 19 20 22 20 20 18 17 16 14 13 11 9 8 5 5 4 2 1 1 2 3 4 5 5 3 3 4 4
11 13 13 13 13 13 15 17 19 18 18 19 20 21 21 21 20 20 20 18 17 15 14 13 12 11 9 8 7 5 4 4 3 4 6 5 4 3 4 4 5 5 4
12 15 15 15 15 13 14 15 18 20 21 20 19 19 19 20 20 18 17 15 13 14 14 13 12 13 11 9 7 5 5 5 4 6 6 4 4 4 4 4 4 4 4
14 15 15 15 15 16 15 17 20 21 21 19 19 20 18 22 20 18 14 12 11 12 11 9 11 11 8 8 8 7 6 5 4 7 6 5 5 6 6 6 6 6 5

GFSMW_925_spd_087.txt.gz
Wind_Speed
9 8 15 21 24 23 28 32 29 26 25 27 29 28 31 27 27 27 27 26 25 27 28 26 26 24 24 24 24 24 24 24 20 16 19 21 22 23 26 26 26 26 25
7 9 12 17 24 27 28 29 33 31 29 31 32 28 28 26 25 25 26 25 24 25 27 27 29 28 27 26 26 26 26 24 21 10 3 3 8 20 27 28 28 28 26
9 8 12 14 23 25 28 29 30 32 33 33 30 24 23 25 25 27 28 27 26 28 30 29 29 29 29 29 28 27 28 26 21 23 10 1 4 3 5 11 23 29 26
5 6 8 11 16 26 24 28 28 27 30 29 33 31 24 23 29 30 29 30 28 28 29 29 31 31 30 31 31 29 30 28 27 21 27 24 9 3 3 3 6 10 18
8 7 6 9 11 16 21 24 24 25 25 26 27 27 26 29 25 22 23 24 25 26 26 29 30 31 30 31 31 31 29 28 28 26 18 24 28 15 9 9 12 12 13
8 6 6 10 12 12 13 13 16 17 19 22 22 23 23 22 21 23 21 20 21 23 23 25 26 25 24 24 27 28 28 29 29 26 26 24 12 12 13 7 13 6 11
8 9 9 11 14 13 13 14 13 13 11 11 15 18 16 17 19 20 18 17 17 20 23 21 21 22 22 22 19 18 19 23 25 27 28 30 31 30 23 16 5 6 10
8 10 9 15 16 16 15 14 12 11 9 9 8 8 9 10 12 13 15 15 14 14 15 21 23 21 20 18 17 15 12 12 13 15 17 20 24 25 26 21 11 1 6
8 11 10 15 16 16 15 15 14 11 8 7 6 7 8 8 9 10 13 14 15 15 15 15 19 19 20 19 17 14 11 10 11 12 13 14 14 13 14 15 14 9 2
8 7 7 14 14 14 14 13 12 11 8 6 5 4 4 6 7 9 9 10 10 10 11 10 12 15 18 16 16 15 11 11 12 11 8 6 6 6 5 6 7 7 6
7 7 7 13 14 14 13 13 11 10 7 5 4 3 2 3 4 5 6 6 6 6 7 7 8 9 11 12 12 11 9 11 8 4 5 4 3 3 3 3 3 4 6
8 8 10 16 15 13 12 11 10 9 7 5 4 3 2 2 2 3 4 5 6 6 6 6 6 6 7 8 7 7 7 7 5 4 6 6 6 6 5 5 4 4 4
7 6 7 10 15 13 11 11 8 8 7 5 5 5 4 3 3 3 5 5 5 5 5 5 5 6 6 7 8 9 9 7 7 6 7 7 6 7 6 6 6 5 4
9 7 6 7 12 12 11 10 8 6 5 5 5 4 4 3 4 5 5 5 5 5 5 5 7 7 8 9 10 9 10 10 9 9 9 8 8 8 8 8 8 8 8
7 8 7 6 13 13 12 10 8 6 5 6 6 5 5 5 5 6 7 7 7 7 8 8 9 9 8 9 11 12 14 14 15 13 13 12 11 11 8 8 8 6 7
9 7 7 9 13 17 16 13 10 8 8 8 7 6 5 6 6 7 7 8 9 10 10 10 11 11 12 10 11 14 16 17 17 18 17 15 14 12 10 8 7 5 5
9 10 11 13 18 20 18 16 13 11 10 10 9 8 8 8 8 9 10 11 12 13 14 14 15 16 15 13 14 14 17 18 17 15 13 11 9 7 7 6 5 6 4
7 8 11 16 21 19 17 14 13 12 11 11 11 10 10 10 10 11 12 14 15 16 16 17 17 18 15 14 15 15 17 17 14 12 10 9 8 5 4 3 2 2 1
4 11 18 22 23 22 19 17 15 14 13 13 12 12 12 13 13 13 14 15 15 17 18 17 17 18 15 12 13 14 15 15 13 10 8 7 9 5 2 2 1 1 2
1 9 16 21 23 21 21 19 18 17 16 15 14 13 13 13 14 14 15 16 17 18 17 17 16 14 14 12 12 11 12 12 10 8 7 4 3 2 3 4 3 4 4
5 10 16 18 19 20 20 18 17 17 15 15 14 14 14 14 14 15 15 18 19 19 18 17 14 13 11 11 9 8 7 6 7 5 4 3 0 2 2 4 5 4 3
6 8 12 13 15 18 19 18 18 15 15 14 14 15 16 16 16 18 18 19 20 19 16 16 14 12 11 8 7 5 4 5 4 3 2 1 2 3 3 4 4 3 5
6 6 9 11 12 15 17 17 15 16 16 15 15 15 16 17 18 20 20 20 19 18 16 15 14 12 10 9 6 6 5 3 2 2 1 2 4 4 6 5 3 6 6
7 8 10 12 12 12 14 16 16 17 17 17 17 17 19 19 19 19 21 21 19 18 17 15 13 11 11 11 9 7 5 4 3 3 5 5 4 5 6 5 6 6 5
10 12 13 13 14 12 13 14 17 18 18 17 18 19 19 19 20 19 20 20 18 17 17 15 14 14 14 12 8 7 6 6 5 5 6 6 6 6 7 6 6 6 6
10 12 13 13 13 14 14 15 16 18 19 17 18 19 19 20 21 21 19 16 13 13 13 11 13 12 9 8 9 8 7 5 4 6 7 7 7 8 8 8 8 8 7

GFSMW_925_spd_090.txt.gz
Wind_Speed
12 7 4 14 17 19 24 29 30 31 31 31 31 29 29 27 26 25 24 24 23 24 25 24 22 21 22 20 19 19 18 18 16 14 16 20 22 23 24 23 23 23 22
5 8 9 11 20 23 23 25 24 27 31 33 31 26 27 28 27 25 26 26 26 25 25 26 25 24 25 24 23 22 22 21 19 9 4 3 6 13 21 23 24 24 22
9 7 8 15 13 20 23 26 30 29 28 28 29 21 19 23 25 27 27 27 25 26 26 26 27 25 26 27 26 24 24 24 18 21 10 1 4 2 4 6 8 13 17
6 5 6 14 16 18 22 25 26 28 31 29 27 28 26 20 26 27 25 26 27 26 25 26 26 28 28 27 27 25 26 26 24 18 25 25 12 4 3 7 9 10 14
8 8 9 13 15 16 19 22 22 22 26 29 31 30 28 25 24 24 25 25 24 24 24 24 26 27 27 26 27 27 27 26 27 26 17 21 27 22 10 6 9 11 14
9 8 10 8 9 10 14 19 21 21 21 22 26 26 29 27 23 20 19 19 22 21 23 23 25 26 28 28 28 28 28 27 28 27 27 24 12 9 13 8 12 10 13
9 8 8 9 11 12 12 15 20 19 18 19 20 21 20 19 18 17 16 17 18 20 20 20 20 22 22 22 21 21 21 23 22 21 23 24 26 24 20 15 5 7 8
7 9 10 16 16 15 16 17 16 15 13 12 13 13 13 14 15 14 14 14 14 13 13 14 17 20 21 21 20 20 19 17 16 14 13 13 14 15 18 17 7 1 5
5 7 7 14 19 17 17 18 18 15 12 10 8 8 7 7 7 8 9 11 12 14 15 15 15 16 20 21 19 17 17 15 14 11 9 9 10 11 13 12 12 7 3
4 6 7 12 11 12 13 13 13 13 12 10 8 7 7 8 9 10 10 11 11 11 12 12 11 12 16 17 19 19 18 16 13 11 8 9 9 7 7 7 6 8 7
5 5 7 12 12 12 11 11 10 9 9 8 8 7 6 5 5 6 6 6 6 7 7 7 5 7 9 10 15 15 14 12 10 8 7 7 6 5 5 4 5 5 6
6 6 9 15 14 13 12 11 10 9 8 7 6 6 4 3 2 3 4 5 5 5 5 5 5 6 7 8 8 9 8 8 8 7 6 6 4 5 5 4 3 4 4
7 6 6 8 11 12 12 11 9 8 7 6 6 6 4 4 3 2 2 3 4 4 3 3 4 4 5 6 7 7 8 9 8 7 8 7 6 6 4 4 4 3 4
6 6 6 7 10 11 11 11 9 8 7 6 6 5 4 3 3 4 3 4 3 3 2 2 2 3 5 6 8 9 10 10 10 9 8 7 6 6 7 7 6 6 7
6 7 7 5 11 11 12 12 10 9 8 7 6 5 4 3 4 4 5 5 5 4 5 5 5 5 5 7 8 10 12 13 13 12 11 11 10 9 8 7 7 6 7
8 7 7 8 13 16 15 14 12 9 8 8 7 5 5 4 4 4 5 5 6 6 7 8 7 7 7 8 11 13 16 16 17 18 16 15 13 12 10 9 7 6 5
8 8 10 12 18 21 18 16 13 11 9 8 8 7 7 6 6 7 7 8 8 9 9 10 11 13 13 11 12 15 16 17 17 17 15 13 11 10 10 8 9 8 5
6 7 9 17 22 21 19 16 14 12 10 9 9 9 9 8 8 8 8 9 10 11 13 14 14 15 14 12 13 15 17 18 16 14 12 11 10 7 5 4 2 2 1
4 9 18 21 22 23 21 19 16 14 13 12 12 11 11 11 10 10 11 11 12 13 14 15 16 16 14 13 14 16 17 17 15 12 10 9 9 6 4 2 1 1 2
3 5 6 14 21 23 23 21 18 16 16 16 15 12 11 12 13 12 13 13 13 15 15 15 13 13 15 12 13 13 14 14 13 11 10 7 6 4 2 2 2 2 2
2 2 5 11 18 22 22 19 18 18 16 14 13 13 13 13 13 14 14 15 16 17 16 16 14 14 12 11 11 11 9 10 11 9 8 6 3 1 1 3 3 3 1
3 3 7 10 14 17 19 17 18 15 14 14 15 14 13 14 15 16 16 17 19 19 17 16 14 12 11 9 8 7 7 7 7 6 4 3 2 1 1 3 3 2 4
3 3 6 8 10 13 15 16 15 15 15 16 15 15 14 14 16 18 19 20 20 20 19 18 16 14 12 10 7 7 7 6 4 4 3 1 1 2 4 4 2 5 6
4 4 5 7 9 12 14 14 13 16 17 17 16 16 16 16 17 18 20 22 23 21 20 18 16 14 13 11 11 10 7 5 4 4 3 3 3 3 4 4 5 6 5
6 7 9 11 13 12 12 12 13 16 18 16 16 17 17 17 19 21 22 23 23 22 22 20 18 17 15 15 11 10 9 7 5 5 4 4 3 5 6 5 5 6 6
6 8 11 12 13 14 13 13 14 17 18 17 17 18 18 19 20 20 17 17 17 18 15 13 14 14 11 10 12 11 9 8 8 6 5 5 6 7 6 7 7 8 8

GFSMW_925_spd_093.txt.gz
Wind_Speed
18 11 12 10 16 19 23 25 24 27 23 23 26 24 26 25 24 23 22 23 23 22 22 21 20 19 19 18 16 15 15 14 13 9 9 15 17 19 19 18 18 18 18
18 18 15 11 11 14 18 16 19 18 17 21 25 20 26 27 27 23 22 23 23 23 23 22 22 22 21 21 20 18 17 16 14 5 1 3 3 8 13 15 18 17 17
15 16 9 12 6 11 16 19 18 19 21 24 24 23 18 19 21 26 26 25 24 24 23 23 24 24 24 24 23 22 21 15 14 18 7 2 4 2 4 7 8 10 14
5 4 10 14 16 19 15 15 20 24 26 26 27 29 21 16 24 25 28 23 24 25 24 24 24 23 25 26 25 23 24 22 15 15 21 22 9 3 3 8 12 14 13
8 9 13 18 16 19 18 24 22 23 22 24 25 25 26 22 17 19 18 18 19 22 23 23 24 23 25 25 25 25 25 26 22 22 14 19 24 22 10 6 10 12 14
10 10 15 14 11 12 17 19 22 22 22 24 25 27 24 24 20 19 15 14 16 20 22 22 23 23 24 26 26 26 26 26 26 26 25 21 10 8 11 8 13 11 13
13 12 9 10 13 12 14 16 19 21 20 21 23 25 25 24 22 20 15 13 13 14 16 18 20 22 23 23 23 23 26 26 25 25 25 24 23 22 16 13 8 8 11
10 10 8 13 14 12 11 12 15 17 16 17 19 19 19 18 16 14 13 14 13 12 12 12 15 17 19 19 20 21 21 20 20 20 19 18 17 17 17 14 8 2 8
6 7 6 12 12 11 11 11 13 14 13 13 13 13 13 13 14 12 9 8 9 10 11 12 13 13 16 18 20 21 21 21 20 18 17 16 15 13 12 13 14 9 3
2 4 6 10 12 11 10 11 11 12 12 11 11 11 9 9 8 7 8 8 9 10 11 12 13 13 15 16 17 20 21 21 20 19 17 16 13 10 9 9 9 9 8
3 3 7 11 13 13 13 12 10 10 9 8 8 7 6 5 5 5 5 6 6 7 8 9 9 9 8 9 12 17 18 23 19 16 14 12 11 9 7 7 6 6 7
6 7 9 12 13 14 13 12 11 9 7 6 5 4 3 3 1 2 3 4 4 5 5 5 6 7 7 9 11 13 14 13 14 12 12 11 10 8 7 7 5 6 5
8 8 9 11 12 13 13 13 11 11 10 9 7 6 4 2 2 1 1 3 4 4 4 3 4 5 7 8 10 11 11 11 11 12 11 11 9 9 8 7 6 5 5
7 6 5 7 10 12 13 12 11 10 10 10 9 8 6 4 3 2 2 3 3 3 3 3 2 2 4 6 8 10 11 13 12 11 11 9 9 9 9 8 6 6 6
6 6 7 6 8 10 11 10 10 9 8 8 8 6 6 5 5 5 5 5 5 5 6 5 5 6 6 7 9 11 12 13 13 12 12 11 10 9 9 8 8 7 8
6 6 5 8 12 15 16 15 13 11 9 8 8 7 6 5 5 5 5 5 5 6 6 6 7 7 7 9 11 12 15 16 17 18 17 15 14 12 11 10 9 7 7
7 8 9 12 17 20 19 18 15 13 11 9 8 8 7 7 6 6 6 6 6 6 6 7 8 9 10 9 12 14 17 18 17 16 16 16 14 13 13 12 11 9 6
6 6 9 15 20 20 19 16 15 14 12 12 11 9 9 8 7 7 7 6 7 7 8 10 10 11 11 11 12 16 18 18 16 15 14 13 12 10 8 8 6 5 4
3 7 13 19 21 23 22 20 18 15 14 13 13 12 10 9 8 9 10 9 10 10 11 12 13 12 12 12 13 17 19 19 17 15 13 12 11 9 7 5 5 4 4
1 4 5 8 15 22 24 22 20 18 17 15 14 12 11 11 11 11 11 11 12 13 14 14 12 12 14 12 14 16 19 19 17 14 12 9 9 6 5 3 3 3 3
3 3 1 3 8 16 23 22 19 19 15 13 13 13 12 11 11 12 12 14 14 15 15 14 13 13 14 13 13 13 14 15 16 14 12 9 6 4 2 1 1 1 4
3 3 1 2 5 14 19 18 18 14 13 12 13 13 12 13 13 13 13 14 16 18 17 16 15 13 13 12 11 10 9 11 11 10 9 8 5 3 3 2 1 3 4
3 2 3 5 7 10 13 13 12 12 13 14 14 14 14 13 13 14 16 17 18 19 19 17 16 15 14 12 9 9 9 9 8 8 7 6 5 5 5 3 3 6 5
2 2 4 4 6 8 9 10 10 13 14 15 15 15 15 15 14 15 17 20 22 21 20 20 17 17 15 15 14 12 11 9 9 9 8 6 6 6 5 5 6 6 6
3 3 6 7 8 9 10 11 12 14 16 16 15 16 16 15 16 17 19 22 22 24 24 23 22 22 19 19 15 15 14 11 9 9 8 8 7 8 7 7 6 6 6
3 5 7 8 10 11 13 13 13 15 17 17 16 17 17 18 18 19 17 17 19 20 20 18 19 18 14 13 16 15 13 12 11 11 10 9 8 8 8 8 7 7 7

GFSMW_925_spd_096.txt.gz
Wind_Speed
23 12 8 0 8 13 19 21 27 19 20 24 22 21 23 23 20 17 16 17 17 17 16 15 14 15 14 14 12 10 11 9 7 6 8 10 13 14 13 11 11 12 12
20 22 8 3 11 12 18 16 21 20 19 18 23 18 19 21 24 22 16 17 17 17 18 17 16 16 15 14 14 13 9 10 10 6 4 3 6 8 10 10 10 11 10
17 20 13 6 11 11 16 14 20 23 18 14 11 14 13 14 14 18 21 21 18 19 19 17 16 16 16 16 16 16 15 11 11 14 9 3 4 2 6 7 8 8 9
12 11 7 8 12 15 15 12 15 21 19 13 13 21 17 15 15 16 22 24 24 21 22 22 20 17 16 17 17 18 18 16 14 9 17 16 5 4 4 5 10 12 11
13 14 9 19 19 10 16 13 17 16 24 17 15 23 19 17 21 24 21 19 18 19 19 23 22 19 19 20 21 19 19 17 17 18 9 14 15 14 10 6 10 6 10
17 15 20 15 20 24 20 14 17 17 17 23 28 12 28 30 30 29 23 18 18 16 22 25 24 21 23 25 25 21 20 19 19 19 18 17 6 11 12 9 13 11 8
17 17 16 16 16 18 20 20 15 13 18 24 26 27 32 28 26 25 25 19 13 16 23 24 23 24 27 28 24 22 21 22 23 21 21 19 18 14 11 9 8 9 7
17 16 16 20 19 19 14 13 14 15 14 18 20 22 20 21 22 22 24 17 20 19 21 17 16 17 19 19 17 20 20 19 21 20 19 17 14 13 12 9 8 2 6
15 16 15 18 18 16 14 12 11 12 12 11 15 16 17 17 17 15 14 13 12 14 14 15 15 15 14 15 16 18 21 20 21 19 17 16 13 14 13 13 14 6 2
5 9 10 12 12 11 10 8 9 10 10 8 8 7 10 10 10 10 9 9 10 10 11 11 11 11 12 13 13 16 19 20 21 22 19 20 17 15 13 12 11 13 9
5 5 8 10 10 10 9 10 10 11 10 9 9 8 7 6 6 5 6 6 6 7 8 9 9 9 10 11 12 15 18 19 19 21 20 18 15 14 12 11 12 11 10
5 6 8 10 11 10 10 10 10 10 9 9 8 7 6 6 5 3 2 3 3 4 4 5 6 7 8 8 8 8 10 15 16 17 15 15 14 12 12 11 9 9 10
9 8 9 10 11 11 10 9 8 8 8 8 7 7 6 5 5 4 3 2 1 1 2 3 4 5 6 8 9 9 9 11 12 12 11 11 12 11 10 8 8 8 8
8 9 9 9 10 10 10 9 8 8 8 7 7 6 6 5 4 3 2 1 1 0 1 1 2 3 4 6 8 8 9 10 9 9 10 10 10 9 10 10 9 7 6
7 7 8 8 10 10 9 8 7 7 7 7 6 5 4 4 3 3 2 1 1 2 3 3 4 4 4 6 6 7 7 8 10 10 10 10 10 11 11 10 9 9 7
8 7 7 8 9 10 10 9 9 8 7 6 6 5 4 3 2 1 2 2 2 2 3 4 5 4 6 8 10 9 11 11 12 14 13 12 12 11 9 9 10 9 7
7 8 8 9 10 11 10 10 9 8 7 6 6 5 5 4 3 2 2 3 3 2 2 3 4 4 4 5 8 11 12 14 15 15 16 14 14 12 11 11 10 8 7
7 7 8 9 10 11 11 10 10 10 9 8 8 8 7 6 6 5 4 4 5 6 5 5 6 6 5 7 8 12 15 17 16 14 12 13 13 11 10 8 7 7 5
2 3 4 7 9 12 13 13 12 11 10 10 10 9 9 8 7 7 7 6 7 8 8 8 9 8 8 8 11 16 17 14 12 12 11 10 9 10 9 8 7 6 6
2 1 1 3 8 10 14 15 15 14 13 12 10 9 10 10 9 8 9 9 8 9 11 10 8 8 9 11 13 14 12 13 12 10 11 10 9 9 8 5 5 5 4
4 2 1 2 3 6 13 16 14 15 11 10 10 11 12 11 9 9 9 10 11 11 11 12 11 10 10 10 12 12 11 12 12 11 9 8 8 6 5 5 3 3 5
3 3 3 2 1 5 10 12 13 10 10 10 12 12 12 11 11 10 10 12 13 13 14 13 11 11 11 10 11 11 10 12 11 10 9 8 8 5 4 3 2 3 5
2 3 2 2 3 5 8 10 10 11 11 11 12 12 13 13 13 12 12 15 16 17 14 14 14 13 12 9 11 10 10 11 9 9 9 9 7 6 4 3 4 6 5
1 1 0 1 2 4 7 8 9 10 11 12 12 13 13 14 14 13 12 15 20 19 17 16 15 16 15 12 12 11 11 11 10 9 8 8 7 6 5 5 5 6 6
2 2 3 3 4 6 7 8 8 10 11 11 11 12 12 14 16 17 14 15 20 23 22 21 20 19 15 17 15 15 14 12 11 11 8 6 6 7 7 7 8 7 7
3 3 3 4 6 7 9 9 10 11 12 11 11 12 12 14 18 17 13 16 17 18 20 19 20 20 16 16 18 16 14 12 12 10 9 9 8 9 10 9 8 9 9

GFSMW_925_spd_099.txt.gz
Wind_Speed
18 21 14 12 12 10 13 17 19 21 23 22 20 19 21 21 17 14 14 13 13 14 14 12 13 14 13 12 11 10 11 9 8 7 9 11 13 14 13 12 11 11 12
18 21 14 11 10 9 9 14 18 18 20 22 21 16 17 18 23 19 15 15 15 14 14 14 13 14 14 13 13 13 11 12 11 7 6 2 9 12 13 12 12 12 12
18 19 20 14 8 6 6 11 13 19 18 18 17 14 12 11 16 17 20 17 16 16 17 16 15 14 14 14 15 15 16 12 14 16 7 2 3 5 10 11 10 9 10
15 14 21 15 9 6 5 4 10 17 18 16 16 14 8 9 6 6 8 12 14 15 17 18 17 14 17 16 14 16 18 18 13 12 15 17 7 2 2 9 9 9 9
15 13 16 19 10 7 6 2 7 15 17 16 22 15 12 9 6 10 10 13 14 12 15 16 20 21 19 17 17 16 18 17 18 15 10 15 15 14 8 5 6 9 9
15 13 16 14 12 8 4 3 7 14 13 24 21 22 16 8 8 10 15 14 19 13 11 17 17 16 16 20 19 19 17 21 21 22 21 16 7 13 11 8 10 8 5
15 15 16 14 11 11 6 1 9 19 29 25 20 19 26 26 21 10 14 20 20 18 24 20 22 20 23 25 30 28 28 27 27 24 22 20 20 14 15 11 5 6 5
16 15 14 17 14 17 11 5 21 21 17 20 25 32 22 23 23 19 16 22 21 26 20 28 23 26 26 32 35 33 27 27 29 26 23 20 19 18 19 15 11 1 4
17 17 14 16 15 16 20 27 22 16 16 15 24 20 20 20 23 24 24 27 28 30 27 26 19 19 19 21 21 20 19 19 20 20 21 21 20 18 18 17 17 8 3
18 17 15 18 14 13 16 15 14 12 10 11 8 11 12 11 12 10 12 13 15 13 14 13 9 9 10 12 12 15 19 21 22 23 23 20 20 21 20 17 14 14 11
8 10 12 17 16 12 11 11 10 9 8 9 9 8 7 6 6 8 6 8 7 7 7 7 6 7 9 9 12 13 14 19 21 22 22 24 24 18 18 16 14 13 13
8 9 11 15 16 13 13 12 12 11 10 10 9 9 8 8 6 5 5 4 4 3 4 5 6 7 8 10 9 8 11 13 17 18 16 18 17 16 14 13 13 11 11
8 9 10 11 15 16 16 14 13 12 10 10 10 9 8 8 6 6 5 4 3 2 1 2 4 5 7 7 8 8 10 10 9 11 13 14 14 11 11 11 11 9 9
8 9 10 10 14 14 14 14 13 11 11 10 9 9 8 8 7 6 5 4 4 3 3 2 2 3 4 5 6 8 8 8 8 9 9 9 10 10 11 10 9 9 8
9 9 9 9 13 13 13 13 13 12 11 10 10 9 8 8 7 6 6 5 4 3 3 3 2 2 3 4 4 4 4 6 6 8 9 10 11 10 11 10 9 9 9
8 9 8 8 10 11 11 10 10 9 9 8 8 8 8 7 6 6 5 5 4 3 3 3 2 2 4 7 8 7 8 9 10 9 8 7 8 8 10 11 11 10 11
7 7 7 8 9 9 10 11 11 10 10 9 9 9 8 7 6 5 4 3 2 1 2 3 4 2 3 5 5 8 8 9 10 12 12 11 9 9 10 11 10 10 10
6 6 6 7 8 8 9 10 11 10 10 9 8 8 8 7 7 6 5 4 4 3 1 3 4 4 3 2 4 5 8 11 12 12 11 12 12 11 10 9 10 9 7
4 4 3 4 7 10 10 11 10 9 9 8 8 8 7 7 6 5 6 5 5 6 5 5 4 4 4 3 6 9 12 13 12 10 10 9 9 10 9 8 9 7 5
6 5 4 2 2 6 9 11 12 11 10 9 8 8 8 8 8 7 8 7 5 5 5 5 4 4 6 6 7 9 12 11 10 9 10 8 9 11 8 6 7 7 5
6 5 5 3 1 2 7 11 10 11 8 8 9 9 8 7 7 6 7 6 7 6 6 6 6 6 6 7 9 9 9 11 11 11 10 9 8 8 8 7 7 6 7
6 6 5 4 2 0 4 7 8 8 8 8 8 7 7 7 8 8 7 7 8 8 8 10 9 8 8 8 9 9 8 10 12 11 10 9 9 7 6 6 5 7 8
5 5 4 3 4 3 1 4 5 8 9 8 7 8 8 9 10 11 10 10 9 10 13 13 12 12 11 10 9 10 9 9 8 10 11 10 9 7 6 6 6 7 7
4 3 4 4 2 2 0 2 5 6 7 8 8 8 10 11 11 12 12 12 12 13 16 16 14 14 14 13 13 12 11 11 11 10 11 10 9 7 7 7 7 9 8
4 4 3 2 2 2 3 4 4 6 7 8 8 9 10 11 12 15 17 16 14 16 19 21 20 19 19 20 15 15 16 15 13 12 11 11 11 10 10 9 9 9 10
4 3 3 3 3 5 6 7 7 8 9 9 10 11 10 9 12 12 16 16 16 15 16 16 19 20 18 15 17 16 14 13 13 14 14 13 13 13 13 13 12 13 11

GFSMW_925_spd_102.txt.gz
Wind_Speed
13 24 24 16 13 21 26 25 23 22 22 23 21 21 23 19 20 18 15 15 18 18 19 15 14 14 14 13 13 13 11 12 9 6 9 12 14 16 16 16 15 14 15
9 18 24 20 16 18 23 28 26 21 23 21 20 19 21 24 22 20 17 13 15 18 19 20 16 16 16 15 14 14 13 11 11 5 5 2 8 20 19 17 16 14 13
9 14 16 20 16 13 18 20 28 22 21 22 19 16 17 11 18 20 21 21 15 17 22 19 17 16 18 18 17 16 16 14 12 14 4 0 3 2 11 18 16 15 12
8 7 15 20 17 10 10 15 22 21 19 19 20 20 15 10 12 18 18 14 21 20 18 17 18 17 17 19 17 19 19 18 13 12 16 18 8 1 2 7 11 10 11
10 7 9 22 24 18 16 16 18 21 19 19 12 14 10 8 9 8 7 15 4 5 11 15 16 17 16 17 16 17 18 19 19 15 11 18 20 20 8 3 6 12 11
4 8 10 24 23 20 18 14 20 20 20 19 12 10 10 9 5 4 5 6 5 4 1 8 9 11 13 13 11 14 18 17 22 20 21 18 10 12 13 6 7 6 8
8 7 10 15 21 19 19 18 17 21 19 17 15 14 13 14 15 14 8 5 7 9 6 9 10 12 14 18 16 17 26 21 21 21 27 27 27 20 17 16 7 8 5
9 9 9 17 22 21 20 19 17 14 16 20 20 20 22 19 13 24 28 23 22 17 17 14 12 14 14 23 22 23 23 20 21 22 30 26 26 25 21 19 13 1 6
9 10 9 19 22 21 25 21 19 18 16 19 23 21 23 21 23 28 24 23 15 14 14 13 7 15 18 26 33 33 28 26 24 25 26 29 29 26 25 25 21 15 4
10 9 8 17 21 20 22 18 18 14 11 11 24 23 27 25 29 29 29 28 26 24 23 21 22 25 21 21 19 14 15 16 17 19 20 20 22 24 23 24 24 20 14
5 10 8 22 20 16 20 17 12 11 10 12 11 13 13 12 13 15 15 14 14 14 12 12 12 13 13 13 13 14 14 15 18 19 21 23 23 23 22 23 21 21 19
6 6 7 19 23 17 13 15 15 14 11 12 11 11 12 12 13 13 11 10 11 13 12 11 11 12 13 13 13 12 13 15 17 17 20 20 20 23 23 21 19 20 16
8 7 8 10 16 15 15 16 17 17 17 17 17 17 13 14 12 11 12 11 10 7 8 8 7 6 6 7 8 9 10 10 12 13 15 17 18 19 18 15 14 15 14
6 5 5 6 14 15 15 15 16 17 17 16 14 13 13 13 12 11 10 10 9 7 6 5 3 3 3 4 6 7 8 9 10 9 11 13 13 14 14 15 14 14 12
7 6 6 6 12 15 17 17 15 15 15 16 16 16 14 13 12 11 10 9 8 6 4 3 2 2 4 6 6 6 7 8 8 9 10 11 12 12 12 13 14 13 13
7 7 6 8 11 14 15 16 15 15 15 15 14 13 12 11 10 9 8 7 6 5 3 3 2 3 6 8 8 8 9 9 9 10 10 9 10 11 13 13 13 12 13
7 8 7 9 15 16 17 16 16 16 15 14 13 13 12 12 10 10 9 8 7 5 4 3 4 5 7 9 9 11 10 11 11 11 11 11 11 11 12 13 13 13 12
7 7 9 11 11 13 15 15 15 14 14 13 13 13 13 12 11 11 10 9 8 7 7 6 5 5 5 5 7 6 9 10 11 12 12 12 13 12 12 12 13 11 10
6 9 11 13 14 14 14 16 15 14 14 14 14 13 12 12 11 11 11 10 9 8 7 5 5 5 5 5 4 5 9 11 11 11 12 12 12 11 11 12 13 11 10
13 12 9 7 9 13 15 15 15 14 14 14 14 14 14 13 12 10 10 8 7 7 7 7 6 6 6 6 6 6 9 11 11 11 10 9 11 11 10 11 11 11 11
10 9 9 9 5 3 9 15 14 16 13 13 13 14 12 12 11 11 8 6 8 7 7 7 7 7 6 8 6 7 9 10 11 11 13 11 11 11 10 9 9 9 9
10 10 9 7 5 2 2 3 5 11 13 12 12 11 10 10 9 9 8 8 9 9 9 9 9 9 7 7 10 10 8 9 12 13 11 11 10 9 10 9 8 8 9
8 8 7 6 6 5 3 3 6 7 8 10 10 9 8 8 8 10 9 10 10 11 12 13 12 11 10 9 9 10 9 10 10 11 11 11 11 8 8 7 7 10 11
7 5 6 5 4 3 3 5 5 6 9 9 10 10 9 8 8 10 11 12 14 14 15 15 15 14 13 13 12 12 11 11 10 10 11 12 11 10 7 8 8 10 10
7 5 3 2 0 0 2 2 4 5 7 7 7 7 7 8 9 11 13 14 16 15 16 18 18 18 18 20 16 15 16 16 13 12 13 14 14 13 12 10 10 12 12
7 6 7 6 4 5 3 4 4 5 5 5 7 7 7 8 9 9 12 14 16 15 15 15 15 17 17 14 17 15 14 15 14 15 18 18 17 16 15 15 14 15 14

GFSMW_925_spd_105.txt.gz
Wind_Speed
9 26 22 24 24 24 26 30 27 29 29 28 32 30 30 27 23 19 19 21 22 19 20 21 19 20 21 19 18 15 14 13 9 8 9 12 14 15 15 16 15 16 16
8 13 26 25 22 23 23 24 28 30 29 29 29 28 29 27 28 24 20 22 22 21 21 22 20 20 20 19 18 17 16 14 14 7 4 2 4 16 19 17 18 17 16
9 8 12 22 23 23 24 27 27 28 30 29 27 21 22 19 23 22 20 19 21 19 25 23 20 21 21 21 19 18 18 17 15 17 5 1 3 3 4 16 18 17 18
9 15 13 19 23 21 18 27 27 27 27 28 26 25 25 17 19 22 20 20 18 15 17 21 22 19 23 23 21 19 20 19 17 14 19 14 4 2 2 3 9 13 13
10 14 12 22 27 24 21 22 28 26 24 24 25 22 15 13 11 9 13 13 11 16 15 19 21 21 22 20 20 20 21 22 19 16 9 18 17 13 6 3 4 8 9
5 15 19 26 22 21 24 25 25 22 21 21 20 22 21 19 16 11 10 14 11 7 6 11 11 10 14 15 13 14 17 16 17 18 15 15 8 9 10 5 8 7 10
5 9 14 15 23 22 23 27 27 26 26 26 22 19 19 20 20 19 17 16 15 11 6 7 4 4 7 6 7 8 13 13 16 16 20 19 27 27 18 17 8 9 11
6 11 14 20 22 25 25 26 29 29 26 23 23 21 19 18 19 19 17 18 16 14 5 20 16 14 15 12 10 12 12 15 18 21 24 28 31 22 18 18 14 2 9
8 9 13 21 25 28 27 29 29 28 27 25 23 21 19 18 20 19 17 15 16 15 16 21 22 15 15 14 17 17 19 19 22 24 25 27 21 18 19 21 21 15 4
8 9 12 20 26 30 28 27 29 31 28 27 24 21 20 20 19 19 22 22 15 13 12 18 20 20 18 16 17 19 22 21 16 16 19 19 17 17 19 22 25 28 19
10 10 11 22 31 29 27 21 22 22 23 23 23 23 21 17 20 22 22 21 18 19 22 25 26 23 20 21 22 19 18 17 20 19 19 18 18 19 21 23 27 24 25
7 7 8 18 23 24 25 21 20 20 19 19 19 18 14 13 15 14 13 14 15 13 15 17 17 17 18 17 17 17 17 17 18 20 20 20 21 22 22 22 26 20 21
8 8 9 11 19 23 21 20 19 19 18 18 17 14 13 12 9 10 12 11 12 12 13 13 12 11 12 13 13 13 13 14 14 14 15 14 14 18 19 21 18 18 19
8 7 7 8 16 17 18 17 15 15 17 16 15 15 14 13 14 13 12 12 11 11 11 9 7 7 7 7 7 8 10 11 12 12 12 14 14 16 17 18 19 17 17
7 7 6 6 15 18 17 17 16 15 14 14 14 14 14 14 13 12 12 12 11 9 8 7 6 5 6 6 7 8 9 10 10 11 11 12 13 15 15 16 17 16 16
5 6 7 8 12 18 18 16 15 15 15 16 16 16 16 15 14 13 13 12 11 10 8 7 6 6 6 7 6 8 9 9 10 10 11 12 9 9 10 12 12 14 16
5 6 6 8 14 17 18 16 15 15 15 15 15 15 15 14 14 13 13 12 10 8 7 7 7 6 6 8 8 9 10 12 12 12 11 11 9 10 10 9 11 12 13
5 5 7 10 13 15 16 15 15 14 14 16 15 15 15 14 14 13 12 10 9 8 8 7 5 6 6 9 9 10 8 10 10 9 9 9 9 9 9 10 10 8 8
5 5 10 11 11 15 14 15 14 15 15 15 15 15 15 15 14 12 11 10 8 7 7 7 8 8 9 8 7 6 7 7 8 8 9 9 9 9 9 8 9 8 7
12 13 13 10 10 11 15 16 15 16 16 15 14 14 14 13 13 12 12 10 9 10 11 10 10 9 8 6 7 6 6 8 8 8 8 9 10 8 9 9 9 10 10
12 12 13 12 8 5 13 15 13 14 12 11 12 12 11 11 11 11 11 11 11 10 9 10 10 9 8 8 8 7 9 11 10 9 9 9 10 9 8 9 10 9 10
11 9 10 9 7 4 4 8 9 10 11 13 13 13 11 11 12 11 11 10 10 10 11 12 12 11 11 10 11 10 9 10 11 11 10 10 10 10 9 9 8 8 9
8 8 8 8 7 6 4 4 6 9 13 13 12 11 11 11 11 13 13 13 13 14 15 15 14 13 13 12 11 12 11 9 10 10 10 11 11 9 8 8 8 9 11
7 7 7 6 5 5 4 3 5 7 8 10 11 10 11 11 12 12 14 14 14 16 15 16 17 15 15 15 14 14 12 9 10 10 12 13 13 12 10 9 9 12 13
6 6 5 3 2 1 1 1 3 5 7 8 9 11 11 12 13 14 14 15 15 16 18 18 17 16 18 21 17 17 16 15 15 13 13 15 16 15 14 13 13 13 14
7 7 6 5 2 2 2 3 4 6 8 10 11 11 11 11 13 13 11 11 14 15 16 15 16 16 18 17 15 17 16 16 16 16 18 20 21 20 19 18 16 17 18

GFSMW_925_spd_108.txt.gz
Wind_Speed
15 24 21 24 32 32 35 33 34 36 38 38 29 28 24 28 30 29 26 26 23 24 23 20 21 21 22 22 20 19 18 15 13 12 13 15 17 19 20 18 18 17 16
13 11 15 18 26 30 32 33 32 35 37 36 33 34 20 21 26 25 23 24 27 25 24 21 21 22 22 22 21 20 18 16 15 6 3 2 6 18 21 18 19 17 16
11 8 9 17 20 26 30 32 30 28 22 24 27 32 38 29 26 24 24 26 26 25 24 22 20 20 22 24 23 22 20 19 18 18 6 1 4 2 5 14 20 17 16
11 7 9 13 25 25 26 25 25 25 20 30 23 32 30 27 24 30 25 26 24 25 24 24 21 21 23 25 24 21 22 21 20 16 21 17 4 2 2 3 5 14 16
10 13 12 22 25 23 24 23 23 26 28 33 34 33 30 29 26 27 21 23 21 18 18 23 19 22 21 25 26 22 23 26 24 21 13 21 20 13 5 3 4 7 10
18 16 13 18 23 21 21 20 22 22 20 21 22 22 21 18 20 23 24 22 20 20 19 20 21 25 30 27 25 26 28 31 29 23 21 12 5 7 10 5 6 8 11
8 8 8 11 19 22 22 23 23 19 19 19 18 16 16 19 18 17 16 15 15 13 12 13 15 13 13 17 16 8 13 12 16 17 18 14 18 16 16 14 10 11 13
7 11 10 15 21 24 23 23 23 23 22 20 20 21 21 20 19 18 16 17 18 15 12 11 12 12 12 12 13 12 9 11 7 11 16 14 17 20 21 21 16 3 9
8 9 8 13 20 24 26 27 27 26 26 26 22 20 19 18 19 18 18 16 15 15 13 14 14 17 14 15 15 15 18 17 19 17 19 20 24 24 29 29 28 15 3
8 8 8 17 22 27 27 25 26 28 27 24 24 23 21 18 17 17 16 15 16 15 16 19 19 17 17 16 13 15 14 16 18 20 23 23 25 26 22 20 21 19 16
10 11 10 17 26 27 26 26 25 26 26 25 24 22 19 18 16 17 15 16 16 13 14 14 15 15 14 16 17 17 15 14 13 15 16 18 17 17 18 19 21 21 21
7 11 14 19 20 25 25 24 23 22 22 22 21 19 18 16 17 17 17 17 16 15 14 15 16 17 18 18 14 13 12 11 13 14 17 20 19 21 21 22 23 24 20
5 8 6 11 19 23 23 20 19 19 17 18 19 17 16 15 12 12 11 11 12 10 8 8 7 7 9 11 11 11 10 10 12 13 14 16 16 17 17 18 20 20 18
5 5 8 7 14 20 22 20 18 16 16 16 16 15 13 11 11 10 8 8 7 8 7 5 5 7 7 8 7 8 9 10 11 13 15 16 16 18 17 16 17 17 16
7 7 6 6 14 19 18 17 17 17 16 15 15 13 12 12 11 11 9 8 7 5 5 6 5 4 5 5 6 7 9 10 11 12 13 14 15 15 16 17 17 16 16
5 6 6 7 9 13 15 16 15 15 15 16 16 16 17 15 13 11 11 10 8 7 7 6 5 4 5 6 6 8 9 9 10 11 12 13 14 14 13 12 12 13 14
5 6 6 8 12 13 14 14 14 14 15 17 17 17 16 14 13 12 11 9 9 7 6 5 4 5 7 9 9 11 11 12 13 14 15 14 13 11 11 10 9 10 11
6 5 6 9 10 11 11 12 13 15 15 16 15 14 13 13 12 11 10 9 8 7 6 6 6 7 8 10 10 10 9 10 10 11 12 12 10 9 9 8 7 6 7
3 6 8 9 10 13 12 12 12 13 13 13 12 12 12 13 13 12 10 9 8 8 8 8 9 10 9 9 7 7 8 9 9 10 10 10 9 8 8 8 7 5 4
8 8 8 8 9 10 11 12 11 11 12 11 10 11 12 13 12 10 10 10 10 10 10 11 11 10 9 8 6 9 8 9 9 9 9 8 7 7 8 7 7 7 6
10 11 12 11 6 7 12 12 11 13 11 11 11 12 12 11 10 10 11 10 10 11 12 12 11 10 11 10 8 10 8 9 9 10 11 10 9 8 7 7 7 6 6
10 9 11 9 5 3 10 11 11 9 10 12 12 13 12 11 11 11 11 11 11 11 10 10 11 11 10 10 10 11 11 8 11 12 12 12 10 8 7 8 8 7 8
8 7 8 7 7 6 3 6 6 7 11 12 13 12 11 10 10 11 11 11 10 11 10 11 13 14 13 13 12 12 12 11 12 12 12 11 10 9 9 10 7 8 9
6 5 5 5 5 5 5 4 4 4 7 9 9 9 10 9 9 10 10 10 11 11 12 13 17 17 16 16 15 15 14 13 13 13 12 11 11 13 12 10 9 12 11
4 4 4 4 3 3 3 2 2 3 5 6 7 7 8 8 9 10 10 12 13 13 15 16 17 18 19 19 16 17 18 18 16 14 13 14 16 17 15 14 13 13 12
3 4 4 3 3 2 1 1 2 3 4 5 6 7 8 9 10 10 12 13 14 15 16 16 17 17 17 17 16 15 16 18 16 16 18 19 21 21 20 18 17 16 16

GFSMW_925_spd_111.txt.gz
Wind_Speed
5 16 18 14 19 30 32 36 37 39 38 37 35 32 32 33 31 32 31 29 30 29 26 24 23 23 23 22 20 20 20 17 14 12 13 15 16 19 19 18 18 18 18
6 10 16 15 15 22 30 33 36 38 34 33 34 33 33 30 33 34 32 29 30 29 27 25 25 27 26 24 24 23 21 18 14 6 2 2 6 18 24 22 22 19 17
5 8 10 14 14 30 30 29 36 38 35 34 34 26 30 27 25 27 27 29 27 28 28 28 25 26 26 25 24 23 22 19 18 18 7 0 4 4 5 13 20 18 18
4 7 10 16 13 26 28 32 32 29 31 37 34 40 26 16 24 27 25 21 20 25 28 29 26 24 25 23 22 21 22 21 21 17 23 18 4 1 3 2 4 13 19
7 9 10 16 10 16 15 16 31 26 25 26 23 13 14 16 9 18 29 25 23 28 30 25 22 20 22 22 24 23 21 21 23 24 14 25 22 17 6 3 4 6 10
8 10 15 13 12 13 31 24 24 25 18 21 24 25 30 29 25 25 25 30 32 32 27 26 23 22 20 26 28 27 26 30 30 29 26 18 8 13 6 3 7 7 9
7 10 6 8 10 12 21 20 18 19 23 24 29 29 31 33 36 33 28 27 29 26 29 22 25 27 24 26 25 20 22 28 27 31 29 26 20 11 8 5 3 6 8
12 15 10 15 16 16 15 16 16 17 20 22 19 22 28 30 28 26 27 24 22 20 13 12 12 13 13 13 10 10 9 12 13 9 5 6 7 8 8 9 5 3 6
16 8 8 15 18 16 19 19 18 17 18 16 15 17 18 15 16 15 14 12 11 11 11 9 9 9 9 9 11 11 11 12 14 16 14 13 14 18 17 19 20 15 3
6 6 6 13 18 16 15 17 19 19 20 20 19 18 16 13 14 15 14 13 12 12 9 8 10 11 10 11 10 9 9 9 11 15 16 14 15 18 16 17 21 22 15
8 7 6 11 15 16 16 16 18 20 20 21 20 18 16 13 13 13 12 10 10 10 11 12 11 12 11 12 12 11 11 13 12 9 10 11 12 14 16 17 16 16 16
5 6 7 13 12 15 16 18 18 18 20 19 19 17 15 13 12 12 12 13 12 12 11 11 11 12 12 12 13 10 8 8 10 12 12 14 13 13 14 15 17 19 20
5 4 6 7 14 17 16 16 14 13 15 16 15 15 13 12 12 10 10 8 7 8 8 9 9 9 9 8 7 6 5 5 6 8 9 11 12 15 14 14 17 17 16
4 1 3 5 11 15 15 13 11 12 13 14 15 14 11 9 7 6 7 6 6 6 6 6 7 6 5 5 4 2 0 2 4 7 9 10 13 13 14 15 16 16 15
5 4 3 3 10 11 12 11 10 11 12 13 13 12 10 9 8 6 6 7 7 7 7 6 6 6 4 2 1 1 2 3 4 4 8 9 11 14 15 15 16 15 16
6 5 6 6 8 11 10 9 10 10 11 11 11 11 12 12 12 12 11 10 9 9 8 7 6 4 3 2 3 3 3 5 7 9 10 12 13 14 13 16 15 14 13
4 5 7 7 11 11 13 11 9 8 8 8 10 11 12 13 12 11 11 10 9 8 7 5 3 2 1 4 6 6 7 8 9 10 11 11 11 13 12 12 11 11 11
5 5 5 8 9 9 9 10 9 9 10 10 11 12 12 11 10 10 9 9 7 7 6 4 3 2 3 6 7 7 6 7 8 8 9 11 12 11 11 11 9 8 8
3 3 4 8 10 11 10 10 10 9 10 11 11 11 11 11 11 11 10 9 8 7 6 4 4 5 6 8 8 7 6 7 7 8 7 8 10 9 10 9 8 7 5
6 7 7 7 7 7 9 10 10 10 10 10 10 10 11 11 11 11 10 8 7 6 6 6 7 8 8 7 6 6 8 8 7 6 6 7 7 6 8 8 7 7 6
10 9 10 10 5 5 8 8 9 9 9 9 10 10 10 10 9 9 8 8 7 6 7 8 9 8 8 7 6 7 8 8 8 7 7 7 8 7 7 9 7 7 6
9 8 9 9 7 3 4 5 5 3 5 9 10 10 10 9 9 9 9 7 7 8 8 8 9 8 8 9 9 10 9 10 10 10 9 9 9 8 7 6 7 8 8
6 7 7 7 7 6 2 4 4 4 6 7 9 9 9 9 9 9 9 9 9 9 9 9 11 10 9 10 11 11 10 10 14 13 11 10 9 8 7 6 9 7 12
4 3 4 4 5 5 5 3 1 1 3 7 9 9 9 9 9 9 9 10 11 11 12 11 12 11 11 11 11 12 12 11 13 15 12 11 9 8 8 9 9 10 12
3 3 2 2 1 1 2 1 1 2 4 5 7 8 9 9 9 10 10 12 12 12 12 12 13 12 14 12 11 11 12 14 15 14 14 13 12 12 14 13 12 12 12
3 3 3 2 1 1 0 1 2 3 4 6 7 8 9 10 10 10 10 10 11 10 11 13 15 15 15 14 13 13 13 14 12 13 16 17 16 17 17 17 17 16 15

GFSMW_925_spd_114.txt.gz
Wind_Speed
18 17 10 16 12 9 29 30 37 40 38 34 35 34 35 35 35 34 33 32 30 29 27 25 25 25 25 24 21 19 17 15 11 9 11 16 18 18 19 18 18 18 16
14 10 8 9 3 15 15 24 21 32 38 38 36 34 34 36 34 34 35 34 33 30 28 26 26 27 26 25 23 20 17 16 14 5 3 3 5 13 21 24 22 20 18
13 8 4 6 1 19 25 17 40 31 37 35 33 28 30 27 29 31 33 33 31 29 28 27 25 26 26 25 24 23 21 19 17 18 7 0 4 4 2 8 19 21 18
9 7 4 6 6 6 16 25 33 31 31 41 34 31 30 23 20 31 33 33 29 28 26 25 25 25 26 26 23 22 23 20 22 16 21 19 6 3 3 3 5 12 19
6 7 3 6 7 4 16 27 27 26 26 32 27 25 21 16 15 25 26 24 23 21 21 22 20 20 21 21 23 21 21 23 22 19 15 18 25 17 5 3 4 4 7
7 10 1 7 5 9 15 12 5 1 13 19 12 29 19 11 6 10 19 20 20 19 15 18 21 20 19 21 22 19 23 24 23 22 20 19 10 12 11 6 8 6 5
8 5 3 7 5 14 14 13 16 14 8 7 16 5 4 6 11 21 14 14 14 15 20 18 20 21 23 23 23 22 23 22 22 19 14 21 26 18 14 14 4 4 2
4 3 5 9 6 16 16 22 22 11 18 20 25 29 26 24 28 27 22 22 20 30 32 29 29 29 27 25 21 16 9 8 8 6 7 7 6 7 6 4 1 1 5
4 7 9 6 10 15 22 20 27 31 22 18 19 23 24 26 27 33 34 25 32 22 24 21 14 13 12 11 9 7 7 7 6 6 7 11 10 9 10 9 10 6 2
2 2 2 9 10 13 17 13 15 18 20 15 17 21 26 25 22 20 21 19 17 17 17 15 13 13 12 12 9 8 5 5 3 4 7 8 7 5 5 6 7 10 13
4 3 4 5 12 12 19 20 15 13 17 18 19 21 20 18 19 19 19 17 15 15 11 10 10 12 13 11 10 9 7 6 4 4 5 5 7 9 9 10 11 10 10
5 4 2 5 10 12 12 13 13 12 11 15 19 18 19 20 19 18 17 14 12 9 8 7 8 8 9 8 6 5 5 6 6 6 5 3 5 5 7 7 7 10 10
5 3 4 5 10 11 12 10 9 9 12 12 14 16 14 14 14 13 12 11 10 9 9 9 9 8 6 6 6 5 4 3 1 1 2 4 6 8 9 9 8 8 10
5 5 4 5 4 7 13 13 10 8 11 13 15 13 11 10 10 9 7 7 6 7 8 9 10 9 9 8 7 6 5 4 3 2 3 5 6 7 7 9 11 11 11
8 6 4 5 8 9 11 13 14 13 12 13 13 12 10 10 10 10 9 9 10 11 11 12 12 11 10 9 9 7 6 4 3 2 2 4 5 7 9 9 10 10 10
6 5 5 4 7 9 9 12 14 14 14 15 15 14 13 12 11 11 12 13 14 14 13 13 13 13 11 10 8 7 5 5 2 1 3 5 7 8 9 9 8 8 7
6 6 6 5 8 12 12 11 10 10 9 12 13 13 13 14 13 13 14 13 13 13 13 13 12 11 9 6 6 4 3 2 3 4 5 6 7 8 9 9 8 9 9
5 5 5 8 9 10 11 12 10 9 8 7 9 11 13 14 15 15 14 13 13 13 13 11 10 9 8 5 1 1 2 3 3 4 5 6 7 8 9 9 8 8 8
5 5 6 6 7 8 9 10 10 10 10 10 11 11 11 11 11 11 10 10 9 8 8 6 5 4 2 2 4 3 2 1 2 3 3 3 4 6 9 9 8 8 7
7 8 8 9 8 6 6 7 8 8 8 9 10 10 11 11 12 12 12 9 9 9 9 9 6 4 2 5 5 4 1 2 3 3 3 3 3 5 6 7 7 8 8
11 11 11 10 7 3 3 4 3 2 3 5 8 9 9 10 10 11 11 11 10 10 9 6 5 4 4 6 6 6 4 4 4 5 5 5 6 6 6 9 7 7 6
8 9 9 8 7 3 4 4 2 2 3 6 7 8 8 8 9 9 9 10 10 9 8 6 5 4 4 6 5 4 8 7 7 6 6 7 7 7 6 8 8 5 7
5 6 6 6 6 6 3 4 2 3 6 7 7 8 8 9 10 11 10 10 10 8 6 6 7 6 6 5 5 7 8 8 12 12 9 8 7 7 7 7 6 6 9
2 3 3 4 5 7 7 4 2 1 3 5 6 7 8 8 8 9 10 11 10 9 8 8 9 7 6 6 7 8 8 10 12 14 11 10 9 8 8 8 9 8 8
5 5 4 3 4 3 3 3 2 1 1 2 5 7 8 9 9 9 9 9 8 8 9 10 9 9 10 8 6 7 8 10 11 11 12 11 11 11 11 12 11 10 9
3 4 5 4 4 3 3 3 3 2 2 3 4 6 7 7 8 8 8 8 9 9 9 9 9 10 11 8 8 8 9 8 7 9 14 14 14 15 14 14 14 13 12

GFSMW_925_spd_117.txt.gz
Wind_Speed
9 5 8 17 19 22 30 20 35 36 36 33 34 32 33 34 34 34 33 33 31 30 30 28 27 26 25 23 20 19 15 12 8 6 8 13 16 19 20 20 19 19 17
8 4 4 14 14 18 24 34 33 33 32 31 32 33 30 31 33 34 33 33 31 30 29 29 28 27 25 22 20 18 15 13 11 4 2 2 3 10 18 22 23 22 18
11 7 2 7 15 14 16 19 25 32 32 30 25 24 25 22 23 29 31 32 32 31 29 27 26 25 24 24 23 21 19 13 14 16 5 1 3 3 3 7 14 24 22
10 1 6 11 15 18 18 12 11 9 29 24 23 27 27 24 21 27 27 29 31 29 28 25 23 22 23 22 23 22 22 20 16 14 20 16 4 3 4 3 4 9 19
5 2 2 12 7 20 26 34 31 15 13 30 29 28 23 26 21 27 34 33 32 30 26 24 22 21 21 22 21 22 21 22 17 17 9 10 15 16 8 8 7 8 7
4 4 9 9 7 17 23 24 27 19 12 2 13 23 26 22 25 23 23 24 29 24 23 20 19 18 16 15 14 13 17 18 18 18 17 13 9 7 11 10 11 7 4
3 3 2 3 17 19 23 24 17 10 11 13 10 6 19 6 20 26 25 26 24 21 22 18 12 13 15 11 13 17 17 16 17 15 14 9 9 12 10 11 4 3 6
2 2 5 7 19 19 24 29 28 27 23 17 14 12 8 9 4 10 27 23 18 19 9 10 11 12 13 16 21 20 17 16 12 9 3 3 2 0 4 2 2 2 3
6 6 2 7 18 18 23 27 31 25 22 20 18 20 15 16 14 12 7 8 7 18 19 14 17 17 19 22 20 17 13 9 7 5 4 1 1 0 4 4 6 5 3
5 5 2 10 18 19 21 27 28 29 25 16 10 18 24 23 23 24 26 19 21 22 22 23 21 25 22 18 15 12 10 9 7 6 3 2 3 3 4 4 4 5 8
8 4 8 14 19 17 18 22 21 25 25 24 23 19 19 23 24 30 29 22 19 19 20 20 21 19 16 16 14 13 11 9 8 6 4 4 4 4 3 3 4 4 5
8 8 8 15 12 12 15 18 19 20 24 24 23 22 23 19 21 22 25 23 22 21 20 19 18 17 17 15 13 12 11 9 8 6 5 4 2 1 1 2 3 3 4
11 10 8 7 9 7 14 18 17 20 21 23 24 23 21 23 25 24 23 22 22 19 17 16 17 17 17 16 15 13 11 10 9 7 6 5 3 2 2 3 3 3 5
10 8 7 6 8 12 14 18 22 22 23 24 25 24 21 20 21 18 17 16 16 16 16 16 17 17 16 15 14 13 12 11 9 7 6 4 2 1 1 2 3 3 5
12 9 6 5 8 12 14 16 18 20 22 23 22 21 20 19 18 17 16 15 13 13 13 16 16 16 15 14 14 13 12 10 10 9 6 3 1 3 4 3 4 4 5
10 9 7 6 9 10 12 14 18 19 19 21 20 19 19 18 17 16 16 15 16 16 16 16 16 16 15 14 13 12 12 11 9 7 5 3 3 3 4 4 4 4 4
8 9 9 8 9 10 12 13 14 16 18 19 17 16 17 17 17 18 19 19 19 19 19 18 17 17 16 14 12 11 10 10 9 7 6 4 2 2 3 4 5 4 4
7 8 9 10 10 11 11 13 12 13 13 16 15 15 15 17 17 18 18 19 19 19 19 18 16 15 13 13 11 9 8 8 7 5 4 2 1 2 3 5 6 4 4
5 9 10 9 10 10 11 11 11 11 12 13 14 15 16 18 18 19 19 18 19 18 17 16 15 13 12 8 7 9 9 7 5 5 3 3 3 2 2 3 7 7 6
10 10 10 10 10 8 7 9 10 9 8 9 11 13 14 15 16 16 16 15 16 16 15 15 13 11 10 8 7 8 9 9 8 5 5 6 5 3 4 5 7 8 7
10 9 10 11 8 5 5 8 7 6 6 8 8 9 10 11 13 15 15 17 17 17 16 14 13 12 11 12 13 11 9 6 4 5 6 6 6 6 7 9 8 8 6
10 9 9 11 10 6 2 5 7 5 6 7 9 11 13 14 16 16 15 15 15 15 14 13 10 8 7 9 10 9 6 6 7 8 8 6 6 7 8 9 10 6 6
9 8 8 8 11 11 6 3 3 2 5 7 8 8 9 10 11 13 12 11 11 10 9 9 7 7 6 7 10 10 9 11 12 9 9 7 6 6 8 10 9 7 7
5 5 5 6 8 9 9 6 4 2 2 5 6 7 8 9 10 10 11 11 12 12 11 11 12 9 9 10 10 9 11 13 12 13 11 10 9 9 9 10 10 9 7
2 2 2 3 5 5 5 4 3 2 2 3 5 6 7 8 9 9 10 12 12 13 15 15 12 12 13 11 10 11 11 11 12 12 11 12 12 12 12 11 11 10 9
4 5 6 6 4 2 1 1 0 0 1 1 2 4 6 7 8 9 9 10 9 11 12 12 12 11 9 7 8 10 10 8 8 9 12 14 15 15 13 13 12 12 12